[[{"header":{"parameterUnit":"m.s-1","parameterCategory":1,"la1":30.6,"la2":29.2853,"lo1":-89.7004,"lo2":-87.6739,"dy":0.0162,"dx":0.0183,"nx":112,"ny":82,"refTime":"2026-04-26T00:00:00:Z","depth":0,"parameterNumber":2,"parameterNumberName":"U-component_of_WINDS"},"data":[0.0,0.0,0.0,0.0,0.0,0.0,0.0,0.0,0.0,0.0,0.0,0.0,0.0,0.0,0.0,0.0,0.0,0.0,0.0,0.0,0.0,0.0,0.0,0.0,0.0,0.0,0.0,0.0,0.0,0.0,0.0,0.0,0.0,0.0,0.0,0.0,0.0,0.0,0.0,0.0,0.0,0.0,0.0,0.0,0.0,0.0,0.0,0.0,0.0,0.0,0.0,0.0,0.0,0.0,0.0,0.0,0.0,0.0,0.0,0.0,0.0,0.0,0.0,0.0,0.0,0.0,0.0,0.0,0.0,0.0,0.0,0.0,0.0,0.0,0.0,0.0,0.0,0.0,0.0,0.0,0.0,0.0,0.0,0.0,0.0,0.0,0.0,0.0,0.0,0.0,-3.8777,-4.3739,-4.8123,-5.0692,-5.0692,-4.908,-4.6028,-4.1188,0.0,0.0,0.0,0.0,0.0,0.0,0.0,0.0,0.0,0.0,0.0,0.0,0.0,0.0,0.0,0.0,0.0,0.0,0.0,0.0,0.0,0.0,0.0,0.0,0.0,0.0,0.0,0.0,0.0,0.0,0.0,0.0,0.0,0.0,0.0,0.0,0.0,0.0,0.0,0.0,0.0,0.0,0.0,0.0,0.0,0.0,0.0,0.0,0.0,0.0,0.0,0.0,0.0,0.0,0.0,0.0,0.0,0.0,0.0,0.0,0.0,0.0,0.0,0.0,0.0,0.0,0.0,0.0,0.0,0.0,0.0,0.0,0.0,0.0,0.0,0.0,0.0,0.0,0.0,0.0,0.0,0.0,0.0,0.0,0.0,0.0,0.0,0.0,0.0,0.0,0.0,0.0,0.0,0.0,0.0,0.0,0.0,0.0,0.0,0.0,0.0,0.0,0.0,0.0,-4.0816,-4.8711,-5.025,-5.0683,-5.0683,-4.8487,-4.5539,-4.1879,0.0,0.0,0.0,0.0,0.0,0.0,0.0,0.0,0.0,0.0,0.0,0.0,0.0,0.0,0.0,0.0,0.0,0.0,0.0,0.0,0.0,0.0,0.0,0.0,0.0,0.0,0.0,0.0,0.0,0.0,0.0,0.0,0.0,0.0,0.0,0.0,0.0,0.0,0.0,0.0,0.0,0.0,0.0,0.0,0.0,0.0,0.0,0.0,0.0,0.0,0.0,0.0,0.0,0.0,0.0,0.0,0.0,0.0,0.0,0.0,0.0,0.0,0.0,0.0,0.0,0.0,0.0,0.0,0.0,0.0,0.0,0.0,0.0,0.0,0.0,0.0,0.0,0.0,0.0,0.0,0.0,0.0,0.0,0.0,0.0,0.0,0.0,0.0,0.0,0.0,0.0,0.0,0.0,0.0,0.0,0.0,0.0,0.0,0.0,0.0,0.0,0.0,0.0,-3.9277,-4.3124,-4.9317,-5.0442,-5.0519,-5.0048,-4.7643,-4.4743,-4.137,-3.7166,0.0,0.0,0.0,0.0,0.0,0.0,0.0,0.0,0.0,0.0,0.0,0.0,0.0,0.0,0.0,0.0,0.0,0.0,0.0,0.0,0.0,0.0,0.0,0.0,0.0,0.0,0.0,0.0,0.0,0.0,0.0,0.0,0.0,0.0,0.0,0.0,0.0,0.0,0.0,0.0,0.0,0.0,0.0,0.0,0.0,0.0,0.0,0.0,0.0,0.0,0.0,0.0,0.0,0.0,0.0,0.0,0.0,0.0,0.0,0.0,0.0,0.0,0.0,0.0,0.0,0.0,0.0,0.0,0.0,0.0,0.0,0.0,0.0,0.0,0.0,0.0,0.0,0.0,0.0,0.0,0.0,0.0,0.0,0.0,0.0,0.0,0.0,0.0,0.0,0.0,0.0,0.0,0.0,0.0,0.0,0.0,0.0,0.0,0.0,0.0,0.0,0.0,-4.2662,-4.5163,-4.8971,-5.001,-5.0048,-4.9163,-4.6394,-4.3448,-4.0477,-3.5309,0.0,0.0,0.0,0.0,0.0,0.0,0.0,0.0,0.0,0.0,0.0,0.0,0.0,0.0,0.0,0.0,0.0,0.0,0.0,0.0,0.0,0.0,0.0,0.0,0.0,0.0,0.0,0.0,0.0,0.0,0.0,0.0,0.0,0.0,0.0,0.0,0.0,0.0,0.0,0.0,0.0,0.0,0.0,0.0,0.0,0.0,0.0,0.0,0.0,0.0,0.0,0.0,0.0,0.0,0.0,0.0,0.0,0.0,0.0,0.0,0.0,0.0,0.0,0.0,0.0,0.0,0.0,0.0,0.0,0.0,0.0,0.0,0.0,0.0,0.0,0.0,0.0,0.0,0.0,0.0,0.0,0.0,0.0,0.0,0.0,0.0,0.0,0.0,0.0,0.0,0.0,0.0,0.0,0.0,0.0,0.0,0.0,0.0,0.0,0.0,0.0,0.0,-4.2978,-4.6441,-4.9125,-4.9433,-4.9125,-4.8279,-4.4432,-4.1316,-3.9515,-3.3853,0.0,0.0,0.0,0.0,0.0,0.0,0.0,0.0,0.0,0.0,0.0,0.0,0.0,0.0,0.0,0.0,0.0,0.0,0.0,0.0,0.0,0.0,0.0,0.0,0.0,0.0,0.0,0.0,0.0,0.0,0.0,0.0,0.0,0.0,0.0,0.0,0.0,0.0,0.0,0.0,0.0,0.0,0.0,0.0,0.0,0.0,0.0,0.0,0.0,0.0,0.0,0.0,0.0,0.0,0.0,0.0,0.0,0.0,0.0,0.0,0.0,0.0,0.0,0.0,0.0,0.0,0.0,0.0,0.0,0.0,0.0,0.0,0.0,0.0,0.0,0.0,0.0,0.0,0.0,0.0,0.0,0.0,0.0,0.0,0.0,0.0,0.0,0.0,0.0,0.0,0.0,0.0,0.0,0.0,0.0,0.0,0.0,0.0,0.0,0.0,0.0,0.0,-4.2085,-4.5432,0.0,-4.9394,-4.9048,-4.8163,-4.4739,-4.1431,-3.8661,0.0,0.0,0.0,0.0,0.0,0.0,0.0,0.0,0.0,0.0,0.0,0.0,0.0,0.0,0.0,0.0,0.0,0.0,0.0,0.0,0.0,0.0,0.0,0.0,0.0,0.0,0.0,0.0,0.0,0.0,0.0,0.0,0.0,0.0,0.0,0.0,0.0,0.0,0.0,0.0,0.0,0.0,0.0,0.0,0.0,0.0,0.0,0.0,0.0,0.0,0.0,0.0,0.0,0.0,0.0,0.0,0.0,0.0,0.0,0.0,0.0,0.0,0.0,0.0,0.0,0.0,0.0,0.0,0.0,0.0,0.0,0.0,0.0,0.0,0.0,0.0,0.0,0.0,0.0,0.0,0.0,0.0,0.0,0.0,0.0,0.0,0.0,0.0,0.0,0.0,0.0,0.0,0.0,0.0,0.0,0.0,0.0,0.0,0.0,0.0,0.0,0.0,-3.82,-4.1585,-4.4816,0.0,-4.8625,-4.824,-4.7394,-4.397,-4.0546,-3.7392,0.0,0.0,0.0,0.0,0.0,0.0,0.0,0.0,0.0,0.0,0.0,0.0,0.0,0.0,0.0,0.0,0.0,0.0,0.0,0.0,0.0,0.0,0.0,0.0,0.0,0.0,0.0,0.0,0.0,0.0,0.0,0.0,0.0,0.0,0.0,0.0,0.0,0.0,0.0,0.0,0.0,0.0,0.0,0.0,0.0,0.0,0.0,0.0,0.0,0.0,0.0,0.0,0.0,0.0,0.0,0.0,0.0,0.0,0.0,0.0,0.0,0.0,0.0,0.0,0.0,0.0,0.0,0.0,0.0,0.0,0.0,0.0,0.0,0.0,0.0,0.0,0.0,0.0,0.0,0.0,0.0,0.0,0.0,0.0,0.0,0.0,0.0,0.0,0.0,0.0,0.0,0.0,0.0,0.0,0.0,0.0,0.0,0.0,0.0,0.0,0.0,0.0,-3.7469,-4.17,-4.497,-4.6692,-4.6885,-4.6547,-4.5671,-4.1747,-3.82,0.0,0.0,0.0,0.0,0.0,0.0,0.0,0.0,0.0,0.0,0.0,0.0,0.0,0.0,0.0,0.0,0.0,0.0,0.0,0.0,0.0,0.0,0.0,0.0,0.0,0.0,0.0,0.0,0.0,0.0,0.0,0.0,0.0,0.0,0.0,0.0,0.0,0.0,0.0,0.0,0.0,0.0,0.0,0.0,0.0,0.0,0.0,0.0,0.0,0.0,0.0,0.0,0.0,0.0,0.0,0.0,0.0,0.0,0.0,0.0,0.0,0.0,0.0,0.0,0.0,0.0,0.0,0.0,0.0,0.0,0.0,0.0,0.0,0.0,0.0,0.0,0.0,0.0,0.0,0.0,0.0,0.0,0.0,0.0,0.0,0.0,0.0,0.0,0.0,0.0,0.0,0.0,0.0,0.0,0.0,0.0,0.0,0.0,0.0,0.0,0.0,0.0,0.0,-3.7469,-4.17,-4.497,-4.6692,-4.6885,-4.6547,-4.5671,-4.2247,-3.8815,-3.5692,0.0,0.0,0.0,0.0,0.0,0.0,0.0,0.0,0.0,0.0,0.0,0.0,0.0,0.0,0.0,0.0,0.0,0.0,0.0,0.0,0.0,0.0,0.0,0.0,0.0,0.0,0.0,0.0,0.0,0.0,0.0,0.0,0.0,0.0,0.0,0.0,0.0,0.0,0.0,0.0,0.0,0.0,0.0,0.0,0.0,0.0,0.0,0.0,0.0,0.0,0.0,0.0,0.0,0.0,0.0,0.0,0.0,0.0,0.0,0.0,0.0,0.0,0.0,0.0,0.0,0.0,0.0,0.0,0.0,0.0,0.0,0.0,0.0,0.0,0.0,0.0,0.0,0.0,0.0,0.0,0.0,0.0,0.0,0.0,0.0,0.0,0.0,0.0,0.0,0.0,0.0,0.0,0.0,0.0,0.0,0.0,0.0,0.0,0.0,0.0,0.0,0.0,-3.7353,-4.1085,-4.4085,-4.6163,-4.6086,-4.5509,-4.4662,-4.1785,-3.843,-3.4692,0.0,0.0,0.0,0.0,0.0,0.0,0.0,0.0,0.0,0.0,0.0,0.0,0.0,0.0,0.0,0.0,0.0,0.0,0.0,0.0,0.0,0.0,0.0,0.0,0.0,0.0,0.0,0.0,0.0,0.0,0.0,0.0,0.0,0.0,0.0,0.0,0.0,0.0,0.0,0.0,0.0,0.0,0.0,0.0,0.0,0.0,0.0,0.0,0.0,0.0,0.0,0.0,0.0,0.0,0.0,0.0,0.0,0.0,0.0,0.0,0.0,0.0,0.0,0.0,0.0,0.0,0.0,0.0,0.0,0.0,0.0,0.0,0.0,0.0,0.0,0.0,0.0,0.0,0.0,0.0,0.0,0.0,0.0,0.0,0.0,0.0,0.0,0.0,0.0,0.0,0.0,0.0,0.0,0.0,0.0,0.0,0.0,0.0,0.0,0.0,0.0,0.0,-3.7115,-4.0115,-4.2607,-4.5077,-4.4654,-4.3846,-4.3038,-4.0692,-3.7507,-3.3269,0.0,0.0,0.0,0.0,0.0,0.0,0.0,0.0,0.0,0.0,0.0,0.0,0.0,0.0,0.0,0.0,0.0,0.0,0.0,0.0,0.0,0.0,0.0,0.0,0.0,0.0,0.0,0.0,0.0,0.0,0.0,0.0,0.0,0.0,0.0,0.0,0.0,0.0,0.0,0.0,0.0,0.0,0.0,0.0,0.0,0.0,0.0,0.0,0.0,0.0,0.0,0.0,0.0,0.0,0.0,0.0,0.0,0.0,0.0,0.0,-4.2603,0.0,0.0,0.0,0.0,0.0,0.0,0.0,0.0,0.0,0.0,0.0,0.0,0.0,0.0,0.0,0.0,0.0,0.0,0.0,0.0,0.0,0.0,0.0,0.0,0.0,0.0,0.0,0.0,0.0,0.0,0.0,0.0,0.0,0.0,0.0,0.0,0.0,0.0,0.0,0.0,0.0,-3.631,-3.9161,-4.1409,-4.3289,-4.3289,-4.2867,-4.2061,-4.0282,-3.7686,-3.4068,-3.0104,0.0,0.0,0.0,0.0,0.0,0.0,0.0,0.0,0.0,0.0,0.0,0.0,0.0,0.0,0.0,0.0,0.0,0.0,0.0,0.0,0.0,0.0,0.0,0.0,0.0,0.0,0.0,0.0,0.0,0.0,0.0,0.0,0.0,0.0,0.0,0.0,0.0,0.0,0.0,0.0,0.0,0.0,0.0,0.0,0.0,0.0,0.0,0.0,0.0,0.0,0.0,0.0,0.0,0.0,0.0,0.0,0.0,0.0,0.0,0.0,-4.3864,0.0,0.0,0.0,0.0,0.0,0.0,0.0,0.0,0.0,0.0,0.0,0.0,0.0,0.0,0.0,0.0,0.0,0.0,0.0,0.0,0.0,0.0,0.0,0.0,0.0,0.0,0.0,0.0,0.0,0.0,0.0,0.0,0.0,0.0,0.0,0.0,0.0,0.0,0.0,0.0,-3.6005,-3.8476,-4.0577,-4.2687,-4.2572,-4.2141,-4.1757,-3.978,-3.7448,-3.4839,-3.1136,0.0,0.0,0.0,0.0,0.0,0.0,0.0,0.0,0.0,0.0,0.0,0.0,0.0,0.0,0.0,0.0,0.0,0.0,0.0,0.0,0.0,0.0,0.0,0.0,0.0,0.0,0.0,0.0,0.0,0.0,0.0,0.0,0.0,0.0,0.0,0.0,0.0,0.0,0.0,0.0,0.0,0.0,0.0,0.0,0.0,0.0,0.0,0.0,0.0,0.0,0.0,0.0,0.0,-5.2575,-5.3607,-5.2766,-5.4295,-5.4677,-5.3913,-5.0436,-4.906,-4.9033,-4.5392,0.0,0.0,0.0,0.0,0.0,0.0,0.0,0.0,0.0,0.0,0.0,0.0,0.0,0.0,0.0,0.0,0.0,0.0,0.0,0.0,0.0,0.0,0.0,0.0,-3.8438,-3.8303,-3.4152,0.0,0.0,0.0,0.0,0.0,0.0,0.0,0.0,0.0,0.0,0.0,-3.5768,-3.7945,-3.993,-4.22,-4.1855,-4.1462,-4.1462,-3.9248,-3.7217,-3.5599,-3.2509,-2.9327,0.0,0.0,0.0,0.0,0.0,0.0,0.0,0.0,0.0,0.0,0.0,0.0,0.0,0.0,0.0,0.0,0.0,0.0,0.0,0.0,0.0,0.0,0.0,0.0,0.0,0.0,0.0,0.0,0.0,0.0,0.0,0.0,-4.2068,-4.2259,0.0,0.0,0.0,0.0,0.0,0.0,0.0,0.0,0.0,0.0,0.0,0.0,0.0,-5.0168,-5.162,-5.5632,-5.6893,-5.5479,-5.8129,-5.8574,-5.7084,-5.8039,-5.8803,-5.939,-5.8803,0.0,-5.0054,-4.8793,0.0,0.0,0.0,0.0,0.0,0.0,0.0,0.0,0.0,0.0,0.0,0.0,0.0,0.0,0.0,0.0,0.0,0.0,0.0,0.0,0.0,0.0,-4.2478,-4.1151,-4.0998,-4.1008,0.0,-3.6676,-3.2996,-3.1193,-2.9085,0.0,0.0,0.0,0.0,0.0,0.0,0.0,-3.5109,-3.7526,-3.945,-4.052,-4.0558,-4.0482,-4.0482,-3.8835,-3.7398,-3.6394,-3.3906,-3.1628,-2.9711,-2.7487,0.0,0.0,0.0,0.0,0.0,0.0,0.0,0.0,0.0,0.0,0.0,0.0,0.0,0.0,0.0,0.0,0.0,0.0,0.0,0.0,0.0,0.0,0.0,0.0,0.0,0.0,0.0,0.0,0.0,-4.1447,-4.4551,-4.3586,-4.4322,-4.4055,0.0,0.0,0.0,0.0,0.0,0.0,0.0,0.0,0.0,-5.1811,-5.3645,-5.5135,-5.632,-5.8651,-5.9453,-5.8741,-6.0332,-6.0943,-6.0714,-6.1058,-6.1707,-6.2524,-6.2013,-5.9606,-5.5747,-5.3034,-5.0168,-4.7341,0.0,0.0,0.0,0.0,-4.4131,-4.3902,-4.5965,-4.6042,-4.501,-4.3596,0.0,0.0,0.0,0.0,0.0,0.0,0.0,0.0,0.0,0.0,-4.3252,-4.2985,-4.3291,-4.3482,-4.3023,-4.0816,-3.8044,0.0,-3.305,-3.1092,-2.8339,0.0,0.0,0.0,0.0,-3.3662,-3.5712,-3.7759,-3.9317,-4.0225,-4.0301,-4.011,-3.9623,-3.8456,-3.7394,-3.6544,-3.458,-3.2721,-3.1037,-2.9423,-2.7363,0.0,0.0,0.0,0.0,0.0,0.0,0.0,0.0,0.0,0.0,0.0,0.0,0.0,0.0,0.0,0.0,0.0,0.0,0.0,0.0,0.0,0.0,0.0,0.0,0.0,0.0,0.0,0.0,-4.3948,-4.6669,-4.5437,-4.6948,-4.7035,0.0,0.0,0.0,0.0,0.0,0.0,-4.9939,-5.2079,-5.4065,-5.5976,-5.8077,-5.9568,-6.0408,-6.1249,-6.144,-6.1058,-6.1669,-6.2051,-6.228,-6.2701,-6.3236,-6.3847,-6.3427,-6.228,-6.0408,-5.6855,-5.3874,-5.1391,-4.9022,-4.7226,-4.6146,-4.7826,-4.7799,-4.7341,-5.0512,-5.0779,-4.9442,-4.7532,-4.5736,-4.3673,-4.0081,0.0,0.0,0.0,0.0,-4.0157,-4.1027,-4.2335,-4.3596,-4.4208,-4.4819,-4.5125,-4.4475,-4.352,-4.1724,0.0,-3.6596,-3.477,-3.1439,0.0,0.0,0.0,0.0,-3.5406,-3.6642,-3.8285,-3.9584,-4.0225,-4.011,-3.969,-3.9049,-3.8018,-3.7139,-3.6557,-3.4923,-3.3318,-3.1866,-3.0758,-2.8823,-2.5891,0.0,0.0,0.0,0.0,0.0,0.0,0.0,0.0,0.0,0.0,0.0,0.0,0.0,0.0,0.0,0.0,0.0,0.0,0.0,0.0,0.0,0.0,0.0,0.0,0.0,0.0,0.0,0.0,0.0,-4.8777,-5.0973,0.0,0.0,0.0,0.0,-4.8754,-5.0975,-5.3455,-5.6014,-5.7046,-5.8689,-6.1134,-6.2166,-6.3083,-6.3938,-6.4726,-6.4344,-6.2777,-6.2815,-6.2013,-6.0575,-6.2166,-6.293,-6.3006,-6.377,-6.3159,-6.1402,-5.9606,-5.7376,-5.4982,-5.3187,-5.1964,-5.1111,-5.0436,-5.0627,-5.1302,-5.1544,-5.1532,-5.1455,-5.1302,-4.8525,-4.4895,-4.31,-4.1418,0.0,0.0,-4.1342,-4.2794,-4.3586,-4.4475,-4.5173,-4.525,-4.5288,-4.5288,-4.5239,-4.394,-4.2259,0.0,-3.8744,-3.7254,-3.629,0.0,-3.4923,-3.4885,-3.6375,-3.7521,-3.7636,-3.9164,-4.0263,-4.0301,-3.9546,-3.9049,-3.9011,-3.7512,-3.6557,-3.6481,-3.4923,-3.3586,-3.2699,-3.1064,-2.9383,-2.7625,-2.5103,0.0,0.0,0.0,0.0,0.0,0.0,0.0,0.0,0.0,0.0,0.0,0.0,0.0,0.0,0.0,0.0,0.0,0.0,0.0,0.0,0.0,0.0,0.0,0.0,0.0,0.0,0.0,0.0,-5.1332,-5.4091,0.0,-5.2105,-5.2946,-5.3731,-5.3862,-5.6082,-5.8139,-5.9674,-6.1042,-6.2186,-6.3123,-6.3955,-6.4534,-6.4839,-6.4038,-6.3298,-6.2689,-6.172,-6.1177,-6.1139,-6.1755,-6.2357,-6.293,-6.3236,-6.2395,-6.079,-6.0179,-5.8765,-5.6893,-5.5708,-5.4753,-5.4027,-5.3722,-5.3416,-5.3301,-5.3836,-5.3683,-5.2957,-5.1314,-4.9022,-4.6806,-4.6194,-4.5611,-4.5,-4.4437,-4.4743,-4.5125,-4.4895,-4.5048,-4.5288,-4.5288,-4.5288,-4.5288,-4.5288,-4.4819,-4.4055,-4.2899,-4.0463,-3.8438,-3.8171,-3.7406,-3.6642,-3.6099,-3.7445,-3.8553,-3.8553,-3.9584,-4.0301,-4.0301,-3.9508,-3.8782,-3.8209,-3.6642,-3.5458,-3.4923,-3.3815,-3.2737,-3.1757,-3.0745,-2.9298,-2.7335,-2.5622,-2.3375,0.0,0.0,0.0,0.0,0.0,0.0,0.0,0.0,0.0,0.0,0.0,0.0,0.0,0.0,0.0,0.0,0.0,0.0,0.0,0.0,0.0,0.0,0.0,0.0,0.0,0.0,-5.2983,-5.3847,-5.692,-5.8092,-5.5962,-5.712,-5.8037,-5.8139,-6.0122,-6.1644,-6.2292,-6.3578,-6.434,-6.4404,-6.4927,-6.5063,-6.4758,-6.36,-6.2763,-6.2192,-6.1164,-6.0813,-6.1027,-6.1435,-6.1884,-6.2428,-6.2457,-6.1502,-5.9922,-5.995,-5.8942,-5.7363,-5.6816,-5.6282,-5.5785,-5.5517,-5.5021,-5.46,-5.4842,-5.4371,-5.3302,-5.133,-4.9716,-4.8533,-4.8266,-4.8201,-4.7957,-4.6773,-4.6478,-4.6309,-4.5507,-4.5288,-4.5288,-4.5288,-4.5288,-4.5288,-4.5288,-4.5048,-4.4781,-4.4475,-4.2183,-4.0196,-3.989,-3.9126,-3.84,-3.7856,-3.8735,-3.9431,-3.9431,-3.9919,-4.0301,-4.0301,-3.9279,-3.8323,-3.775,-3.5916,-3.4579,-3.4014,-3.2898,-3.1852,-3.092,-3.0091,-2.8768,-2.6825,-2.537,-2.3708,-2.1781,0.0,0.0,0.0,0.0,0.0,0.0,0.0,0.0,0.0,0.0,0.0,0.0,0.0,0.0,0.0,0.0,0.0,0.0,0.0,0.0,0.0,0.0,0.0,-4.8717,-5.2413,-5.5446,-5.6431,-5.949,-6.0837,-5.9288,-6.0509,-6.1435,-6.1453,-6.2949,-6.3845,-6.3927,-6.4742,-6.5199,-6.5199,-6.5199,-6.478,-6.3905,-6.3867,-6.3029,-6.1377,-6.1431,-6.0974,-6.0137,-6.11,-6.1511,-6.1453,-6.1511,-6.0557,-5.8935,-5.9029,-5.8023,-5.6456,-5.6561,-5.6587,-5.6511,-5.5708,-5.5403,-5.5275,-5.4345,-5.3442,-5.2539,-5.1688,-5.0825,-4.9974,-4.9175,-4.8983,-4.865,-4.6935,-4.6484,-4.6347,-4.5507,-4.5277,-4.5288,-4.5288,-4.5288,-4.5288,-4.5288,-4.4628,-4.4274,-4.5125,-4.394,-4.2526,-4.1686,-4.0845,-4.0301,-4.0301,-4.0301,0.0,-4.0301,-4.0301,-4.0301,-4.0301,-3.8744,-3.7712,-3.7712,-3.5381,-3.3975,-3.3975,-3.2286,-3.098,-3.0216,-2.9216,-2.7881,-2.6228,-2.445,-2.3517,-2.3554,0.0,0.0,0.0,0.0,0.0,0.0,0.0,0.0,0.0,0.0,0.0,0.0,0.0,0.0,0.0,0.0,0.0,0.0,0.0,0.0,0.0,-4.8174,-5.113,-5.1357,-5.4539,-5.7597,-5.9703,-6.1831,-6.3003,-6.2588,-6.3394,-6.3706,-6.3199,-6.4065,-6.4617,-6.4681,-6.4879,-6.4993,-6.5061,-6.501,-6.4541,-6.3668,-6.3099,-6.2264,-6.118,-6.0653,-6.0266,-6.0045,-6.0342,-6.0487,-6.0472,-6.0502,-5.9578,-5.8044,-5.8001,-5.7024,-5.5616,-5.6332,-5.6561,-5.6444,-5.5682,-5.5403,-5.5275,-5.4397,-5.3506,-5.2627,-5.1801,-5.0924,-5.0125,-4.9896,-4.9834,-4.9428,-4.7753,-4.7304,-4.7045,-4.5595,-4.5256,-4.5288,-4.5288,-4.5288,-4.5288,-4.5288,-4.5125,-4.501,-4.5239,-4.394,-4.2717,-4.2488,-4.1266,-4.0301,-4.0301,-4.0301,0.0,-4.0301,-4.0301,-4.0301,-4.0301,-3.8744,-3.7712,-3.7712,-3.4846,-3.3043,-3.3043,-3.0866,-2.9708,-2.9977,-2.8563,-2.7191,-2.601,-2.4683,-2.3491,0.0,0.0,0.0,0.0,0.0,0.0,0.0,0.0,0.0,0.0,0.0,0.0,0.0,0.0,0.0,0.0,0.0,0.0,0.0,0.0,0.0,0.0,-5.1244,-5.4238,-5.4958,-5.7316,-5.9716,-6.1571,-6.3247,-6.4289,-6.4372,-6.471,-6.4716,-6.4275,-6.4658,-6.4906,-6.4958,-6.4924,-6.4906,-6.4958,-6.4565,-6.3941,-6.309,-6.2273,-6.1439,-6.0584,-6.021,-5.9998,-5.9966,-6.0038,-6.0068,-6.0053,-5.9741,-5.8843,-5.7601,-5.7287,-5.6349,0.0,0.0,0.0,0.0,0.0,-5.5097,-5.4664,-5.3734,-5.287,-5.2031,-5.1192,-5.0558,-5.0114,-5.0114,-4.9873,-4.9315,-4.7921,-4.7348,-4.6874,-4.5502,-4.5203,-4.5246,-4.5246,-4.5,-4.4857,-4.5201,-4.501,-4.4857,-4.5239,-4.394,0.0,-4.2794,-4.1418,-4.0301,-4.0301,-4.0301,-4.0301,-4.0301,-4.0301,-4.0148,-3.9804,-3.8514,-3.7559,-3.7215,-3.477,0.0,0.0,0.0,-2.9779,-2.9284,-2.7975,0.0,0.0,0.0,0.0,0.0,0.0,0.0,0.0,-2.2553,-2.2563,0.0,0.0,0.0,0.0,0.0,0.0,0.0,0.0,0.0,0.0,0.0,0.0,0.0,0.0,0.0,0.0,-5.3783,-5.7043,-5.8597,-6.0226,-6.1548,-6.239,-6.3917,-6.4924,-6.4972,-6.4941,-6.4888,-6.4888,-6.4888,-6.4888,-6.4888,0.0,0.0,0.0,0.0,-6.3052,-6.2256,-6.1477,-6.0681,-5.9902,-5.9966,-5.9966,-5.9902,-6.0007,-6.0,-5.9808,-5.9163,-5.8289,-5.7331,-5.6702,-5.5916,-5.5113,-5.5143,-5.5183,-5.5197,-5.5183,-5.4688,-5.3849,-5.2865,0.0,0.0,-5.0303,-4.9986,-4.9986,-4.9999,-4.9493,-4.8681,-4.7757,-4.6958,-4.6195,-4.5319,-4.5148,-4.5192,-4.5077,-4.451,-4.4197,-4.4972,-4.4551,-4.4274,-4.5125,-4.394,-4.2794,-4.2794,-4.1418,-4.0301,-4.0301,-4.0301,-4.0301,-4.0301,-4.0301,-3.9957,-3.9088,0.0,0.0,-3.6557,-3.4961,-3.3662,-3.289,-3.2073,-3.0676,-2.8584,-2.7835,-2.7568,-2.7798,-2.7991,-2.7999,-2.7847,-2.7887,-2.7648,-2.7026,-2.4073,-2.4087,0.0,0.0,0.0,0.0,0.0,0.0,0.0,0.0,0.0,0.0,0.0,0.0,0.0,0.0,0.0,-5.2494,-5.5906,-5.8559,-5.9506,-6.1098,-6.2235,-6.2404,-6.3903,-6.4888,-6.4906,-6.4888,-6.4888,-6.4888,-6.4888,-6.4888,-6.4888,-6.4244,-6.3848,-6.3848,-6.3052,-6.2235,-6.1363,-6.1174,-6.0681,-5.9902,0.0,0.0,-5.9902,-5.9918,-5.9592,-5.8932,-5.8796,-5.7878,-5.6519,-5.6337,-5.5783,-5.5028,-5.5075,-5.5143,-5.5183,-5.513,-5.4648,-5.3862,-5.2984,-5.2094,-5.1218,-5.0368,-5.0025,-4.9999,-5.005,-4.9429,0.0,-4.7732,-4.6921,-4.6136,-4.5261,-4.5114,-4.5001,-4.4304,-4.4079,-4.4045,-4.4236,-4.4121,-4.4274,-4.5125,-4.394,-4.2794,-4.2794,-4.1418,-4.0301,-4.0301,-4.0301,-4.0301,-4.0301,-4.0301,-3.9957,-3.9088,-3.8209,-3.7368,-3.6557,-3.4961,-3.3937,-3.3738,-3.2792,-3.1288,-2.9214,-2.9603,-2.9201,-2.7835,-2.7842,-2.7521,-2.6885,-2.6896,-2.7543,-2.8792,-2.6723,-2.6449,0.0,0.0,0.0,0.0,0.0,0.0,0.0,0.0,0.0,0.0,0.0,-4.408,-4.7453,0.0,-5.2115,-5.5072,-5.7308,-5.8992,-5.9788,-6.0984,-6.1932,-6.2349,-6.3903,-6.4888,-6.4888,-6.4888,-6.4888,-6.4888,-6.4509,-6.4244,-6.4244,-6.3431,-6.2976,-6.2976,-6.2197,-6.1553,-6.1098,-6.0681,-6.0302,-5.9902,-5.9902,-5.9902,-5.9885,-5.9468,-5.9089,-5.8635,-5.7801,-5.6998,-5.6231,-5.5776,-5.535,-5.5,-5.5042,-5.5113,-5.5091,-5.467,-5.3971,-5.3147,-5.2296,-5.142,-5.0569,-5.0177,-5.0012,-4.991,-4.9569,-4.8808,-4.7922,-4.7087,-4.6252,-4.5494,-4.5076,-4.5033,-4.4885,-4.4032,-4.3579,-4.3479,-4.393,-4.3663,-4.3777,-4.5017,-4.4263,-4.3232,-4.2761,-4.1685,-4.0769,-4.0339,-4.0301,-4.0301,-4.0301,-4.0301,-3.9804,-3.8476,-3.7941,-3.7215,-3.5946,-3.4677,-3.3903,-3.3773,-3.2834,-3.1749,-3.0498,-3.0832,-3.0593,-2.9634,-2.9597,-2.9414,-2.8998,-2.8998,-2.9471,-3.0323,-2.9423,-2.9363,0.0,0.0,0.0,0.0,0.0,0.0,0.0,0.0,-4.2515,-4.571,-4.6506,-4.7719,-5.1282,-5.2722,-5.4314,-5.7194,-5.8369,-5.9181,-5.9809,-6.0584,-6.1363,-6.2084,-6.3486,-6.4434,-6.4434,-6.4434,-6.4434,-6.4434,-6.3751,-6.3355,-6.3355,-6.2614,-6.2159,-6.2159,-6.1288,-6.0887,-6.0887,-6.0226,-5.9902,-5.9902,-5.9902,-5.9902,-5.9864,-5.9067,-5.8597,-5.8331,-5.6664,-5.5943,-5.5906,-5.526,-5.4971,-5.4971,-5.4971,-5.49,-5.4766,-5.4134,-5.318,-5.2151,-5.1505,-5.0705,-4.9893,-4.9946,-4.9973,-4.9821,-4.9036,-4.8188,-4.7302,-4.6468,-4.5571,-4.4914,-4.4914,-4.4823,-4.4551,-4.3759,-4.2987,-4.2695,-4.3566,-4.3232,-4.326,-4.4887,-4.4527,-4.3687,-4.2764,-4.1988,-4.1218,-4.0406,-4.0301,-4.0301,-4.0301,-4.0301,-3.9623,-3.7903,-3.7712,-3.7024,-3.5327,-3.4577,-3.4048,-3.3753,-3.3042,-3.2377,-3.1836,-3.1788,-3.163,-3.1359,-3.1359,-3.1372,-3.1372,-3.1384,-3.147,-3.1641,-3.1641,-3.1812,-3.9728,-3.9242,-4.0272,-4.1739,-4.2694,-4.444,0.0,0.0,-4.8439,-5.1054,-5.2191,-5.3101,-5.4276,-5.5792,-5.7232,-5.8369,-5.9241,-5.9788,-5.9885,-6.0584,-6.1136,-6.1212,-6.2084,-6.2673,-6.2673,-6.2673,-6.2673,-6.2673,-6.2597,-6.2521,-6.2521,-6.1705,-6.125,-6.125,-6.0454,-6.0053,-6.0053,-5.9939,-5.9902,-5.9902,-5.9902,-5.9902,-5.9864,-5.9067,-5.8256,-5.746,-5.5754,-5.5034,-5.5034,-5.4958,-5.4897,-5.4897,-5.4897,-5.448,-5.385,-5.3808,-5.281,-5.1429,-5.1315,-5.0705,-4.9893,-4.9893,-4.9893,-4.9754,-4.9023,-4.8162,-4.7252,-4.6505,-4.5607,-4.4914,-4.4914,-4.4429,-4.3721,-4.2922,-4.2169,-4.1857,-4.2685,-4.2751,-4.3198,-4.4782,-4.4402,-4.3564,-4.2754,-4.1958,-4.1159,-4.032,-4.0282,-4.0301,-4.0301,-4.0301,-3.9623,-3.7903,-3.7712,-3.7007,-3.5323,-3.5124,-3.4896,-3.4597,-3.4228,-3.3618,-3.2612,-3.242,-3.1973,-3.123,-3.1258,-3.1296,-3.1296,-3.1359,-3.1751,-3.2472,-3.2472,-3.2511,-4.4475,-4.4378,-4.4891,0.0,-4.7331,-4.8807,-5.09,-5.0759,-5.0781,-5.2793,-5.3471,-5.4238,-5.6019,-5.6929,-5.7839,0.0,-5.9658,-5.9902,-5.9902,-5.9788,-5.9712,-5.9712,-5.9999,-6.0795,-6.2256,-6.2408,-6.2408,-6.2408,-6.1932,-6.1629,-6.1629,-6.0833,-6.0378,-6.0378,-6.0091,-5.9902,-5.9902,-5.9902,-5.9902,-5.9902,-5.9902,-5.9658,-5.9165,-5.8331,-5.7194,-5.5906,-5.5185,-5.492,-5.492,-5.492,-5.492,-5.4844,-5.4389,-5.3707,-5.2949,-5.3034,-5.2275,-5.1185,-5.0694,-5.025,-4.9893,-4.9893,-4.9589,-4.9059,-4.8213,-4.7365,-4.6518,-4.5709,-4.5204,-4.4926,-4.4962,-4.4364,-4.3612,-4.277,-4.1975,-4.1625,-4.2443,-4.2622,-4.3107,-4.4715,-4.4395,-4.3558,-4.2655,-4.1867,-4.1091,-4.0261,-4.0215,-4.0301,-4.0301,-3.9843,-3.8878,-3.7134,-3.6523,-3.5942,-3.5204,-3.5101,-3.4945,-3.4651,-3.4401,-3.4006,-3.341,-3.3182,-3.2911,-3.2602,-3.263,-3.2643,-3.2643,-3.2724,-3.2897,-3.3226,-3.3266,-3.3266,-4.6997,-4.7608,-4.8399,-4.9472,-5.1127,-5.2514,-5.2463,-5.2574,-5.2948,-5.3936,-5.4258,-5.4958,-5.6739,-5.7232,-5.7876,-5.9317,-5.9544,-5.9658,-5.9864,-5.9203,-5.8726,-5.8726,-5.8483,-5.9127,-6.1174,-6.1591,-6.1705,-6.1705,-6.1136,-6.0757,-6.0757,-6.0226,-5.9902,-5.9902,-5.9902,-5.9902,-5.9902,-5.9902,-5.9902,-5.9902,-5.9902,-5.9485,-5.865,-5.7573,-5.6285,-5.492,-5.492,-5.492,-5.492,-5.492,-5.4769,-5.4503,-5.3935,-5.3025,-5.2077,-5.2134,-5.1589,-5.0751,-5.0161,-4.9933,-4.9855,-4.9627,-4.9172,-4.849,-4.7378,-4.6657,-4.6013,-4.5141,-4.4914,-4.4926,-4.4974,-4.4201,-4.3274,-4.271,-4.1743,-4.121,-4.2036,-4.2417,-4.2976,-4.4353,-4.4224,-4.354,-4.2576,-4.1841,-4.1089,-4.021,-4.0166,-4.0263,-4.0282,-3.928,-3.804,-3.6517,-3.564,-3.5166,-3.5075,-3.5039,-3.4908,-3.4693,-3.4424,-3.4166,-3.3941,-3.3698,-3.353,-3.3553,-3.3545,-3.3559,-3.3559,-3.3629,-3.3671,-3.3671,-3.3739,-3.3739,-4.5583,-4.7199,-4.9442,-5.1123,-5.3328,-5.5082,-5.5069,-5.5646,-5.5911,-5.5113,-5.5586,-5.6133,-5.6209,-5.6853,-5.7687,-5.8597,-5.8764,-5.9014,-5.9788,-5.9203,-5.8726,-5.8726,-5.7952,-5.7801,-5.871,-5.9506,-5.9961,-5.9961,-5.9939,-5.9939,-5.9939,-5.9902,-5.9902,-5.9902,-5.9902,-5.9902,-5.9902,-5.9902,-5.9902,-5.9902,-5.9902,-5.9485,-5.8635,-5.6967,-5.5754,-5.492,-5.492,-5.492,-5.492,-5.492,-5.4427,-5.3745,-5.3707,-5.2684,-5.123,-5.1244,-5.0675,-4.9931,-4.9893,-4.9893,-4.9779,-4.8983,-4.8717,-4.8376,-4.6733,-4.6203,-4.6013,-4.5141,-4.4914,-4.4914,-4.4914,-4.3748,-4.2541,-4.2503,-4.1292,-4.0363,-4.1157,-4.1933,-4.2758,-4.3561,-4.3701,-4.3436,-4.2564,-4.1786,-4.0994,-4.011,-4.0038,-4.0137,-4.0196,-3.8709,-3.73,-3.6387,-3.5587,-3.5075,-3.503,-3.4982,-3.4983,-3.4916,-3.4626,-3.4381,-3.408,-3.3847,-3.3587,-3.3408,-3.3466,-3.3509,-3.3509,-3.3559,-3.3587,-3.3587,-3.3671,-3.3657,-4.8945,0.0,-5.2805,-5.4486,-5.5963,-5.6828,-5.6255,-5.6289,-5.6016,-5.4566,-5.3988,-5.3727,-5.3669,-5.3897,-5.4731,-5.6702,-5.7497,-5.8331,-5.9712,-5.9203,-5.8483,-5.7914,-5.7573,0.0,-5.7801,-5.8597,0.0,-5.9864,-5.9902,-5.9902,-5.9902,-5.9902,-5.9902,-5.9902,-5.9902,-5.9902,-5.9902,-5.9902,-5.9902,-5.9885,-5.8748,-5.7801,-5.7005,-5.5868,-5.5185,-5.492,-5.492,-5.492,-5.492,-5.492,-5.4427,-5.3631,-5.3063,-5.2177,-5.1116,-5.0561,-5.0144,-4.9893,-4.9893,-4.9893,-4.9779,-4.8983,-4.83,-4.7605,-4.6544,-4.5786,-4.5293,-4.499,-4.4914,-4.4926,-4.4962,-4.4163,-4.3225,-4.2655,-4.1678,-4.0956,-4.1168,-4.1867,-4.2663,-4.3549,-4.3246,-4.2754,-4.2439,-4.132,-4.0338,-4.0034,-4.0076,-3.9698,-3.8613,-3.7957,-3.7053,-3.558,-3.52,-3.503,-3.4936,-3.4936,-3.4917,-3.4889,-3.4502,-3.4276,-3.4154,-3.3739,-3.3466,-3.3393,-3.3422,-3.3437,-3.3437,-3.3509,-3.3553,-3.3553,-3.3587,-3.3587,-5.1276,-5.3263,-5.5059,-5.7008,-5.7695,-5.7734,-5.7199,-5.6534,-5.5551,-5.3834,-5.2485,-5.153,-5.1171,-5.084,-5.1547,-5.4389,-5.5527,-5.6853,-5.9127,-5.8748,-5.8028,-5.746,-5.7156,-5.6967,0.0,-5.8028,0.0,-5.9447,-5.9485,-5.9485,-5.9485,-5.975,-5.9902,-5.9902,-5.9902,-5.9902,-5.9902,-5.9902,-5.975,-5.943,-5.7763,-5.6702,-5.6171,-5.5299,-5.492,-5.492,-5.492,-5.492,-5.4882,-5.4579,-5.3973,-5.3139,-5.2305,-5.1471,-5.0675,-5.012,-4.9893,-4.9893,-4.9893,-4.9893,-4.9741,-4.8604,-4.787,-4.7188,-4.6051,-4.5331,-4.4914,-4.4914,-4.4914,-4.4926,-4.4962,-4.4367,-4.3532,-4.2659,-4.1862,-4.1168,-4.0821,-4.1605,-4.2552,-4.3133,-4.2791,-4.2401,-4.2401,-4.1032,-3.9965,-3.9965,-3.9986,-3.9399,-3.7737,-3.7509,-3.6853,-3.5154,-3.4955,-3.4945,-3.4908,-3.4908,-3.4908,-3.4908,-3.4577,-3.4358,-3.4228,-3.3834,-3.3567,-3.3393,-3.3393,-3.3393,-3.3393,-3.3437,-3.3466,-3.3466,-3.3553,-3.3684,-5.2537,-5.4256,-5.6167,-5.8498,-5.8536,-5.7925,-5.781,-5.642,-5.4663,-5.2857,-5.104,-4.9505,0.0,0.0,-4.8363,-5.1661,-5.3101,-5.492,-5.8218,-5.8028,-5.7497,0.0,0.0,0.0,0.0,0.0,0.0,-5.865,0.0,-5.8764,-5.8726,-5.9485,-5.9902,-5.9902,-5.9902,-5.9902,-5.9902,-5.9864,-5.9393,-5.8575,-5.6967,-5.6171,-5.6095,-5.5299,-5.492,-5.492,-5.492,-5.492,-5.4844,-5.4048,-5.3177,-5.2329,-5.1495,-5.0675,-4.9893,-4.9893,-4.9893,-4.9893,-4.9893,-4.9893,-4.9627,-4.7946,-4.7378,-4.7074,-4.5407,-4.4914,-4.4914,-4.4914,-4.4914,-4.4914,-4.4914,-4.4345,-4.3549,-4.264,-4.1844,-4.0999,-4.0089,-4.1188,-4.2363,-4.2401,-4.2401,-4.2363,-4.2287,-4.0961,-3.99,-3.99,-3.99,-3.9294,-3.7599,-3.742,-3.6765,-3.5097,-3.4908,-3.4908,-3.4908,-3.4908,-3.4908,-3.4898,-3.4791,-3.4583,-3.4216,-3.403,-3.3793,-3.3393,-3.3393,-3.3393,-3.3393,-3.3393,-3.3393,-3.3393,-3.3502,-3.3938,-5.4982,-5.6855,-5.8293,-5.8942,-5.8956,-5.8307,-5.6473,-5.5199,-5.3519,-5.0494,-4.8043,-4.594,0.0,0.0,0.0,-4.921,-5.2419,0.0,-5.8293,-5.903,0.0,-5.8445,0.0,-5.8066,-5.8066,-5.7308,0.0,0.0,-5.89,-5.9317,-5.871,-5.9485,-5.9902,-5.9902,-5.9902,-5.9902,-5.9902,-5.9333,-5.8256,-5.6815,-5.6398,-5.5868,-5.5223,-5.4996,-5.492,-5.492,-5.492,-5.492,-5.4844,-5.4048,-5.3177,-5.2329,-5.1495,-5.0675,-4.9893,-4.9893,-4.9893,-4.9893,-4.9893,-4.9893,-4.9627,-4.7946,-4.7378,-4.7074,-4.5407,-4.4914,-4.4914,-4.4914,-4.4914,-4.4914,-4.4914,-4.4762,-4.4232,-4.2754,-4.2249,-4.1681,-4.0203,-4.0734,-4.1681,-4.2287,-4.2401,-4.1984,-4.0734,-4.0165,-3.99,-3.99,-3.99,-3.9294,-3.7599,-3.742,-3.6765,-3.5097,-3.4908,-3.4908,-3.4908,-3.4908,-3.484,-3.4689,-3.4484,-3.424,-3.3926,-3.3671,-3.3509,-3.3393,-3.3393,-3.3393,-3.3393,-3.3393,-3.3393,-3.3393,-3.4024,-3.4422,-5.7122,-5.8651,-5.9568,-5.9224,-5.8536,-5.7237,-5.4409,-5.2499,-5.0374,-4.6919,-4.4484,0.0,-4.113,-4.1911,0.0,0.0,0.0,0.0,-5.6626,-5.7763,-5.8218,0.0,-5.8142,0.0,-5.8142,-5.7611,-5.7194,0.0,-5.8066,-5.8597,-5.8142,-5.9257,-5.9902,-5.9902,-5.956,-5.9165,-5.8786,-5.799,-5.7118,-5.6209,-5.5792,-5.5375,-5.492,-5.492,-5.492,-5.492,0.0,-5.4693,-5.4314,-5.348,-5.2646,-5.1798,-5.0978,-5.0334,-4.9893,-4.9893,-4.9893,-4.9893,-4.9893,-4.9893,-4.9627,-4.7946,-4.7378,-4.7074,-4.5407,-4.4914,-4.4914,-4.4914,-4.4914,-4.4914,-4.4914,-4.4914,-4.4497,-4.278,-4.2401,-4.1946,-4.0279,-4.0582,-4.134,-4.1795,-4.2174,-4.187,-4.0203,-3.99,-3.99,-3.99,-3.99,-3.9445,-3.814,-3.7647,-3.6765,-3.5097,-3.4908,-3.4908,-3.4908,-3.4831,-3.472,-3.4594,-3.4335,-3.403,-3.382,-3.3615,-3.3495,-3.3393,-3.3393,-3.3393,-3.3393,-3.3393,-3.3574,-3.3936,-3.4045,-3.4624,-5.8842,-5.9835,-6.0179,-5.9185,-5.7695,-5.5517,-5.2079,-4.9278,-4.6489,-4.3166,0.0,-3.9547,-3.8699,-3.9229,-4.0892,-4.4265,0.0,-5.0954,-5.4427,-5.564,-5.6512,-5.7308,-5.7384,-5.7384,-5.7384,-5.799,-5.7763,-5.6323,-5.6853,-5.727,-5.7384,-5.8786,-5.9544,-5.9544,-5.89,-5.8104,-5.7232,-5.655,-5.6133,-5.6019,-5.5261,-5.492,-5.492,-5.492,-5.492,-5.492,-5.492,-5.4427,-5.3631,-5.276,-5.1912,-5.113,-5.022,-4.9893,-4.9893,-4.9893,-4.9893,-4.9893,-4.9893,-4.9893,-4.9627,-4.806,-4.7491,-4.7112,-4.5558,-4.499,-4.4914,-4.4914,-4.4914,-4.4914,-4.4914,-4.4914,-4.4497,-4.278,-4.2401,-4.1946,-4.0279,-4.0582,-4.1188,-4.1188,-4.1757,-4.1795,-4.0317,-3.9976,-3.99,-3.99,-3.99,-3.9597,-3.8784,-3.795,-3.6803,-3.5249,-3.4984,-3.4908,-3.4908,-3.472,-3.4572,-3.4539,-3.4264,-3.3991,-3.3766,-3.3684,-3.3595,-3.3393,-3.3393,-3.3393,-3.3393,-3.3502,-3.3936,-3.4588,-3.4117,-3.4987,-5.9911,-6.0255,-6.0026,-5.8498,-5.6855,-5.4524,-5.0474,-4.757,0.0,0.0,-3.9318,-3.782,-3.6909,-3.8004,-4.0144,-4.3403,-4.672,-5.0312,-5.4314,-5.564,-5.6512,0.0,-5.7384,-5.7384,-5.7384,-5.6929,0.0,0.0,-5.6323,-5.6702,-5.7346,-5.7687,-5.7839,-5.7839,-5.7687,-5.7232,-5.6398,-5.6285,-5.583,-5.511,-5.4958,-5.492,-5.492,-5.492,-5.492,-5.492,-5.492,0.0,-5.3631,-5.276,-5.1912,-5.113,-5.022,-4.9893,-4.9893,-4.9893,-4.9893,-4.9893,-4.9893,-4.9893,-4.9741,-4.8793,-4.7984,-4.7226,-4.6241,-4.5483,-4.4914,-4.4914,-4.4914,-4.4914,-4.4914,-4.4914,-4.4497,-4.278,-4.2401,-4.1946,-4.0279,-4.0582,-4.1188,-4.1188,-4.1302,-4.1302,-4.0999,-4.0393,-3.99,-3.99,-3.99,-3.9597,-3.8784,-3.795,-3.704,-3.6093,-3.5325,-3.4908,-3.4908,-3.472,-3.4506,-3.4262,-3.4029,-3.3739,-3.3481,-3.3452,-3.3437,-3.3393,-3.3393,-3.3393,-3.3393,-3.4081,-3.448,-3.4624,-3.582,-3.6596,-6.0141,-6.0422,-5.9988,-5.8307,-5.6282,-5.3378,-4.8258,0.0,0.0,0.0,-3.5959,-3.5073,-3.5094,-3.6423,0.0,-4.1358,-4.387,0.0,0.0,0.0,0.0,0.0,0.0,0.0,0.0,0.0,-5.6209,-5.6209,-5.5792,-5.5906,-5.6739,-5.7156,-5.7194,-5.6777,-5.6777,-5.636,-5.5527,-5.5527,-5.5299,-5.492,-5.492,-5.492,-5.492,-5.492,-5.492,-5.4882,-5.4465,-5.3821,-5.2949,-5.2101,-5.1282,-5.0486,-5.0082,-4.9893,-4.9893,-4.9893,-4.9893,-4.9893,-4.9893,-4.9893,-4.9855,-4.9438,-4.8452,-4.7264,-4.643,-4.5596,-4.4914,-4.4914,-4.4914,-4.4914,-4.4914,-4.4914,-4.4573,-4.336,-4.2401,-4.1416,-4.0165,-4.0454,-4.0825,-4.041,-4.0528,-4.0578,-4.0128,-3.9702,-3.9439,-3.9439,-3.9439,-3.9289,-3.8914,-3.8126,-3.7243,-3.629,-3.569,-3.5203,-3.4788,-3.439,-3.4117,-3.3979,-3.3739,-3.3553,-3.3393,-3.3393,-3.3393,-3.3393,-3.3393,-3.3393,-3.3393,-3.4226,-3.4842,-3.5225,-3.6037,-3.6798,-5.9873,-6.0102,-5.9759,-5.8268,-5.5708,-5.2117,-4.6538,-4.2565,0.0,0.0,-3.3249,-3.2889,-3.3815,0.0,-3.6463,0.0,-4.0902,-4.3494,0.0,0.0,0.0,0.0,0.0,0.0,0.0,0.0,0.0,0.0,0.0,0.0,-5.5868,-5.6702,-5.6777,-5.5943,-5.5906,-5.5602,-5.492,-5.492,-5.492,-5.492,-5.492,-5.492,-5.492,-5.492,-5.492,-5.4844,-5.4048,-5.3215,-5.2343,-5.1533,-5.0675,-4.9893,-4.9893,-4.9893,-4.9893,-4.9893,-4.9893,-4.9893,-4.9893,-4.9893,-4.9855,-4.9703,-4.8642,-4.7264,-4.6657,-4.571,-4.4914,-4.4914,-4.4914,-4.4914,-4.4914,-4.4914,-4.4649,-4.3663,-4.2226,-4.0855,-4.0023,-4.0088,-4.0214,-3.9764,-3.9856,-3.9877,-3.9342,-3.912,-3.8994,-3.8994,-3.8994,-3.8994,-3.8994,-3.8474,-3.7666,-3.6653,-3.6194,-3.563,-3.4843,-3.4314,-3.399,-3.3807,-3.3567,-3.3393,-3.3393,-3.3393,-3.3465,-3.3647,-3.3647,-3.3755,-3.3936,-3.4733,-3.5457,-3.6073,-3.6254,-3.6979,-5.8994,-5.9224,-5.9033,-5.8116,-5.483,-5.0665,-4.6309,0.0,0.0,-3.4702,-3.331,-3.2959,-3.3853,-3.344,-3.4276,-3.8347,0.0,-4.1163,0.0,0.0,0.0,0.0,0.0,0.0,0.0,0.0,0.0,0.0,0.0,0.0,-5.5034,-5.583,-5.5906,-5.5034,-5.5034,-5.4996,-5.492,-5.492,-5.492,-5.492,-5.492,-5.492,-5.492,-5.492,-5.492,-5.4844,-5.4048,-5.3215,0.0,-5.1533,-5.0675,-4.9893,-4.9893,-4.9893,-4.9893,-4.9893,-4.9893,-4.9893,-4.9893,-4.9893,-4.9779,-4.9059,-4.8187,-4.7378,-4.7302,-4.6165,-4.4914,-4.4914,-4.4914,-4.4914,-4.4914,-4.4914,-4.4497,-4.2905,-4.1604,-4.0528,-3.9701,-3.9324,-3.9384,-4.0067,-3.963,-3.9342,-4.0077,-3.9528,-3.8994,-3.8994,-3.8994,-3.8994,-3.8994,-3.892,-3.8562,-3.7748,-3.6978,-3.6209,-3.538,-3.5071,-3.4564,-3.3844,-3.3567,-3.3393,-3.3393,-3.3393,-3.3755,-3.448,-3.448,-3.4842,-3.5587,-3.6399,-3.6814,-3.6922,-3.7647,-3.8082,-5.7084,-5.7963,-5.8077,-5.674,-5.3569,-4.971,-4.5468,0.0,-3.6672,-3.3807,-3.2134,-3.1446,-3.2286,-3.2157,-3.2966,-3.6118,-3.6176,-3.7842,-4.3623,0.0,0.0,0.0,0.0,0.0,0.0,0.0,0.0,0.0,0.0,0.0,-5.492,-5.5223,-5.5261,-5.492,-5.492,-5.492,-5.492,-5.492,-5.492,-5.492,-5.492,-5.492,-5.492,-5.492,-5.4655,-5.4124,-5.329,-5.2442,0.0,-5.0789,-5.022,-4.9893,-4.9893,-4.9893,-4.9893,-4.9893,-4.9893,-4.9893,-4.9893,-4.9769,-4.9573,-4.9234,-4.8085,-4.6794,-4.6705,-4.5862,-4.4914,-4.4914,-4.4914,-4.4914,-4.4914,-4.4764,-4.4295,-4.3152,-4.2002,-4.0975,-4.009,-3.9309,-3.887,-3.9217,-3.8882,-3.8632,-3.8978,-3.8742,-3.8523,-3.8523,-3.8523,-3.8523,-3.8523,-3.8523,-3.8397,-3.8068,-3.7448,-3.6569,-3.5279,-3.4906,-3.4404,-3.3617,-3.3466,-3.3393,-3.3393,-3.3864,-3.4262,-3.4573,-3.508,-3.5478,-3.5804,-3.6616,-3.6995,-3.7031,-3.7828,-3.8191,-5.5097,-5.632,-5.6473,-5.5326,-5.227,-4.8602,0.0,-4.011,-3.5793,-3.3234,-3.1369,-3.0452,-3.1248,-3.1439,-3.2218,-3.442,-3.467,-3.6377,-4.1358,-4.2724,0.0,0.0,0.0,0.0,0.0,0.0,0.0,0.0,0.0,0.0,-5.492,-5.492,-5.492,-5.492,-5.492,-5.492,-5.492,-5.492,-5.492,-5.492,-5.492,-5.492,-5.4882,-5.4655,-5.4238,-5.3631,-5.2532,-5.1722,0.0,-5.0258,-4.9893,-4.9893,-4.9893,-4.9893,-4.9879,-4.9783,-4.9755,-4.9741,-4.9617,-4.9423,-4.9145,-4.8658,-4.7564,-4.6297,-4.5717,-4.5153,-4.4751,-4.4739,-4.4687,-4.4597,-4.4597,-4.4448,-4.4069,-4.3231,-4.2366,-4.1422,-4.0333,-3.9412,-3.8789,-3.8533,-3.834,-3.8191,-3.8191,-3.8191,-3.8191,-3.8191,-3.8191,-3.8191,-3.8191,-3.8191,-3.8191,-3.8191,-3.7858,-3.7071,-3.5718,-3.5399,-3.4987,-3.4154,-3.4117,-3.4117,-3.4117,-3.4661,-3.5059,-3.5313,-3.5856,-3.629,-3.6508,-3.7087,-3.7357,-3.7357,-3.7937,-3.8191,-5.3225,-5.4142,-5.4142,-5.4104,-5.0932,-4.7139,-4.4579,-4.011,-3.5793,-3.3234,-3.1369,-3.0452,-3.1248,-3.1416,-3.1981,-3.3738,-3.5271,-3.7461,-4.0836,-4.338,0.0,0.0,0.0,0.0,0.0,0.0,0.0,0.0,0.0,0.0,-5.492,-5.492,-5.492,-5.492,-5.492,-5.492,-5.492,-5.492,-5.492,-5.492,-5.492,-5.492,-5.4882,-5.4086,-5.3707,-5.3631,0.0,-5.1192,0.0,-5.0258,-4.9893,-4.9893,-4.9893,-4.9893,-4.9852,-4.9537,-4.9415,-4.9368,-4.8936,-4.8816,-4.8556,-4.6958,-4.6438,-4.6104,-4.4432,-4.414,-4.4383,-4.4299,-4.411,-4.3912,-4.3912,-4.3912,-4.3711,-4.2878,-4.2421,-4.1752,-4.0157,-3.9604,-3.9169,-3.8372,-3.8191,-3.8191,-3.8191,-3.8191,-3.8191,-3.8191,-3.8191,-3.8191,-3.8191,-3.8191,-3.8191,-3.8191,-3.8191,-3.7865,-3.7031,-3.6995,-3.6616,-3.584,-3.5768,-3.5768,-3.5768,-3.5768,-3.6146,-3.6959,-3.6995,-3.7393,-3.8191,-3.8191,-3.8191,-3.8191,-3.8191,-3.8191,-4.7494,-4.8487,-4.864,-4.7483,-4.5316,-4.2985,-4.1036,-3.7597,-3.4388,-3.3005,-3.1369,-3.0261,-3.0529,-3.056,-3.15,-3.4348,-3.5247,0.0,0.0,0.0,0.0,0.0,0.0,0.0,0.0,0.0,0.0,0.0,0.0,0.0,-5.492,-5.492,-5.492,-5.492,-5.492,-5.492,-5.492,-5.492,-5.492,-5.4882,-5.4352,-5.4086,-5.4048,-5.3215,-5.2532,0.0,0.0,0.0,-5.0296,-4.9993,-4.9893,-4.9893,-4.9893,-4.9893,-4.9852,-4.9537,-4.9399,-4.9352,-4.8936,-4.864,-4.8274,-4.7205,-4.6324,-4.5479,-4.4562,-4.4182,-4.405,-4.4035,-4.3974,-4.3896,-4.3896,-4.3738,-4.3483,-4.3246,-4.2497,-4.1577,-4.0522,-3.9818,-3.9152,-3.8372,-3.8191,-3.8191,-3.8191,-3.8191,-3.8191,-3.8191,-3.8191,-3.8191,-3.8191,-3.8191,-3.8191,-3.8191,-3.8191,-3.7865,-3.7067,-3.6995,-3.6653,-3.584,-3.5804,-3.5804,-3.5804,-3.6327,-3.6741,-3.6995,-3.7538,-3.7937,-3.8191,-3.8191,-3.8191,-3.8191,-3.8191,-3.8191,-4.3634,-4.4704,-4.4857,-4.3815,-4.2297,-4.0692,-3.9317,-3.6413,-3.3738,-3.289,-3.1369,-3.0192,-3.0192,-3.0452,-3.1439,-3.3851,-3.5043,-3.6896,0.0,0.0,0.0,0.0,0.0,0.0,0.0,0.0,0.0,0.0,0.0,0.0,-5.492,-5.492,-5.492,-5.492,-5.492,-5.492,-5.492,-5.492,-5.4769,-5.4427,-5.3935,-5.3518,-5.3177,-5.2329,-5.1646,0.0,0.0,-5.041,0.0,-4.9893,-4.9893,-4.9893,-4.9893,-4.9824,-4.9683,-4.9299,-4.909,-4.8922,-4.8513,-4.825,-4.7889,-4.6757,-4.5508,-4.4334,-4.4015,-4.3793,-4.3673,-4.3705,-4.3623,-4.3523,-4.3523,-4.3389,-4.3213,-4.3213,-4.2668,-4.1922,-4.1126,-4.0329,-3.9586,-3.8807,-3.8408,-3.8191,-3.8191,-3.8191,-3.8191,-3.8191,-3.8191,-3.8191,-3.8191,-3.8191,-3.8191,-3.8191,-3.8191,-3.8009,-3.7502,-3.7466,-3.7249,-3.6725,-3.6725,-3.6725,-3.6725,-3.7212,-3.7466,-3.7466,-3.7937,-3.8191,-3.8191,-3.8191,-3.8191,-3.8191,-3.8191,-3.8191,0.0,-4.2259,-4.2335,-4.2259,-4.1036,-3.9652,-3.882,-3.6146,0.0,-3.2776,-3.1331,-3.023,-3.0338,-3.0949,-3.1782,-3.289,-3.4996,-3.7403,0.0,-4.2569,0.0,0.0,0.0,0.0,0.0,0.0,0.0,0.0,0.0,0.0,-5.492,-5.492,-5.4882,-5.4806,-5.4806,-5.4844,-5.492,-5.4844,-5.4427,-5.3707,-5.3594,-5.3101,-5.2291,-5.1457,-5.113,0.0,0.0,-4.9893,-4.9893,-4.9893,-4.9893,-4.9893,-4.9866,-4.9683,-4.9368,-4.8919,-4.855,-4.8175,-4.7736,-4.7591,-4.7265,-4.5707,-4.415,-4.2901,-4.2901,-4.3087,-4.3267,-4.3355,-4.3142,-4.2901,-4.2901,-4.2901,-4.2901,-4.2901,-4.2901,-4.2665,-4.185,-4.1053,-4.0257,-3.955,-3.877,-3.8191,-3.8191,-3.8191,-3.8191,-3.8191,-3.8191,-3.8191,-3.8191,-3.8191,-3.8191,-3.8191,-3.8191,-3.8191,-3.8191,-3.8191,-3.8191,-3.8191,-3.8191,-3.8191,-3.8191,-3.8191,-3.8191,-3.8191,-3.8191,-3.8191,-3.8191,-3.8191,-3.8191,-3.8191,-3.8191,-3.8191,-3.5954,0.0,-3.7818,-3.7139,-3.6222,-3.542,0.0,-3.3547,-3.1943,-3.1744,-3.0911,-3.0605,-3.1859,-3.1744,-3.2592,-3.5954,-3.7016,-3.8478,-4.1683,0.0,0.0,-5.2213,-5.2902,-5.3707,0.0,0.0,0.0,0.0,0.0,-5.492,-5.492,-5.492,-5.4617,-5.401,-5.3973,-5.4276,-5.4882,-5.4276,-5.3897,-5.3669,-5.2419,-5.1684,-5.1457,-5.0599,-5.022,-5.0182,-5.0006,-4.9893,-4.9893,-4.9893,-4.9893,-4.9866,-4.9625,-4.9476,-4.9337,-4.8659,-4.7978,-4.7332,-4.69,-4.6395,-4.5707,-4.4693,-4.3715,-4.2901,-4.2901,-4.2939,-4.2995,-4.3013,-4.2957,-4.2901,-4.2901,-4.2901,-4.2901,-4.2901,-4.2901,-4.2665,-4.185,-4.1053,-4.0257,-3.955,-3.877,-3.8191,-3.8191,-3.8191,-3.8191,-3.8191,-3.8191,-3.8191,-3.8191,-3.8191,-3.8191,-3.8191,-3.8191,-3.8191,-3.8191,-3.8191,-3.8191,-3.8191,-3.8191,-3.8191,-3.8191,-3.8191,-3.8191,-3.8191,-3.8191,-3.8191,-3.8191,-3.8191,-3.8191,-3.8191,-3.8191,-3.8191,-3.4128,-3.5229,-3.629,-3.5411,-3.4885,-3.4541,-3.4541,-3.2936,-3.1446,-3.1446,-3.0796,-3.0605,-3.1897,-3.2088,-3.3043,-3.6069,-3.7521,0.0,0.0,0.0,0.0,0.0,0.0,0.0,0.0,0.0,0.0,0.0,0.0,-5.4731,-5.4389,-5.4352,-5.3973,-5.3139,-5.3101,-5.3328,-5.3745,-5.3328,-5.2911,-5.2532,-5.1623,-5.0978,-5.0599,-5.0107,-4.9893,-4.9893,-4.9893,-4.9893,-4.9893,-4.9893,-4.9893,-4.9866,-4.9537,-4.9268,-4.9073,-4.8495,-4.7934,-4.7299,-4.6694,-4.5743,-4.4693,-4.4222,-4.3553,-4.2901,-4.2901,-4.2901,-4.2901,-4.2901,-4.2901,-4.2901,-4.2901,-4.2901,-4.2901,-4.2901,-4.2901,-4.2774,-4.2339,-4.1615,-4.08,-4.0057,-3.926,-3.8625,-3.8263,-3.8191,-3.8191,-3.8191,-3.8191,-3.8191,-3.8191,-3.8191,-3.8191,-3.8191,-3.8191,-3.8191,-3.8191,-3.8191,-3.8191,-3.8191,-3.8191,-3.8191,-3.8191,-3.8191,-3.8191,-3.8191,-3.8191,-3.8191,-3.8191,-3.8191,-3.8191,-3.8191,-3.8191,-3.8191,-3.4014,-3.5229,-3.6252,-3.5267,-3.5114,-3.519,-3.5037,-3.328,-3.1675,-3.1675,-3.1102,-3.0873,-3.1866,-3.2737,0.0,0.0,0.0,0.0,0.0,0.0,0.0,0.0,0.0,0.0,0.0,0.0,0.0,0.0,0.0,-5.4427,-5.3745,-5.3556,-5.3101,-5.2253,-5.2229,-5.2153,-5.204,-5.2153,-5.1874,-5.1192,-5.1092,-5.0599,-4.9893,-4.9893,-4.9893,-4.9893,0.0,0.0,-4.9893,-4.9893,-4.9866,-4.9783,-4.9423,-4.9073,-4.8676,-4.8363,-4.7826,-4.7192,-4.6287,-4.5055,-4.3896,-4.3896,-4.3481,-4.2901,-4.2901,-4.2901,-4.2901,-4.2901,-4.2901,-4.2901,-4.2901,-4.2901,-4.2901,-4.2901,-4.2901,-4.2901,-4.2901,-4.2266,-4.1488,-4.08,-4.0093,-3.9297,-3.8517,-3.8372,-3.8336,-3.8227,-3.8191,-3.8191,-3.8191,-3.8191,-3.8191,-3.8191,-3.8191,-3.8191,-3.8191,-3.8191,-3.8191,-3.8191,-3.8191,-3.8191,-3.8191,-3.8191,-3.8191,-3.8191,-3.8191,-3.8191,-3.8191,-3.8191,-3.8191,-3.8191,-3.8191,-3.8191,-3.4014,-3.5229,-3.6137,-3.4579,-3.4694,-3.5037,-3.435,-3.3318,-3.2508,0.0,0.0,0.0,0.0,-3.5335,-3.671,0.0,0.0,-4.5535,0.0,0.0,0.0,0.0,0.0,0.0,0.0,0.0,0.0,0.0,0.0,-5.3821,-5.3707,-5.2987,-5.2229,-5.1419,-5.1381,-5.1016,-5.0296,-5.1016,-5.1305,-5.1192,-5.0448,-5.0044,-4.9893,-4.9893,-4.9893,-4.9893,0.0,-4.9893,-4.9893,-4.9893,-4.9741,-4.9446,-4.9073,-4.8695,-4.8344,-4.7947,-4.6892,-4.5454,-4.3969,-4.33,-4.3063,-4.3063,-4.301,-4.2901,-4.2901,-4.2901,-4.2901,-4.2901,-4.2901,-4.2901,-4.2901,-4.2901,-4.2901,-4.2901,-4.2901,-4.2901,-4.2901,-4.2266,-4.1669,-4.1524,-4.0872,-4.0093,-3.9333,-3.9241,-3.8971,-3.8299,-3.8191,-3.8191,-3.8191,-3.8191,-3.8191,-3.8191,-3.8191,-3.8191,-3.8191,-3.8191,-3.8191,-3.8191,-3.8191,-3.8191,-3.8191,-3.8191,-3.8191,-3.8191,-3.8191,-3.8191,-3.8191,-3.8191,-3.8191,-3.8191,-3.8191,-3.8191,-3.2783,-3.3853,-3.4961,-3.4205,-3.5305,-3.6451,-3.6069,-3.4999,-3.4036,-3.4036,0.0,0.0,0.0,0.0,-3.8973,-4.245,0.0,-4.8151,-5.052,-5.1179,-5.2292,0.0,0.0,0.0,0.0,0.0,0.0,0.0,0.0,0.0,-5.2419,-5.195,-5.1357,-5.0523,-5.0486,-5.0296,-4.9893,-5.0296,-5.0486,-5.0486,-5.0069,-4.9893,-4.9893,-4.9893,-4.9893,-4.9893,0.0,-4.9893,-4.9879,-4.9712,-4.9551,-4.9352,-4.8766,-4.8421,-4.8212,-4.7357,-4.6323,-4.5128,-4.3969,-4.3263,-4.2901,-4.2901,-4.2901,-4.2901,-4.2901,-4.2901,-4.2901,-4.2901,-4.2901,-4.2901,-4.2901,-4.2901,-4.2901,-4.2901,-4.2901,-4.2901,-4.2901,-4.2592,-4.223,-4.1777,-4.1415,-4.0908,-4.013,-3.9985,-3.9876,-3.9514,-3.9079,-3.8843,-3.8843,-3.848,-3.8191,-3.8191,-3.8191,-3.8191,-3.8191,-3.8191,-3.8191,-3.8191,-3.8191,-3.8191,-3.8191,-3.8191,-3.8191,-3.8191,-3.8191,-3.8191,-3.8191,-3.8191,-3.8191,-3.8191,-3.8191,-3.8191,-3.221,-3.3012,-3.409,-3.4503,-3.5993,-3.7521,-3.7903,-3.7024,-3.6146,-3.6328,0.0,0.0,0.0,-3.8773,0.0,-4.5239,-4.8028,-5.0171,-5.1497,-5.2385,-5.3397,-5.4775,-5.4215,0.0,0.0,0.0,0.0,0.0,0.0,0.0,-5.1268,-5.1016,-5.0599,-4.9931,-4.9893,-4.9893,-4.9893,-4.9893,-4.9893,-4.9893,-4.9893,-4.9893,-4.9893,-4.9893,-4.9893,-4.9893,-4.9893,-4.9779,-4.96,-4.9476,-4.9256,-4.8926,-4.8458,-4.8138,-4.7746,-4.6626,-4.5707,-4.4947,-4.4295,-4.357,-4.2901,-4.2901,-4.2901,-4.2901,-4.2901,-4.2901,-4.2901,-4.2901,-4.2901,-4.2901,-4.2901,-4.2901,-4.2901,-4.2901,-4.2901,-4.2901,-4.2901,-4.2901,-4.2701,-4.2122,-4.1958,-4.1705,-4.0908,-4.0764,-4.0727,-4.051,-4.0021,-3.9659,-3.9659,-3.9115,-3.8645,-3.8517,-3.848,-3.8408,-3.8227,-3.8191,-3.8191,-3.8191,-3.8191,-3.8191,-3.8191,-3.8191,-3.8191,-3.8191,-3.8191,-3.8191,-3.8191,-3.8191,-3.8191,-3.8191,-3.8191,-3.8299,-3.3624,-3.3899,-3.435,-3.5946,-3.6443,-3.6978,-3.8553,-3.882,-3.8973,-3.9766,-4.054,0.0,0.0,-4.1447,-4.4503,-4.7177,0.0,0.0,0.0,0.0,0.0,0.0,0.0,0.0,0.0,0.0,0.0,0.0,0.0,0.0,-5.1192,-5.041,-4.9969,-4.9893,-4.9893,-4.9893,-4.9893,-4.9893,-4.9893,-4.9893,-4.9893,-4.9893,-4.9893,-4.9893,-4.9893,-4.9893,-4.9893,-4.9476,-4.8805,-4.9235,-4.8739,-4.7776,-4.8126,-4.7633,-4.6545,-4.5691,-4.4874,-4.4186,-4.4114,-4.357,-4.2901,-4.2901,-4.2901,-4.2901,-4.2901,-4.2901,-4.2901,-4.2901,-4.2901,-4.2901,-4.2901,-4.2901,-4.2901,-4.2901,-4.2901,-4.2901,-4.2901,-4.2901,-4.2901,-4.2829,-4.281,-4.2556,-4.1741,-4.1596,-4.1343,-4.0619,-4.0438,-4.0401,-4.0401,-4.0365,-4.0093,-3.9369,-3.9297,-3.9007,-3.8263,-3.8191,-3.8191,-3.8191,-3.8191,-3.8191,-3.8191,-3.8191,-3.8191,-3.8191,-3.8191,-3.8191,-3.8191,-3.8191,-3.8191,-3.8191,-3.8191,-3.8625,-3.2477,-3.3586,-3.4885,-3.5526,-3.6863,-3.8476,-4.0157,-4.054,-4.1113,-4.3023,-4.3634,0.0,0.0,0.0,-4.6031,0.0,0.0,0.0,0.0,0.0,0.0,0.0,0.0,0.0,0.0,0.0,0.0,0.0,0.0,0.0,-5.041,-5.0069,-4.9893,-4.9893,-4.9698,-4.9596,-4.9596,-4.9362,-4.9214,-4.9214,-4.9674,-4.9783,-4.9596,-4.9741,-4.9338,-4.8496,-4.8702,-4.8198,-4.7282,-4.7231,-4.6957,-4.6523,-4.6447,-4.6137,-4.5671,-4.4838,-4.4367,-4.4041,-4.3534,-4.3136,-4.2901,-4.2901,-4.2901,-4.2901,-4.2901,-4.2901,-4.2901,-4.2901,-4.2901,-4.2901,-4.2901,-4.2901,-4.2901,-4.2901,-4.2901,-4.2901,-4.2901,-4.2901,-4.2901,-4.2901,-4.2901,-4.281,-4.2484,-4.2448,-4.2339,-4.2049,-4.1578,-4.1234,-4.1234,-4.08,-4.0365,-4.013,-3.9659,-3.9441,-3.9623,-3.8753,-3.8408,-3.8898,-3.848,-3.8191,-3.8191,-3.8191,-3.8191,-3.8191,-3.8191,-3.8191,-3.8191,-3.8191,-3.848,-3.8952,-3.8952,-3.9333,-3.2088,-3.3318,-3.4885,-3.5152,-3.691,-3.924,-4.1724,-4.2297,-4.3023,-4.5545,-4.566,-4.5403,-4.5621,0.0,0.0,0.0,0.0,0.0,0.0,0.0,0.0,0.0,0.0,0.0,0.0,0.0,0.0,0.0,0.0,0.0,0.0,-4.9797,-4.9741,-4.9741,-4.9393,-4.9204,-4.9204,-4.8675,-4.8407,-4.8407,-4.8686,-4.8814,-4.8846,-4.9032,-4.8406,-4.7215,-4.7447,-4.6983,-4.6009,-4.5933,-4.5847,-4.5662,-4.5137,-4.491,-4.4838,-4.4295,-4.3932,-4.3698,-4.3353,-4.3118,-4.2901,-4.2901,-4.2901,-4.2901,-4.2901,-4.2901,-4.2901,-4.2901,-4.2901,-4.2901,-4.2901,-4.2901,-4.2901,-4.2901,-4.2901,-4.2901,-4.2901,-4.2901,-4.2901,-4.2901,-4.2901,-4.2901,-4.2901,-4.2901,-4.2901,-4.2901,-4.2411,-4.2067,-4.2067,-4.1615,-4.118,-4.0908,-4.0202,-3.9948,-4.0438,-3.955,-3.9152,-3.9695,-3.9007,-3.848,-3.8227,-3.8191,-3.8191,-3.8191,-3.8191,-3.8191,-3.8191,-3.8444,-3.8862,-3.9405,-3.9623,-4.0166,-3.2928,-3.3356,-3.4197,-3.4999,-3.6489,-3.8858,-4.3051,-4.4006,-4.4732,-4.7292,-4.65,-4.5583,-4.6385,-4.6538,0.0,-4.7674,-4.9927,0.0,0.0,0.0,0.0,0.0,0.0,0.0,0.0,0.0,0.0,0.0,0.0,0.0,0.0,-4.9596,-4.9399,-4.9399,-4.8986,-4.8799,-4.8761,-4.7999,-4.757,-4.757,-4.6768,-4.6806,-4.757,-4.7607,-4.714,-4.6376,-4.6376,-4.5913,-4.5196,-4.5694,-4.5624,-4.52,-4.4403,-4.4077,-4.4077,-4.4077,-4.357,-4.2991,-4.3788,-4.357,-4.2901,-4.2901,-4.2901,-4.2901,-4.2901,-4.2901,-4.2901,-4.2901,-4.2901,-4.2901,-4.2901,-4.2901,-4.2901,-4.2901,-4.2901,-4.2901,-4.2901,-4.2901,-4.2901,-4.2901,-4.2901,-4.2901,-4.2901,-4.2901,-4.2901,-4.2901,-4.2901,-4.2901,-4.2901,-4.2901,-4.2592,-4.1813,-4.0981,-4.051,-4.051,-4.051,-4.051,-4.051,-3.9804,-3.906,-3.8263,-3.8227,-3.8227,-3.8227,-3.8227,-3.8227,-3.8227,-3.9024,-3.9405,-3.9441,-4.0166,-4.0945,-3.2088,-3.3318,-3.5037,-3.5908,0.0,0.0,0.0,-4.5316,0.0,0.0,-4.8716,-4.804,-4.8258,-4.8334,0.0,-4.8678,-4.9824,0.0,0.0,0.0,0.0,0.0,0.0,0.0,0.0,0.0,0.0,0.0,0.0,0.0,0.0,-4.9596,-4.9152,-4.8566,-4.7947,-4.7316,-4.6781,-4.6231,-4.599,-4.599,-4.5734,-4.5883,-4.643,-4.6601,-4.5985,-4.4803,-4.502,-4.4544,-4.3579,-4.3706,-4.374,-4.357,-4.3353,-4.3263,-4.3263,-4.3263,-4.3099,-4.2937,-4.3191,-4.3118,-4.2901,-4.2901,-4.2901,-4.2901,-4.2901,-4.2901,-4.2901,-4.2901,-4.2901,-4.2901,-4.2901,-4.2901,-4.2901,-4.2901,-4.2901,-4.2901,-4.2901,-4.2901,-4.2901,-4.2901,-4.2901,-4.2901,-4.2901,-4.2901,-4.2901,-4.2901,-4.2901,-4.2901,-4.2901,-4.2901,-4.281,-4.2556,-4.1832,-4.156,-4.2122,-4.1144,-4.0727,-4.1307,-4.0619,-3.984,-3.9079,-3.9043,-3.9043,-3.9043,-3.955,-3.984,-3.984,-4.0057,-4.0456,-4.1017,-4.1234,-4.1777,-3.2936,-3.4541,0.0,-3.7703,-4.0645,-4.4017,-4.6882,0.0,0.0,0.0,-4.9671,-4.911,-4.911,-4.911,0.0,-4.911,0.0,0.0,0.0,0.0,0.0,0.0,0.0,0.0,0.0,0.0,0.0,0.0,0.0,0.0,0.0,-4.8294,-4.7895,-4.7292,-4.6709,-4.6136,-4.5661,-4.5084,-4.4802,-4.4802,-4.4512,-4.4485,-4.4693,-4.5223,-4.4766,-4.3626,-4.3851,-4.3541,-4.2901,-4.2901,-4.2901,-4.2901,-4.2901,-4.2901,-4.2901,-4.2901,-4.2901,-4.2901,-4.2901,-4.2901,-4.2901,-4.2901,-4.2901,-4.2901,-4.2901,-4.2901,-4.2901,-4.2901,-4.2901,-4.2901,-4.2901,-4.2901,-4.2901,-4.2901,-4.2901,-4.2901,-4.2901,-4.2901,-4.2901,-4.2901,-4.2901,-4.2901,-4.2901,-4.2901,-4.2901,-4.2901,-4.2901,-4.2901,-4.2901,-4.2901,-4.2901,-4.2901,-4.2484,-4.2375,-4.2846,-4.2013,-4.1651,-4.2158,-4.1415,-4.0764,-4.0347,-4.0021,-3.984,-3.984,-4.0257,-4.051,-4.051,-4.08,-4.1234,-4.1705,-4.2031,-4.2448,-3.4533,-3.626,-3.8018,-3.9843,-4.2326,0.0,-4.8449,-4.9786,-5.0283,-5.0283,0.0,-4.9224,-4.9224,-4.9224,0.0,0.0,0.0,0.0,0.0,0.0,0.0,0.0,0.0,0.0,0.0,0.0,0.0,0.0,0.0,0.0,0.0,-4.6318,-4.6131,-4.5809,-4.5399,-4.5164,-4.5091,-4.4367,-4.3969,-4.3969,-4.3244,-4.2901,-4.2937,-4.3643,-4.357,-4.2901,-4.2901,-4.2901,-4.2901,-4.2901,-4.2901,-4.2901,-4.2901,-4.2901,-4.2901,-4.2901,-4.2901,-4.2901,-4.2901,-4.2901,-4.2901,-4.2901,-4.2901,-4.2901,-4.2901,-4.2901,-4.2901,-4.2901,-4.2901,-4.2901,-4.2901,-4.2901,-4.2901,-4.2901,-4.2901,-4.2901,-4.2901,-4.2901,-4.2901,-4.2901,-4.2901,-4.2901,-4.2901,-4.2901,-4.2901,-4.2901,-4.2901,-4.2901,-4.2901,-4.2901,-4.2901,-4.2901,-4.2901,-4.2901,-4.2901,-4.2901,-4.2901,-4.2901,-4.223,-4.1813,-4.1813,-4.1053,-4.0619,-4.0619,-4.0691,-4.0727,-4.0727,-4.1451,-4.1813,-4.1813,-4.2556,-4.2901,-3.2967,-3.4953,0.0,0.0,-4.3663,-4.7521,-4.9557,-5.0168,-5.0283,-5.0283,-5.0168,-5.0054,-5.0054,0.0,0.0,0.0,0.0,0.0,0.0,0.0,0.0,0.0,0.0,0.0,0.0,0.0,0.0,0.0,0.0,0.0,-4.6429,-4.6148,-4.5679,-4.4982,-4.4562,-4.4041,-4.3425,-4.3263,-4.3155,0.0,-4.2973,-4.2901,-4.2901,-4.3082,-4.3082,-4.2901,-4.2901,-4.2901,-4.2901,-4.2901,-4.2901,-4.2901,-4.2901,-4.2901,-4.2901,-4.2901,-4.2901,-4.2901,-4.2901,-4.2901,-4.2901,-4.2901,-4.2901,-4.2901,-4.2901,-4.2901,-4.2901,-4.2901,-4.2901,-4.2901,-4.2901,-4.2901,-4.2901,-4.2901,-4.2901,-4.2901,-4.2901,-4.2901,-4.2901,-4.2901,-4.2901,-4.2901,-4.2901,-4.2901,-4.2901,-4.2901,-4.2901,-4.2901,-4.2901,-4.2901,-4.2901,-4.2901,-4.2901,-4.2901,-4.2901,-4.2901,-4.2901,-4.2901,-4.2737,-4.2629,-4.2629,-4.1868,-4.1451,-4.1451,-4.2049,-4.2375,-4.2375,-4.2556,-4.2629,-4.2629,-4.2829,-4.2901,-3.273,0.0,0.0,-4.1762,0.0,-4.8132,-4.9442,-5.0015,-5.0206,-4.9786,-5.0015,0.0,0.0,0.0,0.0,0.0,0.0,0.0,0.0,0.0,0.0,0.0,0.0,0.0,0.0,0.0,0.0,0.0,0.0,-4.5653,-4.4777,-4.4672,-4.4418,-4.3853,-4.3631,-4.3317,-4.2901,-4.2901,-4.2901,-4.2901,-4.2901,-4.2901,-4.2901,-4.2901,-4.2901,-4.2901,-4.2901,-4.2901,-4.2901,-4.2901,-4.2901,-4.2901,-4.2901,-4.2901,-4.2901,-4.2901,-4.2901,-4.2901,-4.2901,-4.2901,-4.2901,-4.2901,-4.2901,-4.2901,-4.2901,-4.2901,-4.2901,-4.2901,-4.2901,-4.2901,-4.2901,-4.2901,-4.2901,-4.2901,-4.2901,-4.2901,-4.2901,-4.2901,-4.2901,-4.2901,-4.2901,-4.2901,-4.2901,-4.2901,-4.2901,-4.2901,-4.2901,-4.2901,-4.2901,-4.2901,-4.2901,-4.2901,-4.2901,-4.2901,-4.2901,-4.2901,-4.2901,-4.2901,-4.2901,-4.2901,-4.2901,-4.2484,-4.2266,-4.2266,-4.2701,-4.2901,-4.2901,-4.2901,-4.2901,-4.2901,-4.2901,-4.2901,-3.2416,0.0,-3.8897,-4.3825,-4.6233,0.0,-4.864,-4.9404,-4.9671,-4.9022,0.0,0.0,0.0,0.0,0.0,0.0,0.0,0.0,0.0,0.0,0.0,0.0,0.0,0.0,0.0,0.0,0.0,0.0,0.0,-4.4262,-4.2975,-4.3124,-4.3142,-4.2901,-4.2901,-4.2901,-4.2901,-4.2901,-4.2901,-4.2901,-4.2901,-4.2901,-4.2901,-4.2901,-4.2901,-4.2901,-4.2901,-4.2901,-4.2901,-4.2901,-4.2901,-4.2901,-4.2901,-4.2901,-4.2901,-4.2901,-4.2901,-4.2901,-4.2901,-4.2901,-4.2901,-4.2901,-4.2901,-4.2901,-4.2901,-4.2901,-4.2901,-4.2901,-4.2901,-4.2901,-4.2901,-4.2901,-4.2901,-4.2901,-4.2901,-4.2901,-4.2901,-4.2901,-4.2901,-4.2901,-4.2901,-4.2901,-4.2901,-4.2901,-4.2901,-4.2901,-4.2901,-4.2901,-4.2901,-4.2901,-4.2901,-4.2901,-4.2901,-4.2901,-4.2901,-4.2901,-4.2901,-4.2901,-4.2901,-4.2901,-4.2901,-4.2901,-4.2901,-4.2901,-4.2901,-4.2901,-4.2901,-4.2901,-4.2901,-4.2901,-4.2901,-4.2901,-2.9899,0.0,-3.8744,0.0,-4.4895,-4.6042,0.0,0.0,0.0,0.0,0.0,0.0,0.0,0.0,0.0,0.0,0.0,0.0,0.0,0.0,0.0,0.0,0.0,0.0,0.0,0.0,0.0,0.0,-4.3605,-4.3412,-4.292,-4.292,-4.2939,-4.2901,-4.2901,-4.2901,-4.2901,-4.2901,-4.2901,-4.2901,-4.2901,-4.2901,-4.2901,-4.2901,-4.2901,-4.2901,-4.2901,-4.2901,-4.2901,-4.2901,-4.2901,-4.2901,-4.2901,-4.2901,-4.2901,-4.2901,-4.2901,-4.2901,-4.2901,-4.2901,-4.2901,-4.2901,-4.2901,-4.2901,-4.2901,-4.2901,-4.2901,-4.2901,-4.2901,-4.2901,-4.2901,-4.2901,-4.2901,-4.2901,-4.2901,-4.2901,-4.2901,-4.2901,-4.2901,-4.2901,-4.2901,-4.2901,-4.2901,-4.2901,-4.2901,-4.2901,-4.2901,-4.2901,-4.2901,-4.2901,-4.2901,-4.2901,-4.2901,-4.2901,-4.2901,-4.2901,-4.2901,-4.2901,-4.2901,-4.2901,-4.2901,-4.2901,-4.2901,-4.2901,-4.2901,-4.2901,-4.2901,-4.2901,-4.2901,-4.2901,-4.2901,-4.2901,-3.0457,-3.3794,-3.7215,0.0,-4.3242,-4.4895,-4.6118,0.0,0.0,0.0,0.0,0.0,0.0,0.0,0.0,0.0,0.0,0.0,0.0,0.0,0.0,0.0,0.0,0.0,0.0,0.0,0.0,0.0,-4.3105,-4.3069,-4.2901,-4.2901,-4.2901,-4.2901,-4.2901,-4.2901,-4.2901,-4.2901,-4.2901,-4.2901,-4.2901,-4.2901,-4.2901,-4.2901,-4.2901,-4.2901,-4.2901,-4.2901,-4.2901,-4.2901,-4.2901,-4.2901,-4.2901,-4.2901,-4.2901,-4.2901,-4.2901,-4.2901,-4.2901,-4.2901,-4.2901,-4.2901,-4.2901,-4.2901,-4.2901,-4.2901,-4.2901,-4.2901,-4.2901,-4.2901,-4.2901,-4.2901,-4.2901,-4.2901,-4.2901,-4.2901,-4.2901,-4.2901,-4.2901,-4.2901,-4.2901,-4.2901,-4.2901,-4.2901,-4.2901,-4.2901,-4.2901,-4.2901,-4.2901,-4.2901,-4.2901,-4.2901,-4.2901,-4.2901,-4.2901,-4.2901,-4.2901,-4.2901,-4.2901,-4.2901,-4.2901,-4.2901,-4.2901,-4.2901,-4.2901,-4.2901,-4.2901,-4.2901,-4.2901,-4.2901,-4.2901,-4.2901,-2.9725,-3.2184,-3.4432,-3.8085,-4.0874,-4.3051,0.0,0.0,0.0,0.0,0.0,0.0,0.0,0.0,0.0,0.0,0.0,0.0,0.0,0.0,0.0,0.0,0.0,0.0,0.0,0.0,0.0,0.0,-4.2901,-4.2901,-4.2901,-4.2901,-4.2901,-4.2901,-4.2901,-4.2901,-4.2901,-4.2901,-4.2901,-4.2901,-4.2901,-4.2901,-4.2901,-4.2901,-4.2901,-4.2901,-4.2901,-4.2901,-4.2901,-4.2901,-4.2901,-4.2901,-4.2901,-4.2901,-4.2901,-4.2901,-4.2901,-4.2901,-4.2901,-4.2901,-4.2901,-4.2901,-4.2901,-4.2901,-4.2901,-4.2901,-4.2901,-4.2901,-4.2901,-4.2901,-4.2901,-4.2901,-4.2901,-4.2901,-4.2901,-4.2901,-4.2901,-4.2901,-4.2901,-4.2901,-4.2901,-4.2901,-4.2901,-4.2901,-4.2901,-4.2901,-4.2901,-4.2901,-4.2901,-4.2901,-4.2901,-4.2901,-4.2901,-4.2901,-4.2901,-4.2901,-4.2901,-4.2901,-4.2901,-4.2901,-4.2901,-4.2901,-4.2901,-4.2901,-4.2901,-4.2901,-4.2901,-4.2901,-4.2901,-4.2901,-4.2901,-4.2901,-2.5565,-2.7676,-3.0068,-3.4402,0.0,0.0,0.0,0.0,0.0,0.0,0.0,0.0,0.0,0.0,0.0,0.0,0.0,0.0,0.0,0.0,0.0,0.0,0.0,0.0,0.0,0.0,0.0,0.0,-4.2901,-4.2901,-4.2901,-4.2901,-4.2901,-4.2901,-4.2901,-4.2901,-4.2901,-4.2901,-4.2901,-4.2901,-4.2901,-4.2901,-4.2901,-4.2901,-4.2901,-4.2901,-4.2901,-4.2901,-4.2901,-4.2901,-4.2901,-4.2901,-4.2901,-4.2901,-4.2901,-4.2901,-4.2901,-4.2901,-4.2901,-4.2901,-4.2901,-4.2901,-4.2901,-4.2901,-4.2901,-4.2901,-4.2901,-4.2901,-4.2901,-4.2901,-4.2901,-4.2901,-4.2901,-4.2901,-4.2901,-4.2901,-4.2901,-4.2901,-4.2901,-4.2901,-4.2901,-4.2901,-4.2901,-4.2901,-4.2901,-4.2901,-4.2901,-4.2901,-4.2901,-4.2901,-4.2901,-4.2901,-4.2901,-4.2901,-4.2901,-4.2901,-4.2901,-4.2901,-4.2901,-4.2901,-4.2901,-4.2901,-4.2901,-4.2901,-4.2901,-4.2901,-4.2901,-4.2901,-4.2901,-4.2901,-4.2901,-4.2901,-2.4881,-2.6866,0.0,-3.2134,0.0,0.0,0.0,0.0,0.0,0.0,0.0,0.0,0.0,0.0,0.0,0.0,0.0,0.0,0.0,0.0,0.0,0.0,0.0,0.0,0.0,0.0,0.0,0.0,0.0,-4.2901,-4.2901,-4.2901,-4.2901,-4.2901,-4.2901,-4.2901,-4.2901,-4.2901,-4.2901,-4.2901,-4.2901,-4.2901,-4.2901,-4.2901,-4.2901,-4.2901,-4.2901,-4.2901,-4.2901,-4.2901,-4.2901,-4.2901,-4.2901,-4.2901,-4.2901,-4.2901,-4.2901,-4.2901,-4.2901,-4.2901,-4.2901,-4.2901,-4.2901,-4.2901,-4.2901,-4.2901,-4.2901,-4.2901,-4.2901,-4.2901,-4.2901,-4.2901,-4.2901,-4.2901,-4.2901,-4.2901,-4.2901,-4.2901,-4.2901,-4.2901,-4.2901,-4.2901,-4.2901,-4.2901,-4.2901,-4.2901,-4.2901,-4.3082,-4.3607,-4.3679,-4.386,-4.4367,-4.444,-4.444,-4.444,-4.444,-4.444,-4.444,-4.3969,-4.3896,-4.4403,-4.3425,-4.3155,-4.3643,-4.3155,-4.2901,-4.2901,-4.2901,-4.2901,-4.2901,-4.2901,-4.2901,-2.3469,-2.5355,0.0,0.0,0.0,0.0,0.0,0.0,0.0,0.0,0.0,0.0,0.0,0.0,0.0,0.0,0.0,0.0,0.0,0.0,0.0,0.0,0.0,0.0,0.0,0.0,0.0,0.0,0.0,0.0,-4.2901,-4.2901,-4.2774,-4.252,-4.2484,-4.2375,-4.2085,-4.2375,-4.2484,-4.2484,-4.2774,-4.2901,-4.2901,-4.2901,-4.2901,-4.2901,-4.2901,-4.2901,-4.2901,-4.2901,-4.2901,-4.2901,-4.2901,-4.2901,-4.2901,-4.2901,-4.2901,-4.2901,-4.2901,-4.2901,-4.2901,-4.2901,-4.2901,-4.2901,-4.2901,-4.2901,-4.2901,-4.2901,-4.2901,-4.2901,-4.2901,-4.2901,-4.2901,-4.2901,-4.3118,-4.3281,-4.3281,-4.3082,-4.2901,-4.2901,-4.3118,-4.3281,-4.3281,-4.3534,-4.3715,-4.3715,-4.3715,-4.3896,-4.444,-4.4512,-4.4693,-4.5236,-4.5309,-4.5309,-4.5309,-4.5309,-4.5309,-4.5309,-4.4802,-4.4729,-4.5273,-4.4258,-4.3969,-4.4476,-4.3715,-4.3281,-4.3281,-4.3046,-4.2901,-4.2901,-4.2901,-4.2901,0.0,0.0,0.0,0.0,0.0,0.0,0.0,0.0,0.0,0.0,0.0,0.0,0.0,0.0,0.0,0.0,0.0,0.0,0.0,0.0,0.0,0.0,0.0,0.0,0.0,0.0,0.0,0.0,-4.2901,-4.2901,-4.2901,-4.2901,-4.252,-4.1741,-4.1705,-4.1343,-4.0546,-4.1307,-4.1705,-4.1669,-4.2484,-4.2846,-4.2846,-4.2846,-4.2901,-4.2901,-4.2901,-4.2901,-4.2901,-4.2901,-4.2901,-4.2901,-4.2901,-4.2901,-4.2901,-4.2901,-4.2901,-4.2901,-4.2901,-4.2901,-4.2901,-4.2901,-4.2901,-4.2901,-4.2901,-4.2901,-4.2901,-4.2901,-4.2901,-4.2901,-4.2901,-4.2937,-4.2937,-4.2937,-4.3534,-4.4114,-4.4114,-4.3498,-4.2973,-4.2973,-4.3607,-4.4114,-4.4114,-4.4765,-4.5309,-4.5309,-4.5309,-4.5309,-4.5345,-4.5345,-4.5345,-4.5381,-4.5381,-4.5381,-4.5381,-4.5381,-4.5381,-4.5381,-4.5345,-4.5345,-4.5381,-4.5345,-4.5309,-4.5345,-4.4512,-4.4077,-4.4077,-4.33,-4.2901,-4.2901,-4.2901,-4.2901,-2.2906,0.0,0.0,0.0,0.0,0.0,0.0,0.0,0.0,0.0,0.0,0.0,0.0,0.0,0.0,0.0,0.0,0.0,0.0,0.0,0.0,0.0,0.0,0.0,0.0,0.0,0.0,0.0,-4.2901,-4.2901,-4.2901,-4.2901,-4.281,-4.2592,-4.1994,-4.1596,-4.1379,-4.1596,-4.1415,-4.0836,-4.1632,-4.2031,-4.2031,-4.2031,-4.2339,-4.2901,-4.2901,-4.2901,-4.2901,-4.2901,-4.2901,-4.2901,-4.2901,-4.2901,-4.2901,-4.2901,-4.2901,-4.2901,-4.2901,-4.2901,-4.2901,-4.2901,-4.2901,-4.2901,-4.2901,-4.2901,-4.2901,-4.2901,-4.2901,-4.2901,-4.2901,-4.3317,-4.3751,-4.3751,-4.4367,-4.4983,-4.4983,-4.4802,-4.4621,-4.4621,-4.4802,-4.4983,-4.4983,-4.5164,-4.5309,-4.5309,-4.5309,-4.5526,-4.6106,-4.6178,-4.6395,-4.6975,-4.7047,-4.7047,-4.7047,-4.7047,-4.7047,-4.7047,-4.6504,-4.6432,-4.7011,-4.5924,-4.5562,-4.6178,-4.4802,-4.4077,-4.4077,-4.33,-4.2901,-4.2901,-4.2901,-4.2901,-2.4062,-2.5226,0.0,0.0,0.0,0.0,0.0,-3.0904,0.0,0.0,0.0,0.0,0.0,0.0,0.0,0.0,0.0,0.0,0.0,0.0,0.0,0.0,0.0,0.0,0.0,-4.2901,-4.2901,-4.2901,-4.2901,-4.2901,-4.2901,-4.2901,-4.2737,-4.2411,-4.1922,-4.1524,-4.1198,-4.1524,-4.1307,-4.051,-4.1307,-4.1524,-4.1198,-4.156,-4.1958,-4.2448,-4.3099,-4.3227,-4.2937,-4.3263,-4.3208,-4.2901,-4.2901,-4.2901,-4.2901,-4.2901,-4.2901,-4.2901,-4.2901,-4.2901,-4.2901,-4.2901,-4.2901,-4.2901,-4.2901,-4.2901,-4.2901,-4.2901,-4.2901,-4.2901,-4.2901,-4.3263,-4.3607,-4.3607,-4.4476,-4.5309,-4.5309,-4.5816,-4.6106,-4.5417,-4.5562,-4.5816,-4.5816,-4.6069,-4.6287,-4.6287,-4.6287,-4.6468,-4.6939,-4.7011,-4.7192,-4.7663,-4.7699,-4.7699,-4.7699,-4.7699,-4.7699,-4.7699,-4.7265,-4.7228,-4.7699,-4.6794,-4.654,-4.7011,-4.5743,-4.4765,-4.4077,-4.33,-4.2901,-4.2901,-4.2901,-4.2901,-2.5056,-2.595,-2.741,0.0,0.0,0.0,-3.0499,-3.0321,0.0,0.0,0.0,0.0,0.0,0.0,0.0,0.0,0.0,0.0,0.0,0.0,0.0,0.0,0.0,0.0,-4.2629,-4.2629,-4.2629,-4.2629,-4.272,-4.2774,-4.2774,-4.2865,-4.2556,-4.185,-4.1741,-4.1343,-4.0619,-4.1343,-4.127,-4.0365,-4.1198,-4.1198,-4.051,-4.1234,-4.1669,-4.1922,-4.3353,-4.357,-4.2973,-4.3679,-4.3534,-4.2901,-4.2901,-4.2901,-4.2901,-4.2901,-4.2901,-4.2901,-4.2901,-4.2901,-4.2901,-4.2901,-4.2901,-4.2901,-4.2901,-4.2901,-4.2901,-4.2901,-4.2901,-4.2901,-4.2901,-4.2973,-4.3027,-4.3027,-4.4186,-4.5309,-4.5417,-4.6576,-4.7192,-4.5816,-4.6142,-4.6649,-4.6649,-4.7228,-4.7699,-4.7699,-4.7699,-4.7699,-4.7699,-4.7699,-4.7699,-4.7699,-4.7699,-4.7699,-4.7699,-4.7699,-4.7699,-4.7699,-4.7699,-4.7699,-4.7699,-4.7699,-4.7699,-4.7699,-4.6902,-4.5743,-4.4222,-4.3425,-4.3027,-4.3046,-4.3118,-4.3118,-2.7357,-2.7842,-2.8511,-2.7985,0.0,0.0,-2.7754,-2.7421,-2.768,0.0,0.0,0.0,0.0,0.0,0.0,0.0,0.0,0.0,0.0,0.0,0.0,0.0,0.0,0.0,-4.0945,-4.0945,-4.0945,-4.0945,-4.156,-4.1922,-4.1922,-4.2556,-4.281,-4.2665,-4.2049,-4.1632,-4.1451,-4.1632,-4.0981,-3.9623,-4.0383,-4.0655,-4.051,-4.0655,-4.1433,-4.2665,-4.2991,-4.3046,-4.2918,-4.3082,-4.3046,-4.2901,-4.2901,-4.2901,-4.2901,-4.2901,-4.2901,-4.2901,-4.2901,-4.2901,-4.2901,-4.2901,-4.2901,-4.2901,-4.2901,-4.2901,-4.2901,-4.2901,-4.2901,-4.2901,-4.2901,-4.3353,-4.386,-4.386,-4.4584,-4.549,-4.6142,-4.6504,-4.683,-4.7192,-4.7373,-4.7482,-4.7482,-4.7627,-4.7699,-4.7699,-4.7699,-4.7699,-4.7699,-4.7699,-4.7699,-4.7699,-4.7699,-4.7699,-4.7699,-4.7699,-4.7699,-4.7699,-4.7699,-4.7699,-4.7699,-4.7699,-4.7699,-4.7699,-4.6902,-4.6033,-4.5055,-4.4258,-4.386,-4.386,-4.4512,-4.4476,-2.8741,-2.8693,-2.8987,-2.8998,0.0,0.0,0.0,-2.7413,-2.6999,-2.8576,0.0,0.0,0.0,0.0,0.0,0.0,0.0,0.0,0.0,0.0,0.0,0.0,0.0,0.0,-3.9948,-4.0257,-4.051,-4.051,-4.0872,-4.1089,-4.1089,-4.185,-4.2303,-4.2303,-4.2303,-4.2303,-4.2303,-4.2303,-4.1506,-3.9948,-4.0727,-4.0691,-3.9985,-4.0727,-4.1524,-4.2339,-4.3136,-4.3498,-4.3498,-4.3498,-4.3498,-4.3481,-4.3082,-4.2901,-4.2901,-4.2901,-4.2901,-4.2901,-4.2901,-4.2901,-4.2901,-4.2901,-4.2901,-4.2901,-4.2901,-4.2901,-4.2901,-4.2901,-4.2901,-4.2901,-4.2901,-4.3191,-4.3498,-4.3498,-4.4114,-4.4802,-4.52,-4.5924,-4.6613,-4.7011,-4.7446,-4.7699,-4.7699,-4.7699,-4.7699,-4.7699,-4.7699,-4.7699,-4.7699,-4.7699,-4.7699,-4.7699,-4.7699,-4.7699,-4.7699,-4.7699,-4.7699,-4.7699,-4.7699,-4.7699,-4.7699,-4.7699,-4.7699,-4.7699,-4.6902,-4.6287,-4.5888,-4.549,-4.5091,-4.4693,-4.5091,-4.5091,0.0,0.0,0.0,0.0,0.0,-2.9074,0.0,0.0,0.0,-2.8165,0.0,0.0,0.0,0.0,0.0,0.0,0.0,0.0,0.0,0.0,0.0,0.0,0.0,0.0,0.0,-3.8862,-3.9388,-4.0021,-3.975,-3.9786,-4.0274,-4.1053,-4.1524,-4.1705,-4.2339,-4.2737,-4.2901,-4.2737,-4.194,-4.051,-4.1162,-4.08,-3.9659,-4.1053,-4.1777,-4.1994,-4.3281,-4.386,-4.386,-4.386,-4.386,-4.3788,-4.3136,-4.2901,-4.2901,-4.2901,-4.2901,-4.2901,-4.2901,-4.2901,-4.2901,-4.2901,-4.2901,-4.2901,-4.2901,-4.2901,-4.2901,-4.2901,-4.2901,-4.2901,-4.2901,-4.2901,-4.2901,-4.2901,-4.3389,-4.3932,-4.4258,-4.5345,-4.6359,-4.6685,-4.7265,-4.7699,-4.7699,-4.7699,-4.7699,-4.7699,-4.7699,-4.7699,-4.7699,-4.7699,-4.7699,-4.7699,-4.7699,-4.7699,-4.7699,-4.7699,-4.7699,-4.7699,-4.7699,-4.7699,-4.7699,-4.7699,-4.7699,-4.7699,-4.7083,-4.6721,-4.6721,-4.6721,-4.6323,-4.5526,-4.5707,-4.5671,0.0,0.0,0.0,0.0,-3.2072,0.0,0.0,0.0,-2.8283,-2.7028,0.0,0.0,0.0,0.0,0.0,0.0,0.0,0.0,0.0,0.0,0.0,0.0,0.0,0.0,0.0,-3.4588,-3.5385,-3.8246,-3.716,-3.7268,-3.9405,-4.0238,-4.0945,-4.1669,-4.1777,-4.2194,-4.2901,-4.2194,-4.1379,-4.051,-4.0583,-4.0546,-4.0401,-4.127,-4.2085,-4.2774,-4.2955,-4.3046,-4.3046,-4.3046,-4.3046,-4.3046,-4.2937,-4.2901,-4.2901,-4.2901,-4.2901,-4.2901,-4.2901,-4.2901,-4.2901,-4.2901,-4.2901,-4.2901,-4.2901,-4.2901,-4.2901,-4.2901,-4.2901,-4.2901,-4.2901,-4.2901,-4.2901,-4.2901,-4.2973,-4.3425,-4.4838,-4.5309,-4.5852,-4.7301,-4.7663,-4.7699,-4.7699,-4.7699,-4.7699,-4.7699,-4.7699,-4.7699,-4.7699,-4.7699,-4.7699,-4.7699,-4.7699,-4.7699,-4.7699,-4.7699,-4.7699,-4.7699,-4.7699,-4.7699,-4.7699,-4.7699,-4.7699,-4.7699,-4.7627,-4.7554,-4.7554,-4.7554,-4.7156,-4.6395,-4.712,-4.7047,0.0,0.0,0.0,0.0,0.0,0.0,-2.9587,0.0,-2.802,0.0,0.0,0.0,0.0,0.0,0.0,0.0,0.0,0.0,0.0,0.0,0.0,0.0,0.0,0.0,0.0,0.0,0.0,0.0,-3.5313,-3.5457,-3.7901,-3.8753,-3.9514,-4.0347,-4.1234,-4.185,-4.2194,-4.2339,-4.1759,-4.051,-4.1433,-4.1397,-4.0546,-4.1832,-4.2592,-4.2901,-4.2901,-4.3155,-4.3607,-4.3607,-4.3607,-4.3607,-4.3607,-4.3336,-4.2901,-4.2901,-4.2901,-4.2901,-4.2901,-4.2901,-4.2901,-4.2901,-4.2901,-4.2901,-4.2901,-4.2901,-4.2901,-4.2901,-4.2901,-4.2901,-4.2901,-4.2901,-4.2901,-4.2901,-4.3263,-4.3788,-4.444,-4.5345,-4.6214,-4.6866,-4.7373,-4.7699,-4.7699,-4.7699,-4.7699,-4.7699,-4.7699,-4.7699,-4.7699,-4.7699,-4.7699,-4.7699,-4.7699,-4.7699,-4.7699,-4.7699,-4.7699,-4.7699,-4.7699,-4.7699,-4.7699,-4.7699,-4.7699,-4.7699,-4.7699,-4.7699,-4.7699,-4.7699,-4.7554,-4.7192,-4.7554,-4.7518,-3.5278,0.0,0.0,0.0,0.0,0.0,0.0,0.0,0.0,0.0,0.0,0.0,0.0,0.0,0.0,0.0,0.0,0.0,0.0,0.0,0.0,0.0,0.0,0.0,0.0,0.0,0.0,0.0,0.0,-3.3429,-3.6508,-3.7196,-3.8101,-3.9369,-4.0673,-4.1488,-4.1705,-4.2266,-4.1977,-4.0836,-4.2013,-4.1977,-4.0872,-4.2266,-4.2901,-4.2901,-4.2901,-4.3208,-4.3788,-4.4005,-4.3969,-4.3788,-4.4005,-4.3607,-4.2901,-4.2901,-4.2901,-4.2901,-4.2901,-4.2901,-4.2901,-4.2901,-4.2901,-4.2901,-4.2901,-4.2901,-4.2901,-4.2901,-4.2901,-4.2901,-4.2901,-4.3082,-4.3208,-4.3208,-4.3824,-4.4476,-4.4693,-4.5671,-4.6576,-4.6794,-4.7301,-4.7699,-4.7699,-4.7699,-4.7699,-4.7699,-4.7699,-4.7699,-4.7699,-4.7699,-4.7699,-4.7699,-4.7699,-4.7699,-4.7699,-4.7699,-4.7699,-4.7699,-4.7699,-4.7699,-4.7699,-4.7699,-4.7699,-4.7699,-4.7699,-4.7699,-4.7699,-4.7699,-4.7699,-4.7699,-4.7699,-4.7699,0.0,0.0,0.0,-3.4335,0.0,0.0,0.0,0.0,-3.077,0.0,0.0,0.0,0.0,0.0,0.0,0.0,0.0,0.0,0.0,0.0,0.0,0.0,0.0,0.0,0.0,0.0,0.0,0.0,-3.0555,0.0,-3.5587,-3.584,-3.6979,-3.9333,-4.013,-4.0908,-4.1705,-4.1741,-4.1705,-4.1669,-4.1705,-4.1705,-4.1705,-4.252,-4.2901,-4.2901,-4.2901,-4.2918,-4.301,-4.3788,-4.3643,-4.3046,-4.3788,-4.3607,-4.2901,-4.2901,-4.2901,-4.2901,-4.2901,-4.2901,-4.2901,-4.2901,-4.2901,-4.2901,-4.2901,-4.2901,-4.2901,-4.2901,-4.2901,-4.2901,-4.2901,-4.3462,-4.4041,-4.4041,-4.4693,-4.5454,-4.625,-4.6468,-4.6721,-4.7518,-4.7699,-4.7699,-4.7699,-4.7699,-4.7699,-4.7699,-4.7699,-4.7699,-4.7699,-4.7699,-4.7699,-4.7699,-4.7699,-4.7699,-4.7699,-4.7699,-4.7699,-4.7699,-4.7699,-4.7699,-4.7699,-4.7699,-4.7699,-4.7699,-4.7699,-4.7699,-4.7699,-4.7699,-4.7699,-4.7699,-4.7699,-4.7699,0.0,0.0,-4.0093,-3.6633,0.0,0.0,0.0,0.0,0.0,0.0,0.0,0.0,0.0,0.0,0.0,0.0,0.0,0.0,0.0,0.0,0.0,0.0,0.0,0.0,0.0,0.0,0.0,0.0,-2.9989,0.0,0.0,-3.5225,-3.6435,-3.7756,-3.955,-4.0619,-4.0908,-4.1977,-4.223,-4.1705,-4.223,-4.223,-4.1741,-4.252,-4.2901,-4.2901,-4.2901,-4.2901,-4.301,-4.4331,-4.4114,-4.3027,-4.4367,-4.4077,-4.2901,-4.2901,-4.2901,-4.2901,-4.2901,-4.2901,-4.2901,-4.2901,-4.2901,-4.2901,-4.2901,-4.2901,-4.2901,-4.2901,-4.2901,-4.3046,-4.3553,-4.3896,-4.4222,-4.4765,-4.5526,-4.6178,-4.6432,-4.6939,-4.7373,-4.7663,-4.7699,-4.7699,-4.7699,-4.7699,-4.7699,-4.7699,-4.7699,-4.7699,-4.7699,-4.7699,-4.7699,-4.7699,-4.7699,-4.7699,-4.7699,-4.7699,-4.7699,-4.7699,-4.7699,-4.7699,-4.7699,-4.7699,-4.7699,-4.7699,-4.7699,-4.7699,-4.7699,-4.7699,-4.7699,-4.7699,-4.7699,-4.7699,-4.0583,-4.1089,0.0,-3.8154,-3.7051,0.0,-3.2596,0.0,0.0,0.0,0.0,0.0,0.0,0.0,0.0,0.0,0.0,0.0,0.0,0.0,0.0,0.0,0.0,0.0,0.0,0.0,-2.7598,-2.9264,-2.8576,0.0,0.0,0.0,-3.5566,-3.6959,-3.9007,-4.022,-4.051,-4.1796,-4.2375,-4.2122,-4.2629,-4.2629,-4.2158,-4.2665,-4.2901,-4.2901,-4.2901,-4.2901,-4.3046,-4.4621,-4.4331,-4.3082,-4.4657,-4.4331,-4.2901,-4.2901,-4.2901,-4.2901,-4.2901,-4.2901,-4.2901,-4.2901,-4.2901,-4.2901,-4.2901,-4.2901,-4.2901,-4.2901,-4.2901,-4.3082,-4.3896,-4.4295,-4.4729,-4.5526,-4.6359,-4.6939,-4.6939,-4.7337,-4.7699,-4.7699,-4.7699,-4.7699,-4.7699,-4.7699,-4.7699,-4.7699,-4.7699,-4.7699,-4.7699,-4.7699,-4.7699,-4.7699,-4.7699,-4.7699,-4.7699,-4.7699,-4.7699,-4.7699,-4.7699,-4.7699,-4.7699,-4.7699,-4.7699,-4.7699,-4.7699,-4.7699,-4.7699,-4.7699,-4.7699,-4.7699,-4.7699,-4.7699]},{"header":{"parameterUnit":"m.s-1","parameterCategory":1,"la1":30.6,"la2":29.2853,"lo1":-89.7004,"lo2":-87.6739,"dy":0.0162,"dx":0.0183,"nx":112,"ny":82,"refTime":"2026-04-26T00:00:00:Z","depth":0,"parameterNumber":3,"parameterNumberName":"V-component_of_WINDS"},"data":[0.0,0.0,0.0,0.0,0.0,0.0,0.0,0.0,0.0,0.0,0.0,0.0,0.0,0.0,0.0,0.0,0.0,0.0,0.0,0.0,0.0,0.0,0.0,0.0,0.0,0.0,0.0,0.0,0.0,0.0,0.0,0.0,0.0,0.0,0.0,0.0,0.0,0.0,0.0,0.0,0.0,0.0,0.0,0.0,0.0,0.0,0.0,0.0,0.0,0.0,0.0,0.0,0.0,0.0,0.0,0.0,0.0,0.0,0.0,0.0,0.0,0.0,0.0,0.0,0.0,0.0,0.0,0.0,0.0,0.0,0.0,0.0,0.0,0.0,0.0,0.0,0.0,0.0,0.0,0.0,0.0,0.0,0.0,0.0,0.0,0.0,0.0,0.0,0.0,0.0,0.6837,0.7712,0.8269,0.854,0.854,0.7993,0.729,0.6385,0.0,0.0,0.0,0.0,0.0,0.0,0.0,0.0,0.0,0.0,0.0,0.0,0.0,0.0,0.0,0.0,0.0,0.0,0.0,0.0,0.0,0.0,0.0,0.0,0.0,0.0,0.0,0.0,0.0,0.0,0.0,0.0,0.0,0.0,0.0,0.0,0.0,0.0,0.0,0.0,0.0,0.0,0.0,0.0,0.0,0.0,0.0,0.0,0.0,0.0,0.0,0.0,0.0,0.0,0.0,0.0,0.0,0.0,0.0,0.0,0.0,0.0,0.0,0.0,0.0,0.0,0.0,0.0,0.0,0.0,0.0,0.0,0.0,0.0,0.0,0.0,0.0,0.0,0.0,0.0,0.0,0.0,0.0,0.0,0.0,0.0,0.0,0.0,0.0,0.0,0.0,0.0,0.0,0.0,0.0,0.0,0.0,0.0,0.0,0.0,0.0,0.0,0.0,0.0,0.7197,0.8534,0.8804,0.8823,0.8823,0.8223,0.7621,0.7008,0.0,0.0,0.0,0.0,0.0,0.0,0.0,0.0,0.0,0.0,0.0,0.0,0.0,0.0,0.0,0.0,0.0,0.0,0.0,0.0,0.0,0.0,0.0,0.0,0.0,0.0,0.0,0.0,0.0,0.0,0.0,0.0,0.0,0.0,0.0,0.0,0.0,0.0,0.0,0.0,0.0,0.0,0.0,0.0,0.0,0.0,0.0,0.0,0.0,0.0,0.0,0.0,0.0,0.0,0.0,0.0,0.0,0.0,0.0,0.0,0.0,0.0,0.0,0.0,0.0,0.0,0.0,0.0,0.0,0.0,0.0,0.0,0.0,0.0,0.0,0.0,0.0,0.0,0.0,0.0,0.0,0.0,0.0,0.0,0.0,0.0,0.0,0.0,0.0,0.0,0.0,0.0,0.0,0.0,0.0,0.0,0.0,0.0,0.0,0.0,0.0,0.0,0.0,0.6926,0.7604,0.8696,0.8838,0.8851,0.8825,0.8294,0.7638,0.6969,0.6053,0.0,0.0,0.0,0.0,0.0,0.0,0.0,0.0,0.0,0.0,0.0,0.0,0.0,0.0,0.0,0.0,0.0,0.0,0.0,0.0,0.0,0.0,0.0,0.0,0.0,0.0,0.0,0.0,0.0,0.0,0.0,0.0,0.0,0.0,0.0,0.0,0.0,0.0,0.0,0.0,0.0,0.0,0.0,0.0,0.0,0.0,0.0,0.0,0.0,0.0,0.0,0.0,0.0,0.0,0.0,0.0,0.0,0.0,0.0,0.0,0.0,0.0,0.0,0.0,0.0,0.0,0.0,0.0,0.0,0.0,0.0,0.0,0.0,0.0,0.0,0.0,0.0,0.0,0.0,0.0,0.0,0.0,0.0,0.0,0.0,0.0,0.0,0.0,0.0,0.0,0.0,0.0,0.0,0.0,0.0,0.0,0.0,0.0,0.0,0.0,0.0,0.0,0.7522,0.7963,0.8635,0.8818,0.8825,0.8669,0.818,0.7563,0.6864,0.6028,0.0,0.0,0.0,0.0,0.0,0.0,0.0,0.0,0.0,0.0,0.0,0.0,0.0,0.0,0.0,0.0,0.0,0.0,0.0,0.0,0.0,0.0,0.0,0.0,0.0,0.0,0.0,0.0,0.0,0.0,0.0,0.0,0.0,0.0,0.0,0.0,0.0,0.0,0.0,0.0,0.0,0.0,0.0,0.0,0.0,0.0,0.0,0.0,0.0,0.0,0.0,0.0,0.0,0.0,0.0,0.0,0.0,0.0,0.0,0.0,0.0,0.0,0.0,0.0,0.0,0.0,0.0,0.0,0.0,0.0,0.0,0.0,0.0,0.0,0.0,0.0,0.0,0.0,0.0,0.0,0.0,0.0,0.0,0.0,0.0,0.0,0.0,0.0,0.0,0.0,0.0,0.0,0.0,0.0,0.0,0.0,0.0,0.0,0.0,0.0,0.0,0.0,0.753,0.8137,0.8662,0.8716,0.8662,0.8513,0.7834,0.7285,0.6923,0.5969,0.0,0.0,0.0,0.0,0.0,0.0,0.0,0.0,0.0,0.0,0.0,0.0,0.0,0.0,0.0,0.0,0.0,0.0,0.0,0.0,0.0,0.0,0.0,0.0,0.0,0.0,0.0,0.0,0.0,0.0,0.0,0.0,0.0,0.0,0.0,0.0,0.0,0.0,0.0,0.0,0.0,0.0,0.0,0.0,0.0,0.0,0.0,0.0,0.0,0.0,0.0,0.0,0.0,0.0,0.0,0.0,0.0,0.0,0.0,0.0,0.0,0.0,0.0,0.0,0.0,0.0,0.0,0.0,0.0,0.0,0.0,0.0,0.0,0.0,0.0,0.0,0.0,0.0,0.0,0.0,0.0,0.0,0.0,0.0,0.0,0.0,0.0,0.0,0.0,0.0,0.0,0.0,0.0,0.0,0.0,0.0,0.0,0.0,0.0,0.0,0.0,0.0,0.7421,0.8011,0.0,0.871,0.8648,0.8492,0.7889,0.7305,0.6817,0.0,0.0,0.0,0.0,0.0,0.0,0.0,0.0,0.0,0.0,0.0,0.0,0.0,0.0,0.0,0.0,0.0,0.0,0.0,0.0,0.0,0.0,0.0,0.0,0.0,0.0,0.0,0.0,0.0,0.0,0.0,0.0,0.0,0.0,0.0,0.0,0.0,0.0,0.0,0.0,0.0,0.0,0.0,0.0,0.0,0.0,0.0,0.0,0.0,0.0,0.0,0.0,0.0,0.0,0.0,0.0,0.0,0.0,0.0,0.0,0.0,0.0,0.0,0.0,0.0,0.0,0.0,0.0,0.0,0.0,0.0,0.0,0.0,0.0,0.0,0.0,0.0,0.0,0.0,0.0,0.0,0.0,0.0,0.0,0.0,0.0,0.0,0.0,0.0,0.0,0.0,0.0,0.0,0.0,0.0,0.0,0.0,0.0,0.0,0.0,0.0,0.0,0.6736,0.7333,0.7902,0.0,0.8574,0.8506,0.8357,0.7753,0.7149,0.6593,0.0,0.0,0.0,0.0,0.0,0.0,0.0,0.0,0.0,0.0,0.0,0.0,0.0,0.0,0.0,0.0,0.0,0.0,0.0,0.0,0.0,0.0,0.0,0.0,0.0,0.0,0.0,0.0,0.0,0.0,0.0,0.0,0.0,0.0,0.0,0.0,0.0,0.0,0.0,0.0,0.0,0.0,0.0,0.0,0.0,0.0,0.0,0.0,0.0,0.0,0.0,0.0,0.0,0.0,0.0,0.0,0.0,0.0,0.0,0.0,0.0,0.0,0.0,0.0,0.0,0.0,0.0,0.0,0.0,0.0,0.0,0.0,0.0,0.0,0.0,0.0,0.0,0.0,0.0,0.0,0.0,0.0,0.0,0.0,0.0,0.0,0.0,0.0,0.0,0.0,0.0,0.0,0.0,0.0,0.0,0.0,0.0,0.0,0.0,0.0,0.0,0.0,0.6607,0.7353,0.7929,0.8286,0.832,0.8208,0.8002,0.7314,0.6736,0.0,0.0,0.0,0.0,0.0,0.0,0.0,0.0,0.0,0.0,0.0,0.0,0.0,0.0,0.0,0.0,0.0,0.0,0.0,0.0,0.0,0.0,0.0,0.0,0.0,0.0,0.0,0.0,0.0,0.0,0.0,0.0,0.0,0.0,0.0,0.0,0.0,0.0,0.0,0.0,0.0,0.0,0.0,0.0,0.0,0.0,0.0,0.0,0.0,0.0,0.0,0.0,0.0,0.0,0.0,0.0,0.0,0.0,0.0,0.0,0.0,0.0,0.0,0.0,0.0,0.0,0.0,0.0,0.0,0.0,0.0,0.0,0.0,0.0,0.0,0.0,0.0,0.0,0.0,0.0,0.0,0.0,0.0,0.0,0.0,0.0,0.0,0.0,0.0,0.0,0.0,0.0,0.0,0.0,0.0,0.0,0.0,0.0,0.0,0.0,0.0,0.0,0.0,0.6607,0.7353,0.7929,0.8286,0.832,0.8208,0.8002,0.7402,0.6844,0.6334,0.0,0.0,0.0,0.0,0.0,0.0,0.0,0.0,0.0,0.0,0.0,0.0,0.0,0.0,0.0,0.0,0.0,0.0,0.0,0.0,0.0,0.0,0.0,0.0,0.0,0.0,0.0,0.0,0.0,0.0,0.0,0.0,0.0,0.0,0.0,0.0,0.0,0.0,0.0,0.0,0.0,0.0,0.0,0.0,0.0,0.0,0.0,0.0,0.0,0.0,0.0,0.0,0.0,0.0,0.0,0.0,0.0,0.0,0.0,0.0,0.0,0.0,0.0,0.0,0.0,0.0,0.0,0.0,0.0,0.0,0.0,0.0,0.0,0.0,0.0,0.0,0.0,0.0,0.0,0.0,0.0,0.0,0.0,0.0,0.0,0.0,0.0,0.0,0.0,0.0,0.0,0.0,0.0,0.0,0.0,0.0,0.0,0.0,0.0,0.0,0.0,0.0,0.6586,0.7244,0.7773,0.814,0.8126,0.8024,0.7875,0.7321,0.6776,0.6156,0.0,0.0,0.0,0.0,0.0,0.0,0.0,0.0,0.0,0.0,0.0,0.0,0.0,0.0,0.0,0.0,0.0,0.0,0.0,0.0,0.0,0.0,0.0,0.0,0.0,0.0,0.0,0.0,0.0,0.0,0.0,0.0,0.0,0.0,0.0,0.0,0.0,0.0,0.0,0.0,0.0,0.0,0.0,0.0,0.0,0.0,0.0,0.0,0.0,0.0,0.0,0.0,0.0,0.0,0.0,0.0,0.0,0.0,0.0,0.0,0.0,0.0,0.0,0.0,0.0,0.0,0.0,0.0,0.0,0.0,0.0,0.0,0.0,0.0,0.0,0.0,0.0,0.0,0.0,0.0,0.0,0.0,0.0,0.0,0.0,0.0,0.0,0.0,0.0,0.0,0.0,0.0,0.0,0.0,0.0,0.0,0.0,0.0,0.0,0.0,0.0,0.0,0.6586,0.7119,0.7609,0.7999,0.7924,0.7781,0.7637,0.7221,0.6614,0.5904,0.0,0.0,0.0,0.0,0.0,0.0,0.0,0.0,0.0,0.0,0.0,0.0,0.0,0.0,0.0,0.0,0.0,0.0,0.0,0.0,0.0,0.0,0.0,0.0,0.0,0.0,0.0,0.0,0.0,0.0,0.0,0.0,0.0,0.0,0.0,0.0,0.0,0.0,0.0,0.0,0.0,0.0,0.0,0.0,0.0,0.0,0.0,0.0,0.0,0.0,0.0,0.0,0.0,0.0,0.0,0.0,0.0,0.0,0.0,0.0,0.9056,0.0,0.0,0.0,0.0,0.0,0.0,0.0,0.0,0.0,0.0,0.0,0.0,0.0,0.0,0.0,0.0,0.0,0.0,0.0,0.0,0.0,0.0,0.0,0.0,0.0,0.0,0.0,0.0,0.0,0.0,0.0,0.0,0.0,0.0,0.0,0.0,0.0,0.0,0.0,0.0,0.0,0.6648,0.7346,0.7862,0.8219,0.8219,0.8139,0.7986,0.7511,0.6942,0.6314,0.541,0.0,0.0,0.0,0.0,0.0,0.0,0.0,0.0,0.0,0.0,0.0,0.0,0.0,0.0,0.0,0.0,0.0,0.0,0.0,0.0,0.0,0.0,0.0,0.0,0.0,0.0,0.0,0.0,0.0,0.0,0.0,0.0,0.0,0.0,0.0,0.0,0.0,0.0,0.0,0.0,0.0,0.0,0.0,0.0,0.0,0.0,0.0,0.0,0.0,0.0,0.0,0.0,0.0,0.0,0.0,0.0,0.0,0.0,0.0,0.0,0.9324,0.0,0.0,0.0,0.0,0.0,0.0,0.0,0.0,0.0,0.0,0.0,0.0,0.0,0.0,0.0,0.0,0.0,0.0,0.0,0.0,0.0,0.0,0.0,0.0,0.0,0.0,0.0,0.0,0.0,0.0,0.0,0.0,0.0,0.0,0.0,0.0,0.0,0.0,0.0,0.0,0.6795,0.7392,0.7842,0.8249,0.8227,0.8191,0.8117,0.7642,0.7152,0.6654,0.5841,0.0,0.0,0.0,0.0,0.0,0.0,0.0,0.0,0.0,0.0,0.0,0.0,0.0,0.0,0.0,0.0,0.0,0.0,0.0,0.0,0.0,0.0,0.0,0.0,0.0,0.0,0.0,0.0,0.0,0.0,0.0,0.0,0.0,0.0,0.0,0.0,0.0,0.0,0.0,0.0,0.0,0.0,0.0,0.0,0.0,0.0,0.0,0.0,0.0,0.0,0.0,0.0,0.0,1.1175,1.1395,1.1216,1.1541,1.1622,1.1459,1.072,1.0428,1.0366,0.9648,0.0,0.0,0.0,0.0,0.0,0.0,0.0,0.0,0.0,0.0,0.0,0.0,0.0,0.0,0.0,0.0,0.0,0.0,0.0,0.0,0.0,0.0,0.0,0.0,0.817,0.8054,0.6909,0.0,0.0,0.0,0.0,0.0,0.0,0.0,0.0,0.0,0.0,0.0,0.6993,0.7462,0.7897,0.8298,0.8231,0.82,0.82,0.7718,0.7319,0.7041,0.6356,0.5734,0.0,0.0,0.0,0.0,0.0,0.0,0.0,0.0,0.0,0.0,0.0,0.0,0.0,0.0,0.0,0.0,0.0,0.0,0.0,0.0,0.0,0.0,0.0,0.0,0.0,0.0,0.0,0.0,0.0,0.0,0.0,0.0,0.8942,0.8982,0.0,0.0,0.0,0.0,0.0,0.0,0.0,0.0,0.0,0.0,0.0,0.0,0.0,1.0664,1.0972,1.1825,1.2093,1.1792,1.2289,1.245,1.2134,1.2337,1.2499,1.2556,1.2499,0.0,1.0639,1.0371,0.0,0.0,0.0,0.0,0.0,0.0,0.0,0.0,0.0,0.0,0.0,0.0,0.0,0.0,0.0,0.0,0.0,0.0,0.0,0.0,0.0,0.0,0.9077,0.8747,0.8714,0.867,0.0,0.7629,0.6713,0.6169,0.5752,0.0,0.0,0.0,0.0,0.0,0.0,0.0,0.7103,0.7763,0.8295,0.852,0.8528,0.8512,0.8512,0.7989,0.7609,0.7446,0.6744,0.6184,0.5809,0.5374,0.0,0.0,0.0,0.0,0.0,0.0,0.0,0.0,0.0,0.0,0.0,0.0,0.0,0.0,0.0,0.0,0.0,0.0,0.0,0.0,0.0,0.0,0.0,0.0,0.0,0.0,0.0,0.0,0.0,0.8857,0.947,0.9314,0.9421,0.9364,0.0,0.0,0.0,0.0,0.0,0.0,0.0,0.0,0.0,1.1013,1.1403,1.1719,1.1971,1.2467,1.2637,1.2419,1.2824,1.2954,1.2905,1.2978,1.3116,1.3219,1.3181,1.267,1.1849,1.1273,1.0664,1.0063,0.0,0.0,0.0,0.0,0.938,0.9332,0.977,0.9786,0.9567,0.9267,0.0,0.0,0.0,0.0,0.0,0.0,0.0,0.0,0.0,0.0,0.9194,0.9137,0.9202,0.9242,0.9145,0.8629,0.7956,0.0,0.6837,0.6467,0.5894,0.0,0.0,0.0,0.0,0.6963,0.7469,0.7983,0.8357,0.8596,0.8612,0.8571,0.8422,0.8086,0.7821,0.7684,0.7153,0.6694,0.635,0.6053,0.5598,0.0,0.0,0.0,0.0,0.0,0.0,0.0,0.0,0.0,0.0,0.0,0.0,0.0,0.0,0.0,0.0,0.0,0.0,0.0,0.0,0.0,0.0,0.0,0.0,0.0,0.0,0.0,0.0,0.9492,1.0026,0.9813,1.0033,0.9998,0.0,0.0,0.0,0.0,0.0,0.0,1.0615,1.107,1.1492,1.1898,1.2345,1.2661,1.284,1.3019,1.3059,1.2978,1.3108,1.3189,1.3238,1.3327,1.3441,1.3571,1.3482,1.3238,1.284,1.2085,1.1451,1.0923,1.042,1.0038,0.9861,1.022,1.016,1.0063,1.0737,1.0794,1.0509,1.0103,0.9721,0.9283,0.8519,0.0,0.0,0.0,0.0,0.8536,0.8767,0.8999,0.9267,0.9397,0.9527,0.9592,0.9453,0.925,0.8869,0.0,0.782,0.7391,0.6718,0.0,0.0,0.0,0.0,0.7405,0.7789,0.8138,0.8414,0.8596,0.8571,0.8482,0.83,0.8081,0.7894,0.7812,0.7423,0.7082,0.6773,0.6538,0.6061,0.5385,0.0,0.0,0.0,0.0,0.0,0.0,0.0,0.0,0.0,0.0,0.0,0.0,0.0,0.0,0.0,0.0,0.0,0.0,0.0,0.0,0.0,0.0,0.0,0.0,0.0,0.0,0.0,0.0,0.0,1.0814,1.1009,0.0,0.0,0.0,0.0,1.0363,1.1184,1.1728,1.1906,1.2125,1.2475,1.2994,1.3214,1.3409,1.3518,1.3758,1.3677,1.3344,1.3352,1.3181,1.2807,1.3214,1.3376,1.3392,1.3555,1.3425,1.3051,1.267,1.2261,1.1687,1.1305,1.1045,1.0922,1.072,1.0761,1.0963,1.0956,1.1012,1.0996,1.0963,1.0314,0.9543,0.9161,0.8804,0.0,0.0,0.8787,0.9096,0.9314,0.9453,0.955,0.9567,0.9575,0.9575,0.9616,0.934,0.8982,0.0,0.8235,0.7918,0.7755,0.0,0.7423,0.7415,0.7732,0.7975,0.8,0.8325,0.8604,0.8612,0.8406,0.83,0.8292,0.8016,0.7812,0.7796,0.7423,0.7139,0.6988,0.6603,0.6245,0.5872,0.5336,0.0,0.0,0.0,0.0,0.0,0.0,0.0,0.0,0.0,0.0,0.0,0.0,0.0,0.0,0.0,0.0,0.0,0.0,0.0,0.0,0.0,0.0,0.0,0.0,0.0,0.0,0.0,0.0,1.138,1.193,0.0,1.1135,1.1859,1.2281,1.1879,1.269,1.3156,1.3093,1.3602,1.3857,1.3778,1.4178,1.4455,1.4523,1.4344,1.425,1.4113,1.3612,1.3353,1.3344,1.3267,1.3254,1.3376,1.3441,1.3262,1.2921,1.2791,1.2491,1.2093,1.1841,1.1638,1.1484,1.1419,1.1354,1.133,1.1443,1.1411,1.1256,1.0907,1.042,0.9949,0.9819,0.9747,0.9616,0.9445,0.951,0.9592,0.9543,0.9575,0.9575,0.9575,0.9575,0.9575,0.9575,0.9527,0.9364,0.9167,0.8601,0.817,0.8113,0.7951,0.7789,0.7714,0.7959,0.8195,0.8195,0.8414,0.8612,0.8612,0.8398,0.8243,0.8122,0.7789,0.7537,0.7423,0.7188,0.7183,0.7441,0.6781,0.663,0.7101,0.5886,0.537,0.0,0.0,0.0,0.0,0.0,0.0,0.0,0.0,0.0,0.0,0.0,0.0,0.0,0.0,0.0,0.0,0.0,0.0,0.0,0.0,0.0,0.0,0.0,0.0,0.0,0.0,1.205,1.2123,1.288,1.3012,1.215,1.3056,1.3599,1.3156,1.3949,1.4302,1.4095,1.4605,1.478,1.4499,1.484,1.4946,1.4876,1.4683,1.449,1.4358,1.377,1.3552,1.3669,1.3269,1.3224,1.3483,1.3347,1.3143,1.2873,1.2743,1.2596,1.2324,1.2077,1.1963,1.1857,1.1801,1.1695,1.1606,1.1782,1.1743,1.1512,1.1204,1.0908,1.0648,1.059,1.0521,1.0358,1.0102,0.9985,0.9843,0.9673,0.9575,0.9575,0.9575,0.9575,0.9575,0.9575,0.9575,0.9518,0.9453,0.8966,0.8544,0.8479,0.8316,0.8162,0.809,0.8277,0.8381,0.8381,0.8531,0.8612,0.8612,0.8349,0.8146,0.8024,0.7634,0.735,0.7191,0.6993,0.7025,0.7245,0.6843,0.684,0.7345,0.6267,0.5829,0.6092,0.0,0.0,0.0,0.0,0.0,0.0,0.0,0.0,0.0,0.0,0.0,0.0,0.0,0.0,0.0,0.0,0.0,0.0,0.0,0.0,0.0,0.0,0.0,1.209,1.2765,1.3184,1.3093,1.3734,1.3975,1.3212,1.4178,1.4678,1.4258,1.4895,1.5181,1.4832,1.4947,1.5052,1.5052,1.5052,1.4956,1.4754,1.4745,1.4551,1.4241,1.383,1.3727,1.3884,1.3336,1.3285,1.3553,1.3285,1.3079,1.2998,1.2749,1.2598,1.2451,1.2151,1.2028,1.2012,1.1841,1.1776,1.1812,1.1862,1.1787,1.1708,1.1755,1.1675,1.1538,1.1353,1.114,1.0841,1.0459,1.0146,0.9851,0.9673,0.9624,0.9575,0.9575,0.9575,0.9575,0.9575,0.9486,0.9461,0.9592,0.934,0.9039,0.8861,0.8682,0.8612,0.8612,0.8612,0.0,0.8612,0.8612,0.8612,0.8612,0.8235,0.8016,0.8016,0.7521,0.7183,0.7183,0.6863,0.662,0.6457,0.6812,0.6855,0.6539,0.6551,0.6411,0.6119,0.0,0.0,0.0,0.0,0.0,0.0,0.0,0.0,0.0,0.0,0.0,0.0,0.0,0.0,0.0,0.0,0.0,0.0,0.0,0.0,0.0,1.2011,1.2748,1.2805,1.3282,1.3761,1.4196,1.4702,1.4835,1.4378,1.522,1.5589,1.5027,1.5603,1.5812,1.5379,1.5726,1.5753,1.547,1.5683,1.5793,1.558,1.544,1.5236,1.49,1.4422,1.4191,1.4277,1.3862,1.3756,1.3822,1.369,1.3345,1.2868,1.3058,1.2773,1.2266,1.2102,1.2151,1.232,1.1963,1.1776,1.1812,1.1624,1.1495,1.1306,1.1247,1.1231,1.1227,1.1176,1.1276,1.1298,1.0915,1.0595,1.0322,1.0004,0.9723,0.9575,0.9575,0.9575,0.9575,0.9575,0.9592,0.9567,0.9616,0.934,0.908,0.9031,0.8771,0.8612,0.8612,0.8612,0.0,0.8612,0.8612,0.8612,0.8612,0.8235,0.8016,0.8016,0.7407,0.7061,0.7061,0.6596,0.6586,0.7162,0.7022,0.7032,0.7213,0.7842,0.7718,0.0,0.0,0.0,0.0,0.0,0.0,0.0,0.0,0.0,0.0,0.0,0.0,0.0,0.0,0.0,0.0,0.0,0.0,0.0,0.0,0.0,0.0,1.2776,1.3523,1.3703,1.4092,1.4474,1.4782,1.533,1.5508,1.5158,1.576,1.6061,1.5728,1.5971,1.6108,1.5895,1.6037,1.6108,1.5895,1.6023,1.5942,1.5803,1.5526,1.5319,1.5035,1.4594,1.4473,1.4604,1.4137,1.4006,1.4071,1.3861,1.3585,1.3232,1.3028,1.275,0.0,0.0,0.0,0.0,0.0,1.19,1.1869,1.1913,1.1842,1.1654,1.1466,1.144,1.1455,1.1455,1.1457,1.1442,1.1229,1.0931,1.0553,1.0244,0.9969,0.9772,0.9772,0.9616,0.9535,0.9608,0.9567,0.9535,0.9616,0.934,0.0,0.9096,0.8804,0.8612,0.8612,0.8612,0.8612,0.8612,0.8612,0.858,0.8506,0.8187,0.7983,0.791,0.7391,0.0,0.0,0.0,0.6807,0.7676,0.7431,0.0,0.0,0.0,0.0,0.0,0.0,0.0,0.0,0.652,0.6046,0.0,0.0,0.0,0.0,0.0,0.0,0.0,0.0,0.0,0.0,0.0,0.0,0.0,0.0,0.0,0.0,1.341,1.4222,1.461,1.5016,1.5203,1.505,1.5714,1.6037,1.5673,1.5966,1.6178,1.6178,1.6178,1.6178,1.6178,0.0,0.0,0.0,0.0,1.5794,1.5594,1.5328,1.513,1.4866,1.4604,1.4604,1.4866,1.4268,1.4128,1.4428,1.3931,1.3725,1.3698,1.296,1.2717,1.2724,1.2414,1.2234,1.2174,1.2234,1.2124,1.1938,1.2387,0.0,0.0,1.2019,1.2001,1.2001,1.1946,1.1711,1.1407,1.141,1.1057,1.0718,1.0515,1.0216,1.0019,0.9993,0.9664,0.9445,0.9559,0.947,0.9461,0.9592,0.934,0.9096,0.9096,0.8804,0.8612,0.8612,0.8612,0.8612,0.8612,0.8612,0.8539,0.8308,0.0,0.0,0.7812,0.7431,0.7155,0.7029,0.6927,0.7259,0.8163,0.808,0.8692,1.0083,0.9536,0.9266,0.9351,0.923,0.9083,0.8847,0.7302,0.6398,0.0,0.0,0.0,0.0,0.0,0.0,0.0,0.0,0.0,0.0,0.0,0.0,0.0,0.0,0.0,1.3088,1.3939,1.46,1.4837,1.5233,1.5517,1.5487,1.5933,1.6178,1.6108,1.6178,1.6178,1.6178,1.6178,1.6178,1.6178,1.6018,1.5993,1.5993,1.5794,1.5517,1.53,1.5252,1.513,1.4866,0.0,0.0,1.4866,1.48,1.4651,1.4557,1.4455,1.4096,1.3569,1.3655,1.3457,1.3084,1.2715,1.2414,1.2234,1.2475,1.2303,1.1879,1.1868,1.1907,1.1883,1.1744,1.1837,1.1946,1.1728,1.181,0.0,1.1515,1.1211,1.097,1.0762,1.0364,0.9976,0.9873,0.9621,0.9412,0.9453,0.9429,0.9461,0.9592,0.934,0.9096,0.9096,0.8804,0.8612,0.8612,0.8612,0.8612,0.8612,0.8612,0.8539,0.8308,0.8122,0.7943,0.7812,0.7431,0.7175,0.7171,0.7646,0.8347,0.9316,0.9512,0.9735,1.0097,0.9962,0.9813,0.962,0.959,0.9517,0.9355,0.9136,0.885,0.0,0.0,0.0,0.0,0.0,0.0,0.0,0.0,0.0,0.0,0.0,1.099,1.1831,0.0,1.2994,1.3731,1.4288,1.464,1.4838,1.5205,1.5441,1.5545,1.5933,1.6178,1.6178,1.6178,1.6178,1.6178,1.6084,1.6018,1.6018,1.5889,1.5775,1.5775,1.5508,1.5347,1.5233,1.513,1.5035,1.4866,1.4866,1.4866,1.4931,1.4827,1.4733,1.4619,1.4411,1.4079,1.376,1.3648,1.3416,1.3204,1.3024,1.2724,1.2466,1.2559,1.246,1.2209,1.2074,1.2049,1.2082,1.1873,1.1891,1.1982,1.1729,1.1718,1.1726,1.1522,1.1318,1.1132,1.103,1.0708,1.0311,1.0014,0.9711,0.944,0.9388,0.9331,0.9355,0.9723,0.9509,0.9288,0.9431,0.9051,0.8666,0.862,0.8612,0.8612,0.8612,0.8612,0.8506,0.8178,0.8065,0.791,0.7682,0.745,0.7516,0.7914,0.8301,0.9029,1.0168,1.0279,1.0497,1.0749,1.0736,1.0669,1.0555,1.0555,1.0509,1.0441,1.0528,1.011,0.0,0.0,0.0,0.0,0.0,0.0,0.0,0.0,1.0649,1.1397,1.1595,1.1898,1.2786,1.3145,1.3542,1.426,1.4553,1.4687,1.4912,1.5035,1.53,1.5479,1.5829,1.6065,1.6065,1.6065,1.6065,1.6065,1.5895,1.587,1.587,1.5611,1.5498,1.5498,1.5281,1.511,1.511,1.5016,1.4866,1.4866,1.4866,1.4866,1.4856,1.4659,1.461,1.4544,1.4128,1.3948,1.3939,1.3458,1.3324,1.3324,1.3324,1.3117,1.2833,1.2622,1.2583,1.252,1.2365,1.2349,1.2382,1.2164,1.2055,1.2018,1.1773,1.1625,1.1465,1.1424,1.1309,1.1198,1.1198,1.0916,1.0542,1.0153,0.9678,0.9368,0.9409,0.9288,0.9343,0.9951,0.9769,0.9585,0.9775,0.9309,0.8808,0.8681,0.8612,0.8612,0.8612,0.8612,0.8422,0.8057,0.8016,0.787,0.759,0.7547,0.7939,0.8808,0.9047,0.9667,1.0846,1.0984,1.1201,1.1491,1.1491,1.1457,1.1457,1.1423,1.1415,1.1516,1.1516,1.0915,0.849,0.852,0.8928,0.9349,0.9906,1.0669,0.0,0.0,1.2077,1.2729,1.3013,1.324,1.3532,1.391,1.427,1.4553,1.477,1.4838,1.4931,1.5035,1.5243,1.5262,1.5479,1.5699,1.5699,1.5699,1.5699,1.5699,1.568,1.5661,1.5661,1.5385,1.5271,1.5271,1.5073,1.4903,1.4903,1.4875,1.4866,1.4866,1.4866,1.4866,1.4856,1.4659,1.4525,1.4326,1.3901,1.3721,1.3721,1.3703,1.3624,1.3624,1.3624,1.352,1.3302,1.298,1.2618,1.2347,1.232,1.2349,1.2382,1.2382,1.2382,1.229,1.1826,1.173,1.1672,1.1272,1.116,1.1198,1.1198,1.0718,1.0144,0.9959,0.9397,0.8993,0.9414,0.9478,0.9626,1.0236,1.0149,0.9957,0.9821,0.9446,0.9078,0.8893,0.87,0.8612,0.8612,0.8612,0.8422,0.8057,0.8016,0.7951,0.779,0.7787,0.8257,0.9432,1.0017,1.068,1.1469,1.2001,1.2193,1.1949,1.1765,1.1662,1.1662,1.1491,1.1557,1.1859,1.1859,1.1753,0.9453,0.9534,0.9747,0.0,1.0656,1.1212,1.1868,1.2128,1.2367,1.2857,1.3208,1.3523,1.3967,1.4194,1.4421,0.0,1.4874,1.4866,1.4866,1.4838,1.4819,1.4819,1.4959,1.5158,1.5594,1.5632,1.5632,1.5632,1.5441,1.5366,1.5366,1.5167,1.5054,1.5054,1.4913,1.4866,1.4866,1.4866,1.4866,1.4866,1.4866,1.4874,1.4752,1.4544,1.426,1.3939,1.3759,1.3693,1.3693,1.3693,1.3693,1.3674,1.3561,1.3391,1.3202,1.2855,1.2671,1.2525,1.2229,1.2238,1.2382,1.2382,1.2307,1.2175,1.1853,1.17,1.1544,1.1238,1.1166,1.1149,1.1002,1.0651,1.0269,0.9923,0.9546,0.9323,0.9604,0.9693,0.9853,1.0529,1.0351,1.0156,1.0241,0.9666,0.9204,0.9156,0.8823,0.8612,0.8612,0.8514,0.8353,0.8105,0.7972,0.7886,0.7966,0.8063,0.8551,0.9528,1.0395,1.1131,1.179,1.253,1.2799,1.2515,1.2444,1.2408,1.2408,1.2194,1.2177,1.2299,1.219,1.219,0.9989,1.0119,1.0343,1.0741,1.1218,1.1642,1.1871,1.2259,1.2712,1.2949,1.3277,1.3703,1.4147,1.427,1.443,1.4789,1.4846,1.4874,1.4856,1.4761,1.4574,1.4574,1.4581,1.4742,1.5252,1.5356,1.5385,1.5385,1.5243,1.5148,1.5148,1.5016,1.4866,1.4866,1.4866,1.4866,1.4866,1.4866,1.4866,1.4866,1.4866,1.4762,1.4555,1.4355,1.4033,1.3693,1.3693,1.3693,1.3693,1.3693,1.3655,1.3589,1.3447,1.3221,1.2984,1.2757,1.2683,1.2654,1.2274,1.2219,1.2372,1.2316,1.2203,1.2034,1.1813,1.1633,1.1472,1.1255,1.1198,1.1149,1.0953,1.0663,1.0339,1.0008,0.9685,0.9561,0.9802,0.989,1.007,1.0699,1.0566,1.0403,1.0566,0.9949,0.9392,0.9376,0.9043,0.8788,0.87,0.8529,0.8346,0.8179,0.7983,0.7957,0.8178,0.8331,0.8703,0.9377,1.0319,1.1143,1.1811,1.2599,1.3039,1.309,1.3003,1.2966,1.2966,1.2783,1.2673,1.2673,1.2489,1.2489,0.9689,0.9979,1.0509,1.0867,1.1579,1.2148,1.2209,1.2847,1.3423,1.3232,1.3602,1.3996,1.4014,1.4175,1.4383,1.461,1.4583,1.4714,1.4838,1.4761,1.4574,1.4574,1.4449,1.4411,1.4638,1.4837,1.495,1.495,1.4875,1.4875,1.4875,1.4866,1.4866,1.4866,1.4866,1.4866,1.4866,1.4866,1.4866,1.4866,1.4866,1.4762,1.4619,1.4203,1.3901,1.3693,1.3693,1.3693,1.3693,1.3693,1.357,1.34,1.3391,1.3136,1.2832,1.2776,1.2635,1.2391,1.2382,1.2382,1.2354,1.2156,1.209,1.2006,1.1652,1.152,1.1472,1.1255,1.1198,1.1198,1.1198,1.0705,1.0213,1.0204,0.9723,0.9411,0.9786,1.0067,1.0315,1.0811,1.0896,1.083,1.0612,1.0177,0.9795,0.963,0.9428,0.9174,0.8911,0.8759,0.8611,0.84,0.8216,0.8178,0.8369,0.8399,0.856,0.8989,0.9765,1.0594,1.1403,1.2194,1.2893,1.3455,1.3309,1.32,1.32,1.2966,1.2893,1.2893,1.2673,1.2709,1.0404,0.0,1.1224,1.1581,1.1959,1.2209,1.2086,1.2479,1.2804,1.266,1.2899,1.3147,1.3381,1.3438,1.3646,1.4137,1.4336,1.4544,1.4819,1.4761,1.4581,1.444,1.4355,0.0,1.4411,1.461,0.0,1.4856,1.4866,1.4866,1.4866,1.4866,1.4866,1.4866,1.4866,1.4866,1.4866,1.4866,1.4866,1.4931,1.4648,1.4411,1.4213,1.3929,1.3759,1.3693,1.3693,1.3693,1.3693,1.3693,1.357,1.3372,1.323,1.307,1.2804,1.2606,1.2502,1.2382,1.2382,1.2382,1.2354,1.2156,1.1987,1.1869,1.1605,1.1416,1.1293,1.1217,1.1198,1.1149,1.1002,1.0654,1.0377,1.0241,0.9958,0.9786,1.0074,1.0342,1.0538,1.0858,1.0783,1.066,1.063,1.0111,0.9684,0.9611,0.9437,0.9165,0.8826,0.8719,0.864,0.8419,0.8329,0.8369,0.8589,0.8589,0.8665,0.878,1.0056,1.0931,1.118,1.2489,1.3309,1.3492,1.3419,1.3382,1.3382,1.32,1.309,1.309,1.2893,1.2893,1.0899,1.1321,1.1703,1.2117,1.2264,1.2272,1.2158,1.2275,1.2379,1.2181,1.2298,1.2431,1.2581,1.2617,1.2852,1.3561,1.3844,1.4175,1.4742,1.4648,1.4468,1.4326,1.4251,1.4203,0.0,1.4468,0.0,1.4753,1.4762,1.4762,1.4762,1.4828,1.4866,1.4866,1.4866,1.4866,1.4866,1.4866,1.4828,1.4818,1.4402,1.4137,1.4005,1.3788,1.3693,1.3693,1.3693,1.3693,1.3684,1.3608,1.3457,1.3249,1.3041,1.2833,1.2635,1.2438,1.2382,1.2382,1.2382,1.2382,1.2344,1.2062,1.1935,1.1765,1.1482,1.1302,1.1198,1.1198,1.1198,1.1149,1.1002,1.0805,1.0602,1.0389,1.0195,1.0074,1.0178,1.0422,1.0659,1.0754,1.0669,1.0621,1.0621,1.0135,0.9733,0.9733,0.9646,0.9413,0.8973,0.8919,0.8805,0.8521,0.8513,0.8551,0.8703,0.8703,0.8703,0.8703,0.9793,1.0669,1.108,1.2231,1.3053,1.3492,1.3492,1.3492,1.3492,1.3382,1.3309,1.3309,1.309,1.3184,1.1167,1.1533,1.1939,1.2434,1.2442,1.2312,1.2288,1.225,1.2056,1.1718,1.1784,1.1828,0.0,0.0,1.2058,1.288,1.324,1.3693,1.4515,1.4468,1.4336,0.0,0.0,0.0,0.0,0.0,0.0,1.4555,0.0,1.4583,1.4574,1.4762,1.4866,1.4866,1.4866,1.4866,1.4866,1.4856,1.4808,1.4536,1.4203,1.4005,1.3986,1.3788,1.3693,1.3693,1.3693,1.3693,1.3674,1.3476,1.3258,1.3108,1.2899,1.2635,1.2382,1.2382,1.2382,1.2382,1.2382,1.2382,1.2316,1.1954,1.1813,1.1737,1.1321,1.1198,1.1198,1.1198,1.1198,1.1198,1.1198,1.1057,1.0858,1.0631,1.0433,1.027,1.0042,1.0317,1.0611,1.0621,1.0621,1.0611,1.0592,1.026,0.9994,0.9994,0.9994,0.9843,0.9374,0.9286,0.9167,0.8751,0.8703,0.8703,0.8703,0.8703,0.8703,0.8742,0.916,0.9916,1.1117,1.1552,1.2342,1.3492,1.3492,1.3492,1.3492,1.3492,1.3492,1.3492,1.3324,1.3497,1.1687,1.2085,1.2457,1.2596,1.2532,1.2393,1.2004,1.1796,1.162,1.1368,1.0871,1.0606,0.0,0.0,0.0,1.2212,1.3069,0.0,1.4534,1.4649,0.0,1.4572,0.0,1.4477,1.4477,1.4288,0.0,0.0,1.4685,1.4789,1.4638,1.4762,1.4866,1.4866,1.4866,1.4866,1.4866,1.4725,1.4525,1.4166,1.4062,1.3929,1.3769,1.3712,1.3693,1.3693,1.3693,1.3693,1.3674,1.3476,1.3258,1.3108,1.2899,1.2635,1.2382,1.2382,1.2382,1.2382,1.2382,1.2382,1.2316,1.1954,1.1813,1.1737,1.1321,1.1198,1.1198,1.1198,1.1198,1.1198,1.1198,1.1161,1.1028,1.066,1.0583,1.0441,1.007,1.0203,1.0441,1.0592,1.0621,1.0516,1.0203,1.0061,0.9994,0.9994,0.9994,0.9843,0.9374,0.9286,0.9167,0.8751,0.8703,0.8703,0.8703,0.8703,0.897,0.9539,1.0255,1.1043,1.1972,1.2673,1.32,1.3492,1.3492,1.3492,1.3492,1.3492,1.3492,1.3492,1.3703,1.3864,1.2142,1.2467,1.2661,1.2588,1.2442,1.2166,1.1565,1.1159,1.0822,1.0348,0.9964,0.0,0.9732,1.0159,0.0,0.0,0.0,0.0,1.4118,1.4402,1.4515,0.0,1.4496,0.0,1.4496,1.4364,1.426,0.0,1.4477,1.461,1.4496,1.4706,1.4866,1.4866,1.4781,1.4752,1.4657,1.4459,1.4241,1.4014,1.391,1.3807,1.3693,1.3693,1.3693,1.3693,0.0,1.3636,1.3542,1.3334,1.3126,1.2975,1.271,1.255,1.2382,1.2382,1.2382,1.2382,1.2382,1.2382,1.2316,1.1954,1.1813,1.1737,1.1321,1.1198,1.1198,1.1198,1.1198,1.1198,1.1198,1.1198,1.1094,1.0716,1.0621,1.0507,1.0089,1.0165,1.0355,1.0469,1.0564,1.0488,1.007,0.9994,0.9994,0.9994,0.9994,0.9881,0.9465,0.9343,0.9167,0.8751,0.8703,0.8703,0.8703,0.9008,0.9425,0.9879,1.0743,1.1552,1.2268,1.282,1.3236,1.3492,1.3492,1.3492,1.3492,1.3492,1.3565,1.3711,1.3755,1.3989,1.2507,1.2718,1.2791,1.258,1.2264,1.1801,1.107,1.0531,0.9935,0.9224,0.0,0.8949,0.8624,0.9282,1.0053,1.0729,0.0,1.2645,1.357,1.3873,1.409,1.4288,1.4307,1.4307,1.4307,1.4459,1.4402,1.4043,1.4175,1.4279,1.4307,1.4657,1.4846,1.4846,1.4685,1.4487,1.427,1.4099,1.3996,1.3967,1.3778,1.3693,1.3693,1.3693,1.3693,1.3693,1.3693,1.357,1.3372,1.3154,1.3003,1.2748,1.2521,1.2382,1.2382,1.2382,1.2382,1.2382,1.2382,1.2382,1.2316,1.1983,1.1841,1.1746,1.1359,1.1217,1.1198,1.1198,1.1198,1.1198,1.1198,1.1198,1.1094,1.0716,1.0621,1.0507,1.0089,1.0165,1.0317,1.0317,1.046,1.0469,1.0099,1.0013,0.9994,0.9994,0.9994,0.9919,0.9625,0.9418,0.9176,0.8789,0.8722,0.8703,0.8703,0.9425,0.9954,1.0067,1.0968,1.1787,1.2415,1.2636,1.298,1.3492,1.3492,1.3492,1.3492,1.3536,1.3711,1.3975,1.3784,1.4136,1.2735,1.2808,1.2759,1.2434,1.2085,1.1589,1.0729,1.0111,0.0,0.0,0.8537,0.8255,0.8394,0.8687,0.9314,1.047,1.1378,1.2311,1.3542,1.3873,1.409,0.0,1.4307,1.4307,1.4307,1.4194,0.0,0.0,1.4043,1.4137,1.4298,1.4383,1.4421,1.4421,1.4383,1.427,1.4062,1.4033,1.392,1.374,1.3703,1.3693,1.3693,1.3693,1.3693,1.3693,1.3693,0.0,1.3372,1.3154,1.3003,1.2748,1.2521,1.2382,1.2382,1.2382,1.2382,1.2382,1.2382,1.2382,1.2344,1.2109,1.1964,1.1775,1.1529,1.134,1.1198,1.1198,1.1198,1.1198,1.1198,1.1198,1.1094,1.0716,1.0621,1.0507,1.0089,1.0165,1.0317,1.0317,1.0346,1.0346,1.027,1.0118,0.9994,0.9994,0.9994,0.9919,0.9625,0.9418,0.9192,0.8957,0.8807,0.8703,0.8703,0.9425,1.018,1.0844,1.1676,1.2489,1.3273,1.3346,1.3382,1.3492,1.3492,1.3492,1.3492,1.377,1.3931,1.3989,1.4472,1.4739,1.2783,1.2774,1.2751,1.2393,1.1963,1.1346,1.0257,0.0,0.0,0.0,0.7807,0.7655,0.774,0.8242,0.0,0.9786,1.0532,0.0,0.0,0.0,0.0,0.0,0.0,0.0,0.0,0.0,1.4014,1.4014,1.391,1.3939,1.4147,1.4251,1.426,1.4156,1.4156,1.4052,1.3844,1.3844,1.3788,1.3693,1.3693,1.3693,1.3693,1.3693,1.3693,1.3684,1.358,1.3419,1.3202,1.3051,1.2786,1.2587,1.2429,1.2382,1.2382,1.2382,1.2382,1.2382,1.2382,1.2382,1.2372,1.2269,1.2024,1.1784,1.1576,1.1368,1.1198,1.1198,1.1198,1.1198,1.1198,1.1198,1.1113,1.0811,1.0621,1.0374,1.0061,1.0509,1.0939,1.0828,1.1287,1.1683,1.1554,1.1478,1.1402,1.1402,1.1402,1.1359,1.125,1.1023,1.0416,0.9132,0.9272,0.9433,0.9322,1.0432,1.1292,1.17,1.2489,1.309,1.3492,1.3492,1.3492,1.3492,1.3492,1.3492,1.3492,1.3828,1.4077,1.4276,1.456,1.4867,1.2726,1.2775,1.2702,1.2385,1.1841,1.1078,0.9892,0.9047,0.0,0.0,0.7219,0.7216,0.7188,0.0,0.8418,0.0,0.9678,1.0593,0.0,0.0,0.0,0.0,0.0,0.0,0.0,0.0,0.0,0.0,0.0,0.0,1.3929,1.4137,1.4156,1.3948,1.3939,1.3863,1.3693,1.3693,1.3693,1.3693,1.3693,1.3693,1.3693,1.3693,1.3693,1.3674,1.3476,1.3268,1.3051,1.2908,1.2635,1.2382,1.2382,1.2382,1.2382,1.2382,1.2382,1.2382,1.2382,1.2382,1.2372,1.2335,1.2071,1.1784,1.1633,1.1397,1.1198,1.1198,1.1198,1.1198,1.1198,1.1198,1.1132,1.0886,1.0675,1.0518,1.0304,1.1118,1.1817,1.1684,1.2328,1.2909,1.2783,1.2711,1.2717,1.2717,1.2717,1.2717,1.2717,1.2547,1.1741,0.9907,1.025,1.0512,1.028,1.1565,1.2371,1.2305,1.3053,1.3492,1.3492,1.3492,1.3521,1.3594,1.3594,1.3638,1.3711,1.4033,1.4326,1.4575,1.4648,1.494,1.254,1.2588,1.2548,1.2353,1.1654,1.0769,0.9843,0.0,0.0,0.7337,0.7118,0.7081,0.7196,0.726,0.7638,0.8589,0.0,0.993,0.0,0.0,0.0,0.0,0.0,0.0,0.0,0.0,0.0,0.0,0.0,0.0,1.3721,1.392,1.3939,1.3721,1.3721,1.3712,1.3693,1.3693,1.3693,1.3693,1.3693,1.3693,1.3693,1.3693,1.3693,1.3674,1.3476,1.3268,0.0,1.2908,1.2635,1.2382,1.2382,1.2382,1.2382,1.2382,1.2382,1.2382,1.2382,1.2382,1.2354,1.2175,1.1958,1.1813,1.1794,1.151,1.1198,1.1198,1.1198,1.1198,1.1198,1.1198,1.1094,1.0697,1.1051,1.143,1.1197,1.1929,1.2654,1.2826,1.2781,1.2783,1.2925,1.2843,1.2717,1.2717,1.2717,1.2717,1.2717,1.2693,1.253,1.2129,1.197,1.1809,1.1453,1.2247,1.2623,1.2318,1.3053,1.3492,1.3492,1.3492,1.3638,1.3931,1.3931,1.4077,1.4423,1.4706,1.4827,1.4871,1.5163,1.5338,1.2134,1.232,1.2345,1.206,1.1386,1.0566,0.9665,0.0,0.7837,0.7224,0.683,0.6684,0.6863,0.6909,0.7233,0.8173,0.8269,0.8867,1.0725,0.0,0.0,0.0,0.0,0.0,0.0,0.0,0.0,0.0,0.0,0.0,1.3693,1.3769,1.3778,1.3693,1.3693,1.3693,1.3693,1.3693,1.3693,1.3693,1.3693,1.3693,1.3693,1.3693,1.3627,1.3495,1.3287,1.3136,0.0,1.2663,1.2521,1.2382,1.2382,1.2382,1.2382,1.2382,1.2382,1.2382,1.2382,1.2871,1.3457,1.3365,1.3561,1.3529,1.2079,1.1435,1.1198,1.1198,1.1198,1.1198,1.1198,1.1629,1.2024,1.1764,1.2242,1.2674,1.2496,1.301,1.3574,1.3647,1.4008,1.4348,1.4428,1.4389,1.4307,1.4307,1.4307,1.4307,1.4307,1.4307,1.4308,1.4186,1.3491,1.2815,1.2363,1.3051,1.3379,1.3031,1.3309,1.3492,1.3492,1.3682,1.3843,1.4012,1.4218,1.4379,1.4511,1.4794,1.49,1.4915,1.5236,1.5382,1.1711,1.1971,1.2004,1.176,1.111,1.0331,0.0,0.8571,0.7649,0.7102,0.6668,0.6473,0.6678,0.6718,0.6995,0.771,0.7845,0.844,1.012,1.0454,0.0,0.0,0.0,0.0,0.0,0.0,0.0,0.0,0.0,0.0,1.3693,1.3693,1.3693,1.3693,1.3693,1.3693,1.3693,1.3693,1.3693,1.3693,1.3693,1.3693,1.3684,1.3627,1.3523,1.3372,1.3098,1.2956,0.0,1.2531,1.2382,1.2382,1.2382,1.2382,1.2436,1.2817,1.2925,1.298,1.3295,1.3997,1.4674,1.4529,1.4769,1.4764,1.2893,1.1993,1.1678,1.1727,1.1922,1.2106,1.2106,1.264,1.3106,1.2908,1.346,1.396,1.3642,1.415,1.4599,1.4503,1.5006,1.5382,1.5382,1.5382,1.5382,1.5382,1.5382,1.5382,1.5382,1.5382,1.5382,1.5382,1.4627,1.3952,1.3443,1.3944,1.4136,1.3799,1.3784,1.3784,1.3784,1.4004,1.4165,1.4267,1.4487,1.4662,1.475,1.4984,1.5046,1.5046,1.5279,1.5382,1.1313,1.1508,1.1508,1.15,1.0826,1.0073,0.9526,0.8571,0.7649,0.7102,0.6668,0.6473,0.6678,0.6821,0.698,0.7171,0.8022,0.895,0.9616,1.0565,0.0,0.0,0.0,0.0,0.0,0.0,0.0,0.0,0.0,0.0,1.3693,1.3693,1.3693,1.3693,1.3693,1.3693,1.3693,1.3693,1.3693,1.3693,1.3693,1.3693,1.3684,1.3485,1.3391,1.3372,0.0,1.2823,0.0,1.2531,1.2382,1.2382,1.2382,1.2382,1.2545,1.3738,1.4169,1.4331,1.5488,1.5861,1.5777,1.5258,1.5089,1.498,1.4437,1.3547,1.2727,1.3017,1.3644,1.4268,1.4268,1.4268,1.4255,1.4036,1.4659,1.5145,1.4616,1.5203,1.5776,1.5455,1.5382,1.5382,1.5382,1.5382,1.5382,1.5382,1.5382,1.5382,1.5382,1.5382,1.5382,1.5382,1.5382,1.525,1.4915,1.49,1.4794,1.4526,1.4496,1.4496,1.4496,1.4496,1.4604,1.4885,1.49,1.5061,1.5382,1.5382,1.5382,1.5382,1.5382,1.5382,1.0095,1.0306,1.0339,1.0147,0.9632,0.9137,0.8723,0.7992,0.7309,0.7053,0.6668,0.6432,0.6489,0.6531,0.6803,0.7497,0.7774,0.0,0.0,0.0,0.0,0.0,0.0,0.0,0.0,0.0,0.0,0.0,0.0,0.0,1.3693,1.3693,1.3693,1.3693,1.3693,1.3693,1.3693,1.3693,1.3693,1.3684,1.3551,1.3485,1.3476,1.3268,1.3098,0.0,0.0,0.0,1.254,1.2465,1.2382,1.2382,1.2382,1.2382,1.2545,1.3738,1.4223,1.4385,1.5488,1.6393,1.6976,1.66,1.686,1.7117,1.6219,1.4944,1.3836,1.3884,1.4076,1.4316,1.4316,1.4794,1.5292,1.5261,1.5836,1.6273,1.586,1.5836,1.5818,1.5455,1.5382,1.5382,1.5382,1.5382,1.5382,1.5382,1.5382,1.5382,1.5382,1.5382,1.5382,1.5382,1.5382,1.525,1.4929,1.49,1.4809,1.4526,1.4511,1.4511,1.4511,1.4677,1.4798,1.49,1.5119,1.5279,1.5382,1.5382,1.5382,1.5382,1.5382,1.5382,0.9275,0.9502,0.9535,0.9363,0.8991,0.8649,0.8357,0.774,0.7171,0.7029,0.6668,0.6383,0.6383,0.6473,0.6718,0.7389,0.7609,0.8095,0.0,0.0,0.0,0.0,0.0,0.0,0.0,0.0,0.0,0.0,0.0,0.0,1.3693,1.3693,1.3693,1.3693,1.3693,1.3693,1.3693,1.3693,1.3655,1.357,1.3447,1.3343,1.3258,1.3108,1.2937,0.0,0.0,1.2569,0.0,1.2382,1.2382,1.2382,1.2382,1.2654,1.3197,1.4428,1.5125,1.566,1.6764,1.7621,1.8144,1.7715,1.7697,1.78,1.7117,1.6048,1.4984,1.4889,1.5127,1.5412,1.5412,1.59,1.6372,1.6372,1.67,1.6991,1.6668,1.6345,1.5994,1.563,1.5469,1.5382,1.5382,1.5382,1.5382,1.5382,1.5382,1.5382,1.5382,1.5382,1.5382,1.5382,1.5382,1.5309,1.5104,1.509,1.5002,1.4838,1.4838,1.4838,1.4838,1.4988,1.509,1.509,1.5279,1.5382,1.5382,1.5382,1.5382,1.5382,1.5382,1.5382,0.0,0.8982,0.8999,0.8982,0.8723,0.8473,0.8251,0.7683,0.0,0.7004,0.666,0.6391,0.6448,0.6578,0.6792,0.7029,0.7638,0.8335,0.0,0.9926,0.0,0.0,0.0,0.0,0.0,0.0,0.0,0.0,0.0,0.0,1.3693,1.3693,1.3684,1.3665,1.3665,1.3674,1.3693,1.3674,1.357,1.3391,1.3362,1.324,1.3098,1.2889,1.2748,0.0,0.0,1.2382,1.2382,1.2382,1.2382,1.2382,1.2491,1.3197,1.4331,1.5541,1.6658,1.7713,1.8864,1.9228,1.9096,1.8467,1.7838,1.7279,1.7279,1.681,1.6231,1.5994,1.656,1.7279,1.7279,1.7279,1.7279,1.7279,1.7279,1.7238,1.6961,1.6639,1.6316,1.5979,1.5615,1.5382,1.5382,1.5382,1.5382,1.5382,1.5382,1.5382,1.5382,1.5382,1.5382,1.5382,1.5382,1.5382,1.5382,1.5382,1.5382,1.5382,1.5382,1.5382,1.5382,1.5382,1.5382,1.5382,1.5382,1.5382,1.5382,1.5382,1.5382,1.5382,1.5382,1.5382,0.7642,0.0,0.8082,0.7894,0.7699,0.7529,0.0,0.7131,0.679,0.6784,0.657,0.6505,0.6808,0.6784,0.6928,0.7642,0.791,0.8354,0.9241,0.0,0.0,1.2596,1.3067,1.3391,0.0,0.0,0.0,0.0,0.0,1.3693,1.3693,1.3693,1.3618,1.3466,1.3457,1.3532,1.3684,1.3532,1.3438,1.3381,1.3069,1.2946,1.2889,1.2616,1.2521,1.2512,1.241,1.2382,1.2382,1.2382,1.2382,1.2491,1.3413,1.3954,1.4439,1.6458,1.7226,1.7403,1.8534,1.8745,1.8467,1.8057,1.7662,1.7279,1.7279,1.7185,1.7044,1.6998,1.7138,1.7279,1.7279,1.7279,1.7279,1.7279,1.7279,1.7238,1.6961,1.6639,1.6316,1.5979,1.5615,1.5382,1.5382,1.5382,1.5382,1.5382,1.5382,1.5382,1.5382,1.5382,1.5382,1.5382,1.5382,1.5382,1.5382,1.5382,1.5382,1.5382,1.5382,1.5382,1.5382,1.5382,1.5382,1.5382,1.5382,1.5382,1.5382,1.5382,1.5382,1.5382,1.5382,1.5382,0.7215,0.7488,0.7755,0.7567,0.7415,0.7342,0.7342,0.7001,0.6684,0.6684,0.6546,0.6505,0.6816,0.6857,0.7061,0.7667,0.7975,0.0,0.0,0.0,0.0,0.0,0.0,0.0,0.0,0.0,0.0,0.0,0.0,1.3646,1.3561,1.3551,1.3457,1.3249,1.324,1.3296,1.34,1.3296,1.3192,1.3098,1.2871,1.271,1.2616,1.2493,1.2382,1.2382,1.2382,1.2382,1.2382,1.2382,1.2382,1.2491,1.3738,1.4535,1.5179,1.6935,1.7803,1.8156,1.8629,1.8482,1.8057,1.7867,1.7541,1.7279,1.7279,1.7279,1.7279,1.7279,1.7279,1.7279,1.7279,1.7279,1.7279,1.7279,1.7279,1.7282,1.7106,1.6813,1.6536,1.6184,1.5862,1.5557,1.5411,1.5382,1.5382,1.5382,1.5382,1.5382,1.5382,1.5382,1.5382,1.5382,1.5382,1.5382,1.5382,1.5382,1.5382,1.5382,1.5382,1.5382,1.5382,1.5382,1.5382,1.5382,1.5382,1.5382,1.5382,1.5382,1.5382,1.5382,1.5382,1.5382,0.7191,0.7488,0.7747,0.7496,0.7464,0.748,0.7447,0.7074,0.6733,0.6733,0.6611,0.6562,0.6773,0.6996,0.0,0.0,0.0,0.0,0.0,0.0,0.0,0.0,0.0,0.0,0.0,0.0,0.0,0.0,0.0,1.357,1.34,1.3353,1.324,1.3089,1.3022,1.3003,1.2975,1.3003,1.2994,1.2823,1.2739,1.2616,1.2382,1.2382,1.2382,1.2382,0.0,0.0,1.2382,1.2382,1.2491,1.2817,1.3997,1.5179,1.6287,1.7424,1.8418,1.9067,1.8701,1.8203,1.7735,1.7735,1.7512,1.7279,1.7279,1.7279,1.7279,1.7279,1.7279,1.7279,1.7279,1.7279,1.7279,1.7279,1.7279,1.7279,1.7279,1.7077,1.6815,1.6536,1.6199,1.5877,1.5513,1.5455,1.544,1.5396,1.5382,1.5382,1.5382,1.5382,1.5382,1.5382,1.5382,1.5382,1.5382,1.5382,1.5382,1.5382,1.5382,1.5382,1.5382,1.5382,1.5382,1.5382,1.5382,1.5382,1.5382,1.5382,1.5382,1.5382,1.5382,1.5382,0.7191,0.7488,0.7722,0.735,0.7374,0.7447,0.7301,0.7082,0.6947,0.0,0.0,0.0,0.0,0.7551,0.7845,0.0,0.0,1.0095,0.0,0.0,0.0,0.0,0.0,0.0,0.0,0.0,0.0,0.0,0.0,1.3419,1.3391,1.3211,1.3022,1.288,1.287,1.272,1.254,1.272,1.2851,1.2823,1.2578,1.2419,1.2382,1.2382,1.2382,1.2382,0.0,1.2382,1.2382,1.2382,1.298,1.4062,1.5179,1.6352,1.7477,1.8646,1.8767,1.8364,1.7765,1.7439,1.7399,1.7399,1.7323,1.7279,1.7279,1.7279,1.7279,1.7279,1.7279,1.7279,1.7279,1.7279,1.7279,1.7279,1.7279,1.7279,1.7279,1.7077,1.6888,1.6829,1.6565,1.6199,1.5891,1.5805,1.5745,1.5425,1.5382,1.5382,1.5382,1.5382,1.5382,1.5382,1.5382,1.5382,1.5382,1.5382,1.5382,1.5382,1.5382,1.5382,1.5382,1.5382,1.5382,1.5382,1.5382,1.5382,1.5382,1.5382,1.5382,1.5382,1.5382,1.5382,0.6968,0.7196,0.7431,0.7231,0.7504,0.7748,0.7667,0.7439,0.7273,0.7273,0.0,0.0,0.0,0.0,0.8284,0.9023,0.0,1.0565,1.1431,1.1875,1.2434,0.0,0.0,0.0,0.0,0.0,0.0,0.0,0.0,0.0,1.3069,1.3013,1.2805,1.2597,1.2587,1.254,1.2382,1.254,1.2587,1.2587,1.2484,1.2382,1.2382,1.2382,1.2382,1.2382,0.0,1.2382,1.2436,1.3088,1.3684,1.4385,1.614,1.7147,1.7726,1.8654,1.8716,1.8233,1.7765,1.7425,1.7279,1.7279,1.7279,1.7279,1.7279,1.7279,1.7279,1.7279,1.7279,1.7279,1.7279,1.7279,1.7279,1.7279,1.7279,1.7279,1.7279,1.7208,1.7062,1.6932,1.6785,1.658,1.6213,1.6155,1.6111,1.5965,1.5789,1.5644,1.5644,1.5498,1.5382,1.5382,1.5382,1.5382,1.5382,1.5382,1.5382,1.5382,1.5382,1.5382,1.5382,1.5382,1.5382,1.5382,1.5382,1.5382,1.5382,1.5382,1.5382,1.5382,1.5382,1.5382,0.6846,0.7017,0.7207,0.7334,0.765,0.7975,0.8057,0.787,0.7683,0.7763,0.0,0.0,0.0,0.8286,0.0,0.9616,1.0209,1.0836,1.1712,1.2034,1.2512,1.3467,1.3454,0.0,0.0,0.0,0.0,0.0,0.0,0.0,1.2842,1.272,1.2616,1.2391,1.2382,1.2382,1.2382,1.2382,1.2382,1.2382,1.2382,1.2382,1.2382,1.2382,1.2382,1.2382,1.2382,1.2354,1.2424,1.3663,1.4298,1.4725,1.6804,1.7699,1.797,1.8484,1.8467,1.816,1.7896,1.7604,1.7279,1.7279,1.7279,1.7279,1.7279,1.7279,1.7279,1.7279,1.7279,1.7279,1.7279,1.7279,1.7279,1.7279,1.7279,1.7279,1.7279,1.7279,1.7252,1.7018,1.7005,1.6903,1.658,1.6521,1.6507,1.6419,1.617,1.6023,1.6023,1.5804,1.5613,1.5513,1.5498,1.5469,1.5396,1.5382,1.5382,1.5382,1.5382,1.5382,1.5382,1.5382,1.5382,1.5382,1.5382,1.5382,1.5382,1.5382,1.5382,1.5382,1.5382,1.5425,0.7147,0.7167,0.7301,0.7682,0.7788,0.7902,0.8195,0.8251,0.8284,0.8498,0.8617,0.0,0.0,0.8857,0.951,1.0082,0.0,0.0,0.0,0.0,0.0,0.0,0.0,0.0,0.0,0.0,0.0,0.0,0.0,0.0,1.2823,1.2569,1.2401,1.2382,1.2382,1.2382,1.2382,1.2382,1.2382,1.2382,1.2382,1.2382,1.2382,1.2382,1.2382,1.2382,1.2382,1.2278,1.2225,1.3654,1.4669,1.5523,1.7042,1.8047,1.8687,1.8402,1.813,1.7852,1.7823,1.7604,1.7279,1.7279,1.7279,1.7279,1.7279,1.7279,1.7279,1.7279,1.7279,1.7279,1.7279,1.7279,1.7279,1.7279,1.7279,1.7279,1.7279,1.7279,1.7279,1.725,1.7296,1.7194,1.6917,1.6859,1.6756,1.6463,1.6389,1.6375,1.6375,1.636,1.6199,1.5906,1.5877,1.576,1.5411,1.5382,1.5382,1.5382,1.5382,1.5382,1.5382,1.5382,1.5382,1.5382,1.5382,1.5382,1.5382,1.5382,1.5382,1.5382,1.5382,1.5557,0.6903,0.7139,0.7415,0.7592,0.7877,0.8178,0.8536,0.8617,0.8739,0.9145,0.9275,0.0,0.0,0.0,0.9837,0.0,0.0,0.0,0.0,0.0,0.0,0.0,0.0,0.0,0.0,0.0,0.0,0.0,0.0,0.0,1.2569,1.2484,1.2382,1.2382,1.3142,1.3521,1.3521,1.4213,1.4578,1.4578,1.3078,1.2817,1.3521,1.298,1.3278,1.425,1.3678,1.3593,1.3949,1.5176,1.5883,1.6303,1.7539,1.8232,1.8452,1.8116,1.7925,1.7794,1.7589,1.7428,1.7279,1.7279,1.7279,1.7279,1.7279,1.7279,1.7279,1.7279,1.7279,1.7279,1.7279,1.7279,1.7279,1.7279,1.7279,1.7279,1.7279,1.7279,1.7279,1.7279,1.7279,1.7296,1.7165,1.715,1.7106,1.6989,1.6799,1.6712,1.6712,1.6536,1.636,1.6213,1.6023,1.5935,1.6009,1.5657,1.5469,1.5716,1.5498,1.5382,1.5382,1.5382,1.5382,1.5382,1.5382,1.5382,1.5382,1.5382,1.5498,1.5688,1.5688,1.5891,0.6857,0.7082,0.7415,0.7472,0.7845,0.8341,0.8869,0.8991,0.9145,0.9681,0.9705,0.9599,0.9697,0.0,0.0,0.0,0.0,0.0,0.0,0.0,0.0,0.0,0.0,0.0,0.0,0.0,0.0,0.0,0.0,0.0,0.0,1.2762,1.298,1.298,1.4105,1.475,1.475,1.5406,1.5728,1.5728,1.4018,1.371,1.4585,1.3944,1.4281,1.5227,1.4619,1.4533,1.4894,1.6097,1.68,1.7186,1.7894,1.8145,1.8116,1.7896,1.775,1.76,1.7516,1.7366,1.7279,1.7279,1.7279,1.7279,1.7279,1.7279,1.7279,1.7279,1.7279,1.7279,1.7279,1.7279,1.7279,1.7279,1.7279,1.7279,1.7279,1.7279,1.7279,1.7279,1.7279,1.7279,1.7279,1.7279,1.7279,1.7279,1.7135,1.7049,1.7049,1.6813,1.6638,1.658,1.6243,1.614,1.6389,1.5979,1.5818,1.6038,1.576,1.5498,1.5396,1.5382,1.5382,1.5382,1.5382,1.5382,1.5382,1.5484,1.5701,1.5921,1.6009,1.6228,0.7037,0.709,0.7269,0.7439,0.7756,0.826,0.92,0.9404,0.9559,1.0106,0.9884,0.9689,0.986,0.9892,0.0,1.0188,1.0669,0.0,0.0,0.0,0.0,0.0,0.0,0.0,0.0,0.0,0.0,0.0,0.0,0.0,0.0,1.3521,1.4223,1.4223,1.5328,1.5914,1.5902,1.5596,1.5399,1.5399,1.5083,1.5095,1.5399,1.5411,1.5203,1.4901,1.4901,1.4807,1.474,1.6069,1.7285,1.8262,1.794,1.7808,1.7808,1.7808,1.7604,1.7369,1.7691,1.7604,1.7279,1.7279,1.7279,1.7279,1.7279,1.7279,1.7279,1.7279,1.7279,1.7279,1.7279,1.7279,1.7279,1.7279,1.7279,1.7279,1.7279,1.7279,1.7279,1.7279,1.7279,1.7279,1.7279,1.7279,1.7279,1.7279,1.7279,1.7279,1.7279,1.7279,1.7208,1.6947,1.6609,1.6419,1.6419,1.6419,1.6419,1.6419,1.6082,1.5732,1.5411,1.5396,1.5396,1.5396,1.5396,1.5396,1.5396,1.5717,1.5921,1.5935,1.6228,1.6595,0.6857,0.7082,0.7447,0.7673,0.0,0.0,0.0,0.9632,0.0,0.0,1.0355,1.0156,1.0257,1.0274,0.0,1.0347,1.059,0.0,0.0,0.0,0.0,0.0,0.0,0.0,0.0,0.0,0.0,0.0,0.0,0.0,0.0,1.3521,1.4094,1.3869,1.5753,1.6639,1.6394,1.7113,1.7424,1.7424,1.7327,1.6927,1.6214,1.5593,1.5946,1.6918,1.633,1.6268,1.651,1.6942,1.7285,1.7604,1.7516,1.7425,1.7425,1.7425,1.7413,1.7293,1.7395,1.7366,1.7279,1.7279,1.7279,1.7279,1.7279,1.7279,1.7279,1.7279,1.7279,1.7279,1.7279,1.7279,1.7279,1.7279,1.7279,1.7279,1.7279,1.7279,1.7279,1.7279,1.7279,1.7279,1.7279,1.7279,1.7279,1.7279,1.7279,1.7279,1.7279,1.7279,1.7296,1.7194,1.6901,1.6844,1.7018,1.6623,1.6507,1.6741,1.6463,1.6096,1.5789,1.5774,1.5774,1.5774,1.5979,1.6096,1.6096,1.6184,1.6345,1.6624,1.6712,1.6932,0.7001,0.7342,0.0,0.8057,0.8686,0.9356,0.9965,0.0,0.0,0.0,1.0558,1.0383,1.0383,1.0383,0.0,1.0383,0.0,0.0,0.0,0.0,0.0,0.0,0.0,0.0,0.0,0.0,0.0,0.0,0.0,0.0,0.0,1.4248,1.4757,1.4854,1.6598,1.7479,1.7299,1.7816,1.8101,1.8101,1.7984,1.7523,1.6877,1.646,1.6793,1.7571,1.7108,1.7042,1.7279,1.7279,1.7279,1.7279,1.7279,1.7279,1.7279,1.7279,1.7279,1.7279,1.7279,1.7279,1.7279,1.7279,1.7279,1.7279,1.7279,1.7279,1.7279,1.7279,1.7279,1.7279,1.7279,1.7279,1.7279,1.7279,1.7279,1.7279,1.7279,1.7279,1.7279,1.7279,1.7279,1.7279,1.7279,1.7279,1.7279,1.7279,1.7279,1.7279,1.7279,1.7279,1.7279,1.7279,1.7165,1.7121,1.7311,1.6974,1.6828,1.7033,1.6785,1.6521,1.6301,1.617,1.6096,1.6096,1.6316,1.6419,1.6419,1.6536,1.6712,1.6903,1.7035,1.715,0.738,0.7707,0.8081,0.8514,0.9045,0.0,1.0298,1.0582,1.0688,1.0688,0.0,1.0407,1.0407,1.0407,0.0,0.0,0.0,0.0,0.0,0.0,0.0,0.0,0.0,0.0,0.0,0.0,0.0,0.0,0.0,0.0,0.0,1.5329,1.5884,1.656,1.7655,1.8247,1.8218,1.7925,1.7765,1.7765,1.7472,1.7279,1.7293,1.7633,1.7604,1.7279,1.7279,1.7279,1.7279,1.7279,1.7279,1.7279,1.7279,1.7279,1.7279,1.7279,1.7279,1.7279,1.7279,1.7279,1.7279,1.7279,1.7279,1.7279,1.7279,1.7279,1.7279,1.7279,1.7279,1.7279,1.7279,1.7279,1.7279,1.7279,1.7279,1.7279,1.7279,1.7279,1.7279,1.7279,1.7279,1.7279,1.7279,1.7279,1.7279,1.7279,1.7279,1.7279,1.7279,1.7279,1.7279,1.7279,1.7279,1.7279,1.7279,1.7279,1.7279,1.7279,1.7062,1.6947,1.6947,1.6639,1.6463,1.6463,1.6492,1.6507,1.6507,1.68,1.6947,1.6947,1.7194,1.7279,0.7045,0.7469,0.0,0.0,0.9331,1.0155,1.0534,1.0664,1.0688,1.0688,1.0664,1.0639,1.0639,0.0,0.0,0.0,0.0,0.0,0.0,0.0,0.0,0.0,0.0,0.0,0.0,0.0,0.0,0.0,0.0,0.0,1.4862,1.5834,1.6344,1.6206,1.7329,1.7794,1.7545,1.7425,1.7381,0.0,1.7308,1.7279,1.7279,1.7352,1.7352,1.7279,1.7279,1.7279,1.7279,1.7279,1.7279,1.7279,1.7279,1.7279,1.7279,1.7279,1.7279,1.7279,1.7279,1.7279,1.7279,1.7279,1.7279,1.7279,1.7279,1.7279,1.7279,1.7279,1.7279,1.7279,1.7279,1.7279,1.7279,1.7279,1.7279,1.7279,1.7279,1.7279,1.7279,1.7279,1.7279,1.7279,1.7279,1.7279,1.7279,1.7279,1.7279,1.7279,1.7279,1.7279,1.7279,1.7279,1.7279,1.7279,1.7279,1.7279,1.7279,1.7279,1.7267,1.7223,1.7223,1.6916,1.68,1.68,1.6989,1.7121,1.7121,1.7194,1.7223,1.7223,1.725,1.7279,0.7032,0.0,0.0,0.8877,0.0,1.0286,1.0509,1.0631,1.0672,1.0582,1.0631,0.0,0.0,0.0,0.0,0.0,0.0,0.0,0.0,0.0,0.0,0.0,0.0,0.0,0.0,0.0,0.0,0.0,0.0,1.4724,1.5967,1.6259,1.6497,1.6669,1.7242,1.7501,1.7279,1.7279,1.7279,1.7279,1.7279,1.7279,1.7279,1.7279,1.7279,1.7279,1.7279,1.7279,1.7279,1.7279,1.7279,1.7279,1.7279,1.7279,1.7279,1.7279,1.7279,1.7279,1.7279,1.7279,1.7279,1.7279,1.7279,1.7279,1.7279,1.7279,1.7279,1.7279,1.7279,1.7279,1.7279,1.7279,1.7279,1.7279,1.7279,1.7279,1.7279,1.7279,1.7279,1.7279,1.7279,1.7279,1.7279,1.7279,1.7279,1.7279,1.7279,1.7279,1.7279,1.7279,1.7279,1.7279,1.7279,1.7279,1.7279,1.7279,1.7279,1.7279,1.7279,1.7279,1.7279,1.7165,1.7077,1.7077,1.7252,1.7279,1.7279,1.7279,1.7279,1.7279,1.7279,1.7279,0.7186,0.0,0.8268,0.9315,0.9827,0.0,1.0339,1.0501,1.0558,1.042,0.0,0.0,0.0,0.0,0.0,0.0,0.0,0.0,0.0,0.0,0.0,0.0,0.0,0.0,0.0,0.0,0.0,0.0,0.0,1.5783,1.72,1.6716,1.6669,1.7279,1.7279,1.7279,1.7279,1.7279,1.7279,1.7279,1.7279,1.7279,1.7279,1.7279,1.7279,1.7279,1.7279,1.7279,1.7279,1.7279,1.7279,1.7279,1.7279,1.7279,1.7279,1.7279,1.7279,1.7279,1.7279,1.7279,1.7279,1.7279,1.7279,1.7279,1.7279,1.7279,1.7279,1.7279,1.7279,1.7279,1.7279,1.7279,1.7279,1.7279,1.7279,1.7279,1.7279,1.7279,1.7279,1.7279,1.7279,1.7279,1.7279,1.7279,1.7279,1.7279,1.7279,1.7279,1.7279,1.7279,1.7279,1.7279,1.7279,1.7279,1.7279,1.7279,1.7279,1.7279,1.7279,1.7279,1.7279,1.7279,1.7279,1.7279,1.7279,1.7279,1.7279,1.7279,1.7279,1.7279,1.7279,1.7279,0.7316,0.0,0.8235,0.0,0.9543,0.9786,0.0,0.0,0.0,0.0,0.0,0.0,0.0,0.0,0.0,0.0,0.0,0.0,0.0,0.0,0.0,0.0,0.0,0.0,0.0,0.0,0.0,0.0,1.5763,1.6177,1.7232,1.7232,1.7185,1.7279,1.7279,1.7279,1.7279,1.7279,1.7279,1.7279,1.7279,1.7279,1.7279,1.7279,1.7279,1.7279,1.7279,1.7279,1.7279,1.7279,1.7279,1.7279,1.7279,1.7279,1.7279,1.7279,1.7279,1.7279,1.7279,1.7279,1.7279,1.7279,1.7279,1.7279,1.7279,1.7279,1.7279,1.7279,1.7279,1.7279,1.7279,1.7279,1.7279,1.7279,1.7279,1.7279,1.7279,1.7279,1.7279,1.7279,1.7279,1.7279,1.7279,1.7279,1.7279,1.7279,1.7279,1.7279,1.7279,1.7279,1.7279,1.7279,1.7279,1.7279,1.7279,1.7279,1.7279,1.7279,1.7279,1.7279,1.7279,1.7279,1.7279,1.7279,1.7279,1.7279,1.7279,1.7279,1.7279,1.7279,1.7279,1.7279,0.7664,0.7647,0.791,0.0,0.9241,0.9543,0.9803,0.0,0.0,0.0,0.0,0.0,0.0,0.0,0.0,0.0,0.0,0.0,0.0,0.0,0.0,0.0,0.0,0.0,0.0,0.0,0.0,0.0,1.6655,1.6857,1.7279,1.7279,1.7279,1.7279,1.7279,1.7279,1.7279,1.7279,1.7279,1.7279,1.7279,1.7279,1.7279,1.7279,1.7279,1.7279,1.7279,1.7279,1.7279,1.7279,1.7279,1.7279,1.7279,1.7279,1.7279,1.7279,1.7279,1.7279,1.7279,1.7279,1.7279,1.7279,1.7279,1.7279,1.7279,1.7279,1.7279,1.7279,1.7279,1.7279,1.7279,1.7279,1.7279,1.7279,1.7279,1.7279,1.7279,1.7279,1.7279,1.7279,1.7279,1.7279,1.7279,1.7279,1.7279,1.7279,1.7279,1.7279,1.7279,1.7279,1.7279,1.7279,1.7279,1.7279,1.7279,1.7279,1.7279,1.7279,1.7279,1.7279,1.7279,1.7279,1.7279,1.7279,1.7279,1.7279,1.7279,1.7279,1.7279,1.7279,1.7279,1.7279,0.7687,0.7504,0.7476,0.8139,0.8735,0.92,0.0,0.0,0.0,0.0,0.0,0.0,0.0,0.0,0.0,0.0,0.0,0.0,0.0,0.0,0.0,0.0,0.0,0.0,0.0,0.0,0.0,0.0,1.7279,1.7279,1.7279,1.7279,1.7279,1.7279,1.7279,1.7279,1.7279,1.7279,1.7279,1.7279,1.7279,1.7279,1.7279,1.7279,1.7279,1.7279,1.7279,1.7279,1.7279,1.7279,1.7279,1.7279,1.7279,1.7279,1.7279,1.7279,1.7279,1.7279,1.7279,1.7279,1.7279,1.7279,1.7279,1.7279,1.7279,1.7279,1.7279,1.7279,1.7279,1.7279,1.7279,1.7279,1.7279,1.7279,1.7279,1.7279,1.7279,1.7279,1.7279,1.7279,1.7279,1.7279,1.7279,1.7279,1.7279,1.7279,1.7279,1.7279,1.7279,1.7279,1.7279,1.7279,1.7279,1.7279,1.7279,1.7279,1.7279,1.7279,1.7279,1.7279,1.7279,1.7279,1.7279,1.7279,1.7279,1.7279,1.7279,1.7279,1.7279,1.7279,1.7279,1.7279,0.721,0.7029,0.6942,0.743,0.0,0.0,0.0,0.0,0.0,0.0,0.0,0.0,0.0,0.0,0.0,0.0,0.0,0.0,0.0,0.0,0.0,0.0,0.0,0.0,0.0,0.0,0.0,0.0,1.7279,1.7279,1.7279,1.7279,1.7279,1.7279,1.7279,1.7279,1.7279,1.7279,1.7279,1.7279,1.7279,1.7279,1.7279,1.7279,1.7279,1.7279,1.7279,1.7279,1.7279,1.7279,1.7279,1.7279,1.7279,1.7279,1.7279,1.7279,1.7279,1.7279,1.7279,1.7279,1.7279,1.7279,1.7279,1.7279,1.7279,1.7279,1.7279,1.7279,1.7279,1.7279,1.7279,1.7279,1.7279,1.7279,1.7279,1.7279,1.7279,1.7279,1.7279,1.7279,1.7279,1.7279,1.7279,1.7279,1.7279,1.7279,1.7279,1.7279,1.7279,1.7279,1.7279,1.7279,1.7279,1.7279,1.7279,1.7279,1.7279,1.7279,1.7279,1.7279,1.7279,1.7279,1.7279,1.7279,1.7279,1.7279,1.7279,1.7279,1.7279,1.7279,1.7279,1.7279,0.7046,0.7042,0.0,0.7014,0.0,0.0,0.0,0.0,0.0,0.0,0.0,0.0,0.0,0.0,0.0,0.0,0.0,0.0,0.0,0.0,0.0,0.0,0.0,0.0,0.0,0.0,0.0,0.0,0.0,1.7279,1.7279,1.7279,1.7279,1.7279,1.7279,1.7279,1.7279,1.7279,1.7279,1.7279,1.7279,1.7279,1.7279,1.7279,1.7279,1.7279,1.7279,1.7279,1.7279,1.7279,1.7279,1.7279,1.7279,1.7279,1.7279,1.7279,1.7279,1.7279,1.7279,1.7279,1.7279,1.7279,1.7279,1.7279,1.7279,1.7279,1.7279,1.7279,1.7279,1.7279,1.7279,1.7279,1.7279,1.7279,1.7279,1.7279,1.7279,1.7279,1.7279,1.7279,1.7279,1.7279,1.7279,1.7279,1.7279,1.7279,1.7279,1.7352,1.7618,1.7647,1.7721,1.7925,1.7955,1.7955,1.7955,1.7955,1.7955,1.7955,1.7765,1.7735,1.794,1.7545,1.7381,1.7633,1.7381,1.7279,1.7279,1.7279,1.7279,1.7279,1.7279,1.7279,0.6868,0.6794,0.0,0.0,0.0,0.0,0.0,0.0,0.0,0.0,0.0,0.0,0.0,0.0,0.0,0.0,0.0,0.0,0.0,0.0,0.0,0.0,0.0,0.0,0.0,0.0,0.0,0.0,0.0,0.0,1.7279,1.7279,1.7282,1.7179,1.7165,1.7121,1.7004,1.7121,1.7165,1.7165,1.7282,1.7279,1.7279,1.7279,1.7279,1.7279,1.7279,1.7279,1.7279,1.7279,1.7279,1.7279,1.7279,1.7279,1.7279,1.7279,1.7279,1.7279,1.7279,1.7279,1.7279,1.7279,1.7279,1.7279,1.7279,1.7279,1.7279,1.7279,1.7279,1.7279,1.7279,1.7279,1.7279,1.7279,1.7366,1.7486,1.7486,1.7352,1.7279,1.7279,1.7366,1.7486,1.7486,1.7589,1.7662,1.7662,1.7662,1.7735,1.7955,1.7984,1.8057,1.8277,1.8306,1.8306,1.8306,1.8306,1.8306,1.8306,1.8101,1.8072,1.8291,1.7882,1.7765,1.7969,1.7662,1.7486,1.7486,1.7337,1.7279,1.7279,1.7279,1.7279,0.0,0.0,0.0,0.0,0.0,0.0,0.0,0.0,0.0,0.0,0.0,0.0,0.0,0.0,0.0,0.0,0.0,0.0,0.0,0.0,0.0,0.0,0.0,0.0,0.0,0.0,0.0,0.0,1.7279,1.7279,1.7279,1.7279,1.7179,1.6917,1.6903,1.6756,1.6433,1.6741,1.6903,1.6888,1.7165,1.7311,1.7311,1.7311,1.7279,1.7279,1.7279,1.7279,1.7279,1.7279,1.7279,1.7279,1.7279,1.7279,1.7279,1.7279,1.7279,1.7279,1.7279,1.7279,1.7279,1.7279,1.7279,1.7279,1.7279,1.7279,1.7279,1.7279,1.7279,1.7279,1.7279,1.7293,1.7293,1.7293,1.7589,1.7823,1.7823,1.7574,1.7308,1.7308,1.7618,1.7823,1.7823,1.8086,1.8306,1.8306,1.8306,1.8306,1.8321,1.8321,1.8321,1.8335,1.8335,1.8335,1.8335,1.8335,1.8335,1.8335,1.8321,1.8321,1.8335,1.8321,1.8306,1.8321,1.7984,1.7808,1.7808,1.7439,1.7279,1.7279,1.7279,1.7279,0.7498,0.0,0.0,0.0,0.0,0.0,0.0,0.0,0.0,0.0,0.0,0.0,0.0,0.0,0.0,0.0,0.0,0.0,0.0,0.0,0.0,0.0,0.0,0.0,0.0,0.0,0.0,0.0,1.7279,1.7279,1.7279,1.7279,1.7296,1.7208,1.702,1.6859,1.6771,1.6859,1.6785,1.6551,1.6873,1.7035,1.7035,1.7035,1.7106,1.7279,1.7279,1.7279,1.7279,1.7279,1.7279,1.7279,1.7279,1.7279,1.7279,1.7279,1.7279,1.7279,1.7279,1.7279,1.7279,1.7279,1.7279,1.7279,1.7279,1.7279,1.7279,1.7279,1.7279,1.7279,1.7279,1.7501,1.7677,1.7677,1.7925,1.8174,1.8174,1.8101,1.8028,1.8028,1.8101,1.8174,1.8174,1.8247,1.8306,1.8306,1.8306,1.8394,1.8628,1.8657,1.8745,1.8979,1.9008,1.9008,1.9008,1.9008,1.9008,1.9008,1.8789,1.876,1.8994,1.8555,1.8408,1.8657,1.8101,1.7808,1.7808,1.7439,1.7279,1.7279,1.7279,1.7279,0.8227,0.8318,0.0,0.0,0.0,0.0,0.0,0.857,0.0,0.0,0.0,0.0,0.0,0.0,0.0,0.0,0.0,0.0,0.0,0.0,0.0,0.0,0.0,0.0,0.0,1.7279,1.7279,1.7279,1.7279,1.7279,1.7279,1.7279,1.7267,1.7135,1.6991,1.6829,1.6697,1.6829,1.6741,1.6419,1.6741,1.6829,1.6697,1.6844,1.7005,1.715,1.7413,1.741,1.7293,1.7425,1.7457,1.7279,1.7279,1.7279,1.7279,1.7279,1.7279,1.7279,1.7279,1.7279,1.7279,1.7279,1.7279,1.7279,1.7279,1.7279,1.7279,1.7279,1.7279,1.7279,1.7279,1.7425,1.7618,1.7618,1.7969,1.8306,1.8306,1.8511,1.8628,1.835,1.8408,1.8511,1.8511,1.8613,1.8701,1.8701,1.8701,1.8774,1.8964,1.8994,1.9067,1.9257,1.9272,1.9272,1.9272,1.9272,1.9272,1.9272,1.9096,1.9081,1.9272,1.8906,1.8803,1.8994,1.8482,1.8086,1.7808,1.7439,1.7279,1.7279,1.7279,1.7279,0.8934,0.862,0.8413,0.0,0.0,0.0,0.8853,0.8766,0.0,0.0,0.0,0.0,0.0,0.0,0.0,0.0,0.0,0.0,0.0,0.0,0.0,0.0,0.0,0.0,1.7223,1.7223,1.7223,1.7223,1.7206,1.7282,1.7282,1.7264,1.7194,1.6961,1.6917,1.6756,1.6463,1.6756,1.6727,1.636,1.6697,1.6697,1.6419,1.6712,1.6888,1.6991,1.7516,1.7604,1.7308,1.7647,1.7589,1.7279,1.7279,1.7279,1.7279,1.7279,1.7279,1.7279,1.7279,1.7279,1.7279,1.7279,1.7279,1.7279,1.7279,1.7279,1.7279,1.7279,1.7279,1.7279,1.7279,1.7308,1.7384,1.7384,1.7852,1.8306,1.835,1.8818,1.9067,1.8511,1.8642,1.8847,1.8847,1.9081,1.9272,1.9272,1.9272,1.9272,1.9272,1.9272,1.9272,1.9272,1.9272,1.9272,1.9272,1.9272,1.9272,1.9272,1.9272,1.9272,1.9272,1.9272,1.9272,1.9272,1.895,1.8482,1.7867,1.7545,1.7384,1.7337,1.7366,1.7366,0.9923,0.9962,1.0061,0.991,0.0,0.0,0.9624,0.9509,0.9599,0.0,0.0,0.0,0.0,0.0,0.0,0.0,0.0,0.0,0.0,0.0,0.0,0.0,0.0,0.0,1.6595,1.6595,1.6595,1.6595,1.6844,1.6991,1.6991,1.7194,1.7296,1.7238,1.6989,1.6873,1.68,1.6873,1.6609,1.6009,1.6316,1.6477,1.6419,1.6477,1.674,1.7238,1.7369,1.7337,1.734,1.7352,1.7337,1.7279,1.7279,1.7279,1.7279,1.7279,1.7279,1.7279,1.7279,1.7279,1.7279,1.7279,1.7279,1.7279,1.7279,1.7279,1.7279,1.7279,1.7279,1.7279,1.7279,1.7516,1.7721,1.7721,1.8013,1.8379,1.8642,1.8789,1.8921,1.9067,1.914,1.9184,1.9184,1.9242,1.9272,1.9272,1.9272,1.9272,1.9272,1.9272,1.9272,1.9272,1.9272,1.9272,1.9272,1.9272,1.9272,1.9272,1.9272,1.9272,1.9272,1.9272,1.9272,1.9272,1.895,1.8599,1.8203,1.7882,1.7721,1.7721,1.7984,1.7969,1.0461,1.0479,1.0586,1.0555,0.0,0.0,0.0,1.0113,0.9994,1.0684,0.0,0.0,0.0,0.0,0.0,0.0,0.0,0.0,0.0,0.0,0.0,0.0,0.0,0.0,1.614,1.6316,1.6419,1.6419,1.6565,1.6653,1.6653,1.6961,1.7091,1.7091,1.7091,1.7091,1.7091,1.7091,1.6769,1.614,1.6507,1.6492,1.6155,1.6507,1.6829,1.7106,1.7428,1.7574,1.7574,1.7574,1.7574,1.7512,1.7352,1.7279,1.7279,1.7279,1.7279,1.7279,1.7279,1.7279,1.7279,1.7279,1.7279,1.7279,1.7279,1.7279,1.7279,1.7279,1.7279,1.7279,1.7279,1.7395,1.7574,1.7574,1.7823,1.8101,1.8262,1.8555,1.8833,1.8994,1.9169,1.9272,1.9272,1.9272,1.9272,1.9272,1.9272,1.9272,1.9272,1.9272,1.9272,1.9272,1.9272,1.9272,1.9272,1.9272,1.9272,1.9272,1.9272,1.9272,1.9272,1.9272,1.9272,1.9272,1.895,1.8701,1.854,1.8379,1.8218,1.8057,1.8218,1.8218,0.0,0.0,0.0,0.0,0.0,1.069,0.0,0.0,0.0,1.0776,0.0,0.0,0.0,0.0,0.0,0.0,0.0,0.0,0.0,0.0,0.0,0.0,0.0,0.0,0.0,1.5701,1.5964,1.617,1.611,1.6125,1.6272,1.6639,1.6829,1.6903,1.7106,1.7267,1.7279,1.7267,1.6945,1.6419,1.6683,1.6536,1.6023,1.6639,1.6932,1.702,1.7486,1.7721,1.7721,1.7721,1.7721,1.7691,1.7428,1.7279,1.7279,1.7279,1.7279,1.7279,1.7279,1.7279,1.7279,1.7279,1.7279,1.7279,1.7279,1.7279,1.7279,1.7279,1.7279,1.7279,1.7279,1.7279,1.7279,1.7279,1.753,1.775,1.7882,1.8321,1.873,1.8862,1.9096,1.9272,1.9272,1.9272,1.9272,1.9272,1.9272,1.9272,1.9272,1.9272,1.9272,1.9272,1.9272,1.9272,1.9272,1.9272,1.9272,1.9272,1.9272,1.9272,1.9272,1.9272,1.9272,1.9272,1.9023,1.8877,1.8877,1.8877,1.8716,1.8394,1.8467,1.8452,0.0,0.0,0.0,0.0,1.2151,0.0,0.0,0.0,1.0575,1.0139,0.0,0.0,0.0,0.0,0.0,0.0,0.0,0.0,0.0,0.0,0.0,0.0,0.0,0.0,0.0,1.3975,1.4296,1.5452,1.5013,1.5057,1.5921,1.6257,1.6595,1.6888,1.6932,1.7047,1.7279,1.7047,1.6771,1.6419,1.6448,1.6433,1.6375,1.6727,1.7004,1.7282,1.7355,1.7337,1.7337,1.7337,1.7337,1.7337,1.7293,1.7279,1.7279,1.7279,1.7279,1.7279,1.7279,1.7279,1.7279,1.7279,1.7279,1.7279,1.7279,1.7279,1.7279,1.7279,1.7279,1.7279,1.7279,1.7279,1.7279,1.7279,1.7308,1.7545,1.8116,1.8306,1.8525,1.9111,1.9257,1.9272,1.9272,1.9272,1.9272,1.9272,1.9272,1.9272,1.9272,1.9272,1.9272,1.9272,1.9272,1.9272,1.9272,1.9272,1.9272,1.9272,1.9272,1.9272,1.9272,1.9272,1.9272,1.9272,1.9242,1.9213,1.9213,1.9213,1.9052,1.8745,1.9038,1.9008,0.0,0.0,0.0,0.0,0.0,0.0,1.1432,0.0,1.0826,0.0,0.0,0.0,0.0,0.0,0.0,0.0,0.0,0.0,0.0,0.0,0.0,0.0,0.0,0.0,0.0,0.0,0.0,0.0,1.4267,1.4326,1.5265,1.5657,1.5965,1.6301,1.6712,1.6961,1.7047,1.7106,1.6872,1.6419,1.674,1.6726,1.6433,1.6901,1.7208,1.7279,1.7279,1.7381,1.7618,1.7618,1.7618,1.7618,1.7618,1.7454,1.7279,1.7279,1.7279,1.7279,1.7279,1.7279,1.7279,1.7279,1.7279,1.7279,1.7279,1.7279,1.7279,1.7279,1.7279,1.7279,1.7279,1.7279,1.7279,1.7279,1.7425,1.7691,1.7955,1.8321,1.8672,1.8935,1.914,1.9272,1.9272,1.9272,1.9272,1.9272,1.9272,1.9272,1.9272,1.9272,1.9272,1.9272,1.9272,1.9272,1.9272,1.9272,1.9272,1.9272,1.9272,1.9272,1.9272,1.9272,1.9272,1.9272,1.9272,1.9272,1.9272,1.9272,1.9213,1.9067,1.9213,1.9199,1.3719,0.0,0.0,0.0,0.0,0.0,0.0,0.0,0.0,0.0,0.0,0.0,0.0,0.0,0.0,0.0,0.0,0.0,0.0,0.0,0.0,0.0,0.0,0.0,0.0,0.0,0.0,0.0,0.0,1.3506,1.475,1.5028,1.5394,1.5906,1.6433,1.6815,1.6903,1.7077,1.696,1.6551,1.6974,1.696,1.6565,1.7077,1.7279,1.7279,1.7279,1.7457,1.7691,1.7779,1.7765,1.7691,1.7779,1.7618,1.7279,1.7279,1.7279,1.7279,1.7279,1.7279,1.7279,1.7279,1.7279,1.7279,1.7279,1.7279,1.7279,1.7279,1.7279,1.7279,1.7279,1.7352,1.7457,1.7457,1.7706,1.7969,1.8057,1.8452,1.8818,1.8906,1.9111,1.9272,1.9272,1.9272,1.9272,1.9272,1.9272,1.9272,1.9272,1.9272,1.9272,1.9272,1.9272,1.9272,1.9272,1.9272,1.9272,1.9272,1.9272,1.9272,1.9272,1.9272,1.9272,1.9272,1.9272,1.9272,1.9272,1.9272,1.9272,1.9272,1.9272,1.9272,0.0,0.0,0.0,1.3872,0.0,0.0,0.0,0.0,1.216,0.0,0.0,0.0,0.0,0.0,0.0,0.0,0.0,0.0,0.0,0.0,0.0,0.0,0.0,0.0,0.0,0.0,0.0,0.0,1.2384,0.0,1.4423,1.4526,1.494,1.5891,1.6213,1.658,1.6903,1.6917,1.6903,1.6888,1.6903,1.6903,1.6903,1.7179,1.7279,1.7279,1.7279,1.734,1.7323,1.7691,1.7633,1.7337,1.7691,1.7618,1.7279,1.7279,1.7279,1.7279,1.7279,1.7279,1.7279,1.7279,1.7279,1.7279,1.7279,1.7279,1.7279,1.7279,1.7279,1.7279,1.7279,1.756,1.7794,1.7794,1.8057,1.8364,1.8686,1.8774,1.8877,1.9199,1.9272,1.9272,1.9272,1.9272,1.9272,1.9272,1.9272,1.9272,1.9272,1.9272,1.9272,1.9272,1.9272,1.9272,1.9272,1.9272,1.9272,1.9272,1.9272,1.9272,1.9272,1.9272,1.9272,1.9272,1.9272,1.9272,1.9272,1.9272,1.9272,1.9272,1.9272,1.9272,0.0,0.0,1.6199,1.4754,0.0,0.0,0.0,0.0,0.0,0.0,0.0,0.0,0.0,0.0,0.0,0.0,0.0,0.0,0.0,0.0,0.0,0.0,0.0,0.0,0.0,0.0,0.0,0.0,1.2116,0.0,0.0,1.4276,1.4721,1.5206,1.5979,1.6463,1.658,1.696,1.7062,1.6903,1.7062,1.7062,1.6917,1.7179,1.7279,1.7279,1.7279,1.7279,1.7323,1.7911,1.7823,1.7384,1.7925,1.7808,1.7279,1.7279,1.7279,1.7279,1.7279,1.7279,1.7279,1.7279,1.7279,1.7279,1.7279,1.7279,1.7279,1.7279,1.7279,1.7337,1.7541,1.7735,1.7867,1.8086,1.8394,1.8657,1.876,1.8964,1.914,1.9257,1.9272,1.9272,1.9272,1.9272,1.9272,1.9272,1.9272,1.9272,1.9272,1.9272,1.9272,1.9272,1.9272,1.9272,1.9272,1.9272,1.9272,1.9272,1.9272,1.9272,1.9272,1.9272,1.9272,1.9272,1.9272,1.9272,1.9272,1.9272,1.9272,1.9272,1.9272,1.9272,1.6448,1.6653,0.0,1.5367,1.497,0.0,1.317,0.0,0.0,0.0,0.0,0.0,0.0,0.0,0.0,0.0,0.0,0.0,0.0,0.0,0.0,0.0,0.0,0.0,0.0,0.0,1.115,1.1823,1.1545,0.0,0.0,0.0,1.437,1.4885,1.576,1.6301,1.6419,1.6887,1.7121,1.7018,1.7223,1.7223,1.7033,1.7238,1.7279,1.7279,1.7279,1.7279,1.7337,1.8028,1.7911,1.7352,1.8043,1.7911,1.7279,1.7279,1.7279,1.7279,1.7279,1.7279,1.7279,1.7279,1.7279,1.7279,1.7279,1.7279,1.7279,1.7279,1.7279,1.7352,1.7735,1.7896,1.8072,1.8394,1.873,1.8964,1.8964,1.9125,1.9272,1.9272,1.9272,1.9272,1.9272,1.9272,1.9272,1.9272,1.9272,1.9272,1.9272,1.9272,1.9272,1.9272,1.9272,1.9272,1.9272,1.9272,1.9272,1.9272,1.9272,1.9272,1.9272,1.9272,1.9272,1.9272,1.9272,1.9272,1.9272,1.9272,1.9272,1.9272,1.9272,1.9272]}]]